[[{"header":{"parameterUnit":"m.s-1","parameterCategory":1,"la1":30.6,"la2":28.766,"lo1":-90.7593,"lo2":-88.6598,"dy":0.0162,"dx":0.0183,"nx":116,"ny":114,"refTime":"2023-05-02T00:00:00:Z","depth":0,"parameterNumber":2,"parameterNumberName":"U-component_of_WINDS"},"data":[0.0,0.0,0.0,0.0,0.0,0.0,0.0,0.0,0.0,0.0,0.0,0.0,0.0,0.0,0.0,0.0,0.0,0.0,0.0,0.0,0.0,0.0,0.0,0.0,0.0,0.0,0.0,0.0,0.0,0.0,0.0,0.0,0.0,0.0,0.0,0.0,0.0,0.0,0.0,0.0,0.0,0.0,0.0,0.0,0.0,0.0,0.0,0.0,0.0,0.0,0.0,0.0,0.0,0.0,0.0,0.0,0.0,0.0,0.0,0.0,0.0,0.0,0.0,0.0,0.0,0.0,0.0,0.0,0.0,0.0,0.0,0.0,0.0,0.0,0.0,0.0,0.0,0.0,0.0,0.0,0.0,0.0,0.0,0.0,0.0,0.0,0.0,0.0,0.0,0.0,0.0,0.0,0.0,0.0,0.0,0.0,0.0,0.0,0.0,0.0,0.0,0.0,0.0,0.0,0.0,0.0,0.0,0.0,0.0,0.0,0.0,0.0,0.0,0.0,0.0,0.0,0.0,0.0,0.0,0.0,0.0,0.0,0.0,0.0,0.0,0.0,0.0,0.0,0.0,0.0,0.0,0.0,0.0,0.0,0.0,0.0,0.0,0.0,0.0,0.0,0.0,0.0,0.0,0.0,0.0,0.0,0.0,0.0,0.0,0.0,0.0,0.0,0.0,0.0,0.0,0.0,0.0,0.0,0.0,0.0,0.0,0.0,0.0,0.0,0.0,0.0,0.0,0.0,0.0,0.0,0.0,0.0,0.0,0.0,0.0,0.0,0.0,0.0,0.0,0.0,0.0,0.0,0.0,0.0,0.0,0.0,0.0,0.0,0.0,0.0,0.0,0.0,0.0,0.0,0.0,0.0,0.0,0.0,0.0,0.0,0.0,0.0,0.0,0.0,0.0,0.0,0.0,0.0,0.0,0.0,0.0,0.0,0.0,0.0,0.0,0.0,0.0,0.0,0.0,0.0,0.0,0.0,0.0,0.0,0.0,0.0,0.0,0.0,0.0,0.0,0.0,0.0,0.0,0.0,0.0,0.0,0.0,0.0,0.0,0.0,0.0,0.0,0.0,0.0,0.0,0.0,0.0,0.0,0.0,0.0,0.0,0.0,0.0,0.0,0.0,0.0,0.0,0.0,0.0,0.0,0.0,0.0,0.0,0.0,0.0,0.0,0.0,0.0,0.0,0.0,0.0,0.0,0.0,0.0,0.0,0.0,0.0,0.0,0.0,0.0,0.0,0.0,0.0,0.0,0.0,0.0,0.0,0.0,0.0,0.0,0.0,0.0,0.0,0.0,0.0,0.0,0.0,0.0,0.0,0.0,0.0,0.0,0.0,0.0,0.0,0.0,0.0,0.0,0.0,0.0,0.0,0.0,0.0,0.0,0.0,0.0,0.0,0.0,0.0,0.0,0.0,0.0,0.0,0.0,0.0,0.0,0.0,0.0,0.0,0.0,0.0,0.0,0.0,0.0,0.0,0.0,0.0,0.0,0.0,0.0,0.0,0.0,0.0,0.0,0.0,0.0,0.0,0.0,0.0,0.0,0.0,0.0,0.0,0.0,0.0,0.0,0.0,0.0,0.0,0.0,0.0,0.0,0.0,0.0,0.0,0.0,0.0,0.0,0.0,0.0,0.0,0.0,0.0,0.0,0.0,0.0,0.0,0.0,0.0,0.0,0.0,0.0,0.0,0.0,0.0,0.0,0.0,0.0,0.0,0.0,0.0,0.0,0.0,0.0,0.0,0.0,0.0,0.0,0.0,0.0,0.0,0.0,0.0,0.0,0.0,0.0,0.0,0.0,0.0,0.0,0.0,0.0,0.0,0.0,0.0,0.0,0.0,0.0,0.0,0.0,0.0,0.0,0.0,0.0,0.0,0.0,0.0,0.0,0.0,0.0,0.0,0.0,0.0,0.0,0.0,0.0,0.0,0.0,0.0,0.0,0.0,0.0,0.0,0.0,0.0,0.0,0.0,0.0,0.0,0.0,0.0,0.0,0.0,0.0,0.0,0.0,0.0,0.0,0.0,0.0,0.0,0.0,0.0,0.0,0.0,0.0,0.0,0.0,0.0,0.0,0.0,0.0,0.0,0.0,0.0,0.0,0.0,0.0,0.0,0.0,0.0,0.0,0.0,0.0,0.0,0.0,0.0,0.0,0.0,0.0,0.0,0.0,0.0,0.0,0.0,0.0,0.0,0.0,0.0,0.0,0.0,0.0,0.0,0.0,0.0,0.0,0.0,0.0,0.0,0.0,0.0,0.0,0.0,0.0,0.0,0.0,0.0,0.0,0.0,0.0,0.0,0.0,0.0,0.0,0.0,0.0,0.0,0.0,0.0,0.0,0.0,0.0,0.0,0.0,0.0,0.0,0.0,0.0,0.0,0.0,0.0,0.0,0.0,0.0,0.0,0.0,0.0,0.0,0.0,0.0,0.0,0.0,0.0,0.0,0.0,0.0,0.0,0.0,0.0,0.0,0.0,0.0,0.0,0.0,0.0,0.0,0.0,0.0,0.0,0.0,0.0,0.0,0.0,0.0,0.0,0.0,0.0,0.0,0.0,0.0,0.0,0.0,0.0,0.0,0.0,0.0,0.0,0.0,0.0,0.0,0.0,0.0,0.0,0.0,0.0,0.0,0.0,0.0,0.0,0.0,0.0,0.0,0.0,0.0,0.0,0.0,0.0,0.0,0.0,0.0,0.0,0.0,0.0,0.0,0.0,0.0,0.0,0.0,0.0,0.0,0.0,0.0,0.0,0.0,0.0,0.0,0.0,0.0,0.0,0.0,0.0,0.0,0.0,0.0,0.0,0.0,0.0,0.0,0.0,0.0,0.0,0.0,0.0,0.0,0.0,0.0,0.0,0.0,0.0,0.0,0.0,0.0,0.0,0.0,0.0,0.0,0.0,0.0,0.0,0.0,0.0,0.0,0.0,0.0,0.0,0.0,0.0,0.0,0.0,0.0,0.0,0.0,0.0,0.0,0.0,0.0,0.0,0.0,0.0,0.0,0.0,0.0,0.0,0.0,0.0,0.0,0.0,0.0,0.0,0.0,0.0,0.0,0.0,0.0,0.0,0.0,0.0,0.0,0.0,0.0,0.0,0.0,0.0,0.0,0.0,0.0,0.0,0.0,0.0,0.0,0.0,0.0,0.0,0.0,0.0,0.0,0.0,0.0,0.0,0.0,0.0,0.0,0.0,0.0,0.0,0.0,0.0,0.0,0.0,0.0,0.0,0.0,0.0,0.0,0.0,0.0,0.0,0.0,0.0,0.0,0.0,0.0,0.0,0.0,0.0,0.0,0.0,0.0,0.0,0.0,0.0,0.0,0.0,0.0,0.0,0.0,0.0,0.0,0.0,0.0,0.0,0.0,0.0,0.0,0.0,0.0,0.0,0.0,0.0,0.0,0.0,0.0,0.0,0.0,0.0,0.0,0.0,0.0,0.0,0.0,0.0,0.0,0.0,0.0,0.0,0.0,0.0,0.0,0.0,0.0,0.0,0.0,0.0,0.0,0.0,0.0,0.0,0.0,0.0,0.0,0.0,0.0,0.0,0.0,0.0,0.0,0.0,0.0,0.0,0.0,0.0,0.0,0.0,0.0,0.0,0.0,0.0,0.0,0.0,0.0,0.0,0.0,0.0,0.0,0.0,0.0,0.0,0.0,0.0,0.0,0.0,0.0,0.0,0.0,0.0,0.0,0.0,0.0,0.0,0.0,0.0,0.0,0.0,0.0,0.0,0.0,0.0,0.0,0.0,0.0,0.0,0.0,0.0,0.0,0.0,0.0,0.0,0.0,0.0,0.0,0.0,0.0,0.0,0.0,0.0,0.0,0.0,0.0,0.0,0.0,0.0,0.0,0.0,0.0,0.0,0.0,0.0,0.0,0.0,0.0,0.0,0.0,0.0,0.0,0.0,0.0,0.0,0.0,0.0,0.0,0.0,0.0,0.0,0.0,0.0,0.0,0.0,0.0,0.0,0.0,0.0,0.0,0.0,0.0,0.0,0.0,0.0,0.0,0.0,0.0,0.0,0.0,0.0,0.0,0.0,0.0,0.0,0.0,0.0,0.0,0.0,0.0,0.0,0.0,0.0,0.0,0.0,0.0,0.0,0.0,0.0,0.0,0.0,0.0,0.0,0.0,0.0,0.0,0.0,0.0,0.0,0.0,0.0,0.0,0.0,0.0,0.0,0.0,0.0,0.0,0.0,0.0,0.0,0.0,0.0,0.0,0.0,0.0,0.0,0.0,0.0,0.0,0.0,0.0,0.0,0.0,0.0,0.0,0.0,0.0,0.0,0.0,0.0,0.0,0.0,0.0,0.0,0.0,0.0,0.0,0.0,0.0,0.0,0.0,0.0,0.0,0.0,0.0,0.0,0.0,0.0,0.0,0.0,0.0,0.0,0.0,0.0,0.0,0.0,0.0,0.0,0.0,0.0,0.0,0.0,0.0,0.0,0.0,0.0,0.0,0.0,0.0,0.0,0.0,0.0,0.0,0.0,0.0,0.0,0.0,0.0,0.0,0.0,0.0,0.0,0.0,0.0,0.0,0.0,0.0,0.0,0.0,0.0,0.0,0.0,0.0,0.0,0.0,0.0,0.0,0.0,0.0,0.0,0.0,0.0,0.0,0.0,0.0,0.0,0.0,0.0,0.0,0.0,0.0,0.0,0.0,0.0,0.0,0.0,0.0,0.0,0.0,0.0,0.0,0.0,0.0,0.0,0.0,0.0,0.0,0.0,0.0,0.0,0.0,0.0,0.0,0.0,0.0,0.0,0.0,0.0,0.0,0.0,0.0,0.0,0.0,0.0,0.0,0.0,0.0,0.0,0.0,0.0,0.0,0.0,0.0,0.0,0.0,0.0,0.0,0.0,0.0,0.0,0.0,0.0,0.0,0.0,0.0,0.0,0.0,0.0,0.0,0.0,0.0,0.0,0.0,0.0,0.0,0.0,0.0,0.0,0.0,0.0,0.0,0.0,0.0,0.0,0.0,0.0,0.0,0.0,0.0,0.0,0.0,0.0,0.0,0.0,0.0,0.0,0.0,0.0,0.0,0.0,0.0,0.0,0.0,0.0,0.0,0.0,0.0,0.0,0.0,0.0,0.0,0.0,0.0,0.0,0.0,0.0,0.0,0.0,0.0,0.0,0.0,0.0,0.0,0.0,0.0,0.0,0.0,0.0,0.0,0.0,0.0,0.0,0.0,0.0,0.0,0.0,0.0,0.0,0.0,0.0,0.0,0.0,0.0,0.0,0.0,0.0,0.0,0.0,0.0,0.0,0.0,0.0,0.0,0.0,0.0,0.0,0.0,0.0,0.0,0.0,0.0,0.0,0.0,0.0,0.0,0.0,0.0,0.0,0.0,0.0,0.0,0.0,0.0,0.0,0.0,0.0,0.0,0.0,0.0,0.0,0.0,0.0,0.0,0.0,0.0,0.0,0.0,0.0,0.0,0.0,0.0,0.0,0.0,0.0,0.0,0.0,0.0,0.0,0.0,0.0,0.0,0.0,0.0,0.0,0.0,0.0,0.0,0.0,0.0,0.0,0.0,0.0,0.0,0.0,0.0,0.0,0.0,0.0,0.0,0.0,0.0,0.0,0.0,0.0,0.0,0.0,0.0,0.0,0.0,0.0,0.0,0.0,0.0,0.0,0.0,0.0,0.0,0.0,0.0,0.0,0.0,0.0,0.0,0.0,0.0,0.0,0.0,0.0,0.0,0.0,0.0,0.0,0.0,0.0,0.0,0.0,0.0,0.0,0.0,0.0,0.0,0.0,0.0,0.0,0.0,0.0,0.0,0.0,0.0,0.0,0.0,0.0,0.0,0.0,0.0,0.0,0.0,0.0,0.0,0.0,0.0,0.0,0.0,0.0,0.0,0.0,0.0,0.0,0.0,0.0,0.0,0.0,0.0,0.0,0.0,0.0,0.0,0.0,0.0,0.0,0.0,0.0,0.0,0.0,0.0,0.0,0.0,0.0,0.0,0.0,0.0,0.0,0.0,0.0,0.0,0.0,0.0,0.0,0.0,0.0,0.0,0.0,0.0,0.0,0.0,0.0,0.0,0.0,0.0,0.0,0.0,0.0,0.0,0.0,0.0,0.0,0.0,-4.8251,-4.8171,0.0,0.0,0.0,0.0,0.0,0.0,0.0,0.0,0.0,0.0,0.0,0.0,0.0,0.0,0.0,0.0,0.0,0.0,0.0,0.0,0.0,0.0,0.0,0.0,0.0,0.0,0.0,0.0,0.0,0.0,0.0,0.0,0.0,0.0,0.0,0.0,0.0,0.0,-3.4819,-3.5851,-3.7005,-3.8698,-4.0403,-4.2074,0.0,0.0,0.0,0.0,0.0,0.0,0.0,0.0,0.0,0.0,0.0,0.0,0.0,0.0,0.0,0.0,0.0,0.0,0.0,0.0,0.0,0.0,0.0,0.0,0.0,0.0,0.0,0.0,0.0,0.0,0.0,0.0,0.0,0.0,0.0,0.0,0.0,0.0,0.0,0.0,0.0,0.0,0.0,0.0,0.0,0.0,0.0,0.0,0.0,0.0,0.0,0.0,0.0,0.0,0.0,0.0,0.0,0.0,0.0,0.0,0.0,0.0,0.0,0.0,0.0,0.0,0.0,0.0,0.0,0.0,-4.6871,-4.6712,0.0,0.0,0.0,0.0,0.0,0.0,0.0,0.0,0.0,0.0,0.0,0.0,0.0,0.0,0.0,0.0,0.0,0.0,0.0,0.0,0.0,0.0,0.0,0.0,0.0,0.0,0.0,0.0,0.0,0.0,0.0,0.0,0.0,0.0,0.0,0.0,0.0,0.0,-3.4187,-3.5251,-3.6137,-3.7239,-3.8609,-4.0196,-4.1325,0.0,0.0,0.0,0.0,0.0,0.0,0.0,0.0,0.0,0.0,0.0,0.0,0.0,0.0,0.0,0.0,0.0,0.0,0.0,0.0,0.0,0.0,0.0,0.0,0.0,0.0,0.0,0.0,0.0,0.0,0.0,0.0,0.0,0.0,0.0,0.0,0.0,0.0,0.0,0.0,0.0,0.0,0.0,0.0,0.0,0.0,0.0,0.0,0.0,0.0,0.0,0.0,0.0,0.0,0.0,0.0,0.0,0.0,0.0,0.0,0.0,0.0,0.0,-4.5001,-4.5323,-4.5342,-4.6067,-4.5862,-4.4923,-4.5244,-4.5067,-4.4527,-4.4825,0.0,0.0,0.0,0.0,0.0,0.0,0.0,0.0,0.0,0.0,0.0,0.0,0.0,0.0,0.0,0.0,0.0,0.0,0.0,0.0,0.0,0.0,0.0,0.0,0.0,0.0,0.0,0.0,0.0,0.0,0.0,0.0,0.0,-3.0837,-3.0771,-3.0825,-3.1805,-3.281,-3.3844,-3.5046,-3.6168,-3.7241,-3.9345,-4.0631,-4.1192,0.0,0.0,0.0,0.0,0.0,0.0,0.0,0.0,0.0,0.0,0.0,0.0,0.0,0.0,0.0,0.0,0.0,0.0,0.0,0.0,0.0,0.0,0.0,0.0,0.0,0.0,0.0,0.0,0.0,0.0,0.0,0.0,0.0,0.0,0.0,0.0,0.0,0.0,0.0,0.0,0.0,-4.3446,-4.3548,0.0,0.0,0.0,0.0,0.0,0.0,0.0,0.0,0.0,0.0,0.0,0.0,0.0,-4.4397,-4.4397,-4.4181,-4.4048,-4.4048,-4.3874,-4.378,-4.378,-4.3924,-4.3872,-4.373,-4.3796,0.0,-4.4106,-4.4242,0.0,0.0,0.0,0.0,0.0,0.0,0.0,0.0,0.0,0.0,0.0,0.0,0.0,0.0,0.0,0.0,0.0,0.0,0.0,0.0,0.0,0.0,0.0,0.0,0.0,0.0,0.0,0.0,0.0,0.0,0.0,0.0,-2.888,-2.9151,-2.9591,-3.0187,-3.1018,-3.1478,-3.1688,-3.2863,-3.3727,-3.443,-3.6061,-3.7917,-3.9824,-3.9824,0.0,0.0,0.0,0.0,0.0,0.0,0.0,0.0,0.0,0.0,0.0,0.0,0.0,0.0,0.0,0.0,0.0,0.0,0.0,0.0,0.0,0.0,0.0,0.0,0.0,0.0,0.0,0.0,0.0,0.0,0.0,0.0,0.0,0.0,0.0,0.0,0.0,0.0,0.0,-4.2845,-4.2995,-4.3286,-4.316,-4.3214,0.0,0.0,0.0,0.0,0.0,0.0,0.0,0.0,0.0,-4.4573,-4.5002,-4.5224,-4.5224,-4.513,-4.5081,-4.5063,-4.4448,-4.4176,-4.4158,-4.3699,-4.3515,-4.3515,-4.3515,-4.358,-4.3742,-4.3992,-4.4165,-4.4337,0.0,0.0,0.0,0.0,-4.4739,-4.4726,0.0,0.0,0.0,0.0,0.0,0.0,0.0,0.0,0.0,0.0,0.0,0.0,0.0,0.0,0.0,-3.0594,0.0,0.0,0.0,0.0,0.0,0.0,0.0,0.0,-2.7343,-2.7812,-2.8357,-2.896,-2.9907,-3.0189,-2.991,-3.0941,-3.1702,-3.2258,-3.3262,-3.5463,-3.8383,-3.8383,-3.908,0.0,0.0,0.0,0.0,0.0,0.0,0.0,0.0,0.0,0.0,0.0,0.0,0.0,0.0,0.0,0.0,0.0,0.0,0.0,0.0,0.0,0.0,0.0,0.0,0.0,0.0,0.0,0.0,0.0,0.0,0.0,0.0,0.0,0.0,0.0,0.0,0.0,0.0,-4.2262,-4.2482,-4.2958,-4.2789,-4.2826,0.0,0.0,0.0,0.0,0.0,0.0,-4.4085,-4.469,-4.5021,-4.5021,-4.559,-4.5902,-4.5902,-4.5902,-4.5902,-4.5883,-4.5296,-4.5021,-4.5002,-4.4378,-4.4103,-4.4103,-4.4103,-4.4103,-4.4101,-4.3941,-4.3881,-4.3927,-4.4223,-4.4369,-4.4397,-4.4457,-4.4471,-4.4457,0.0,0.0,0.0,0.0,0.0,0.0,0.0,0.0,0.0,0.0,0.0,0.0,0.0,0.0,-3.0557,-3.0355,-3.0291,-3.0265,0.0,0.0,0.0,0.0,0.0,-2.816,-2.7707,-2.7346,-2.684,-2.6098,-2.7631,-2.849,-2.8785,-2.9485,-3.0291,-3.1198,-3.182,-3.3849,-3.6706,-3.6706,-3.7636,-3.9139,0.0,0.0,0.0,0.0,0.0,0.0,0.0,0.0,0.0,0.0,0.0,0.0,0.0,0.0,0.0,0.0,0.0,0.0,0.0,0.0,0.0,0.0,0.0,0.0,0.0,0.0,0.0,0.0,0.0,0.0,0.0,0.0,0.0,0.0,0.0,0.0,0.0,0.0,0.0,-4.2464,-4.2523,0.0,0.0,0.0,0.0,-4.4492,-4.4547,-4.4912,-4.5736,-4.581,-4.5847,-4.5847,-4.5883,-4.5902,-4.5902,-4.5902,-4.5902,-4.5902,-4.5865,-4.5847,-4.5847,-4.5792,-4.5773,-4.5773,-4.5773,-4.5773,-4.5663,-4.4156,-4.3565,-4.3632,-4.3649,-4.3734,-4.3835,-4.3835,-4.3853,-4.3851,0.0,0.0,0.0,0.0,0.0,0.0,0.0,0.0,0.0,0.0,0.0,0.0,0.0,-2.9241,-2.8287,-2.7723,-2.7012,-2.6591,-2.6591,0.0,0.0,0.0,0.0,-2.5436,-2.515,-2.4984,-2.4933,-2.4975,-2.5534,-2.6152,-2.6871,-2.7533,-2.8469,-2.9603,-3.024,-3.1675,-3.3679,-3.4707,-3.6011,-3.7478,-3.771,-3.8504,0.0,0.0,0.0,0.0,0.0,0.0,0.0,0.0,0.0,0.0,0.0,0.0,0.0,0.0,0.0,0.0,0.0,0.0,0.0,0.0,0.0,0.0,0.0,0.0,0.0,0.0,0.0,0.0,0.0,0.0,0.0,0.0,0.0,0.0,0.0,0.0,0.0,-4.2453,-4.2375,0.0,-4.3558,-4.3989,-4.4375,-4.4704,-4.505,-4.5367,-4.5698,-4.6191,-4.6522,-4.6616,-4.711,-4.7405,-4.7443,-4.7443,-4.7443,-4.7443,-4.6929,-4.6654,-4.6636,-4.614,-4.5902,-4.5902,-4.5902,-4.5902,-4.5865,-4.5278,-4.4745,-4.4248,-4.3751,-4.3548,-4.36,-4.3669,-4.3667,-4.3684,0.0,0.0,0.0,0.0,0.0,0.0,0.0,0.0,0.0,0.0,0.0,-3.0568,-2.8903,-2.77,-2.6625,-2.5715,-2.4925,-2.4498,-2.4498,0.0,0.0,0.0,-2.3981,-2.3763,-2.3497,-2.3648,-2.3802,-2.4016,-2.4317,-2.4787,-2.5368,-2.583,-2.6625,-2.7752,-2.8402,-2.9513,-3.0976,-3.2437,-3.4071,-3.5663,-3.6151,-3.699,-3.7951,0.0,0.0,0.0,0.0,0.0,0.0,0.0,0.0,0.0,0.0,0.0,0.0,0.0,0.0,0.0,0.0,0.0,0.0,0.0,0.0,0.0,0.0,0.0,0.0,0.0,0.0,0.0,0.0,0.0,0.0,0.0,0.0,0.0,0.0,-4.1155,-4.1653,-4.2601,-4.2545,-4.2784,-4.3723,-4.4192,-4.4559,-4.4892,-4.5389,-4.5838,-4.6132,-4.6817,-4.7246,-4.7324,-4.7836,-4.8149,-4.8209,-4.8209,-4.8209,-4.8248,-4.7735,-4.7479,-4.748,-4.6948,-4.6709,-4.6709,-4.6709,-4.6709,-4.6672,-4.6248,-4.5753,-4.5186,-4.427,-4.3901,-4.3882,-4.3658,-4.3565,-4.3565,0.0,0.0,0.0,0.0,0.0,0.0,0.0,0.0,0.0,0.0,-3.1079,-2.9332,-2.7544,-2.6637,-2.5684,-2.4584,-2.4413,-2.4413,-2.4413,-2.4413,0.0,0.0,0.0,0.0,-2.2945,-2.3348,-2.3338,-2.2965,-2.392,-2.436,-2.4413,-2.4445,-2.4904,-2.5788,-2.6483,-2.7481,-2.8706,-2.9973,-3.1706,-3.3691,-3.515,-3.5808,-3.6106,0.0,0.0,0.0,0.0,0.0,0.0,0.0,0.0,0.0,0.0,0.0,0.0,0.0,0.0,0.0,0.0,0.0,0.0,0.0,0.0,0.0,0.0,0.0,0.0,0.0,0.0,0.0,0.0,0.0,0.0,0.0,0.0,0.0,-4.1238,-4.1847,-4.2471,-4.297,-4.302,-4.3202,-4.3687,-4.3734,-4.4144,-4.5041,-4.5632,-4.6323,-4.7154,-4.7726,-4.8026,-4.797,-4.8008,-4.799,-4.7933,-4.7933,-4.8012,-4.8148,-4.8148,-4.8189,-4.8248,-4.8267,-4.8267,-4.8267,-4.8267,-4.8267,-4.8155,-4.6919,-4.6427,-4.6305,-4.5168,-4.471,-4.46,-4.3847,-4.3535,-4.3498,0.0,0.0,0.0,0.0,0.0,0.0,0.0,0.0,0.0,0.0,-3.0606,-2.8966,-2.6771,-2.5579,-2.4573,-2.3574,-2.2853,-2.2467,-2.2467,0.0,0.0,0.0,0.0,0.0,-1.9997,-2.0067,-2.0112,-1.996,-2.0953,-2.1791,-2.2391,-2.312,-2.3963,-2.4872,-2.5694,-2.6554,-2.7412,-2.841,-2.9679,-3.1167,-3.2982,-3.4302,-3.5177,0.0,0.0,0.0,0.0,0.0,0.0,0.0,0.0,0.0,0.0,0.0,0.0,0.0,0.0,0.0,0.0,0.0,0.0,0.0,0.0,0.0,0.0,0.0,0.0,0.0,0.0,0.0,0.0,0.0,0.0,0.0,-4.2455,-4.2625,-4.2066,-4.2168,-4.2543,-4.3202,-4.3297,-4.3571,-4.4278,-4.4647,-4.4957,-4.5233,-4.6242,-4.6941,-4.7183,-4.8247,-4.8458,-4.7595,-4.7981,-4.7779,-4.6842,-4.6842,-4.6864,-4.6887,-4.7031,-4.7115,-4.7142,-4.7248,-4.727,-4.727,-4.727,-4.727,-4.727,-4.6922,-4.6748,-4.6649,-4.5504,-4.4851,-4.4571,-4.4695,-4.4145,-4.3384,0.0,0.0,0.0,0.0,0.0,0.0,0.0,0.0,0.0,0.0,-3.0291,-2.8664,-2.6659,-2.5284,-2.4102,-2.3183,-2.2246,-2.1553,-2.1132,0.0,0.0,0.0,0.0,-1.9193,-1.8457,-1.8457,-1.8457,-1.8457,-1.9055,-1.9588,-2.0107,-2.1248,-2.2233,-2.3177,-2.419,-2.5305,-2.6442,-2.7244,-2.8263,-2.938,-3.1044,-3.2563,-3.3837,-3.3699,-3.4437,-3.5518,-3.5017,-3.552,-3.6461,-3.6369,0.0,0.0,0.0,0.0,0.0,0.0,0.0,0.0,0.0,0.0,0.0,0.0,0.0,0.0,0.0,0.0,0.0,0.0,0.0,0.0,0.0,0.0,0.0,0.0,-4.3132,-4.3487,-4.369,-4.3453,-4.3538,-4.4299,-4.4367,-4.4671,-4.5432,-4.5761,-4.5922,-4.5922,-4.6817,-4.7361,-4.7361,-4.8315,-4.8544,-4.7842,-4.7829,-4.7494,-4.6733,-4.6416,-4.6305,-4.6353,-4.6478,-4.6548,-4.6578,-4.6753,-4.6817,-4.684,-4.6886,-4.6908,-4.6886,-4.6678,-4.6625,0.0,0.0,0.0,0.0,0.0,-4.4438,-4.3815,0.0,0.0,0.0,0.0,0.0,0.0,0.0,0.0,0.0,0.0,0.0,-2.8624,-2.6976,-2.5495,-2.4231,-2.3183,-2.2334,-2.1445,0.0,0.0,0.0,-1.8442,-1.8303,-1.8072,-1.7662,-1.7669,-1.7669,-1.7669,-1.7801,-1.7848,-1.7848,-1.9101,-2.0169,-2.106,-2.2303,-2.3846,-2.5526,-2.6359,-2.7203,-2.8127,-2.9341,-3.0796,-3.2326,-3.2967,-3.3388,-3.3602,-3.3422,-3.3817,-3.4413,-3.4245,0.0,0.0,0.0,0.0,0.0,0.0,0.0,0.0,0.0,0.0,0.0,0.0,0.0,0.0,0.0,0.0,0.0,0.0,0.0,0.0,0.0,0.0,0.0,0.0,-4.3435,-4.3968,-4.5503,-4.5161,-4.502,-4.5754,-4.5821,-4.6075,-4.6735,-4.6786,-4.6786,-4.6786,-4.733,-4.7629,-4.7629,-4.8247,0.0,0.0,0.0,-4.7262,-4.7036,-4.6372,-4.608,-4.6116,-4.6116,-4.6172,-4.6233,-4.6454,-4.6543,-4.6543,-4.6678,-4.6724,-4.6701,-4.6266,-4.6112,-4.6067,-4.5776,-4.5698,-4.5655,-4.4889,-4.4565,-4.4476,0.0,0.0,0.0,0.0,0.0,0.0,0.0,0.0,0.0,-3.2603,-3.0976,-2.9151,-2.7046,-2.6069,-2.4893,-2.3226,-2.2931,-2.2448,0.0,0.0,-1.9513,-1.8442,-1.7615,-1.6702,-1.5683,-1.5642,-1.5642,-1.5642,-1.6412,-1.6774,-1.6814,-1.7894,-1.891,-1.9869,-2.1043,-2.2196,-2.3424,-2.5221,-2.64,-2.7151,-2.8143,-2.973,-3.1439,-3.1455,-3.2245,-3.3213,-3.2577,-3.2826,-3.3457,-3.3422,-3.3905,-3.4528,-3.4528,-3.4986,0.0,0.0,0.0,0.0,0.0,0.0,0.0,0.0,0.0,0.0,0.0,0.0,0.0,0.0,0.0,0.0,0.0,0.0,0.0,-4.332,-4.3563,-4.4061,-4.5493,-4.5602,-4.5751,-4.6507,-4.6583,-4.6633,-4.6786,-4.6786,-4.6786,-4.6786,-4.7433,-4.7831,-4.7831,-4.8959,-4.9126,-4.8038,-4.8322,-4.7696,-4.601,-4.5857,-4.5493,-4.4951,-4.5042,0.0,-4.5133,-4.5354,-4.5503,-4.5503,-4.5632,-4.5701,-4.5675,-4.5589,-4.5537,-4.5546,-4.5493,-4.5711,-4.6038,-4.5428,-4.4842,-4.4329,0.0,0.0,0.0,0.0,0.0,0.0,0.0,0.0,0.0,0.0,-3.214,-3.0215,-2.8682,-2.7186,-2.5808,-2.4542,-2.3153,0.0,0.0,-2.0076,-1.891,-1.7515,-1.6962,-1.6089,-1.4736,-1.4688,-1.4688,-1.4688,-1.5146,-1.5419,-1.5419,-1.6586,-1.7375,-1.7933,-1.9617,-2.0962,-2.2073,-2.3567,-2.5041,-2.6359,-2.7162,-2.8386,-2.9756,-3.0305,-3.0972,-3.1586,-3.1553,-3.2015,-3.2648,-3.2648,-3.3143,-3.3768,-3.3768,-3.4036,-3.4423,0.0,0.0,0.0,0.0,0.0,0.0,0.0,0.0,0.0,0.0,0.0,0.0,0.0,0.0,-3.9858,-4.1435,0.0,-4.2446,-4.3864,-4.4107,-4.448,-4.5538,-4.6008,-4.6514,-4.7254,-4.7361,-4.7496,-4.7868,-4.7902,-4.7902,-4.7902,-4.824,-4.846,-4.846,-4.9086,-4.9133,-4.8477,-4.8371,-4.7668,-4.6261,-4.5889,-4.5331,-4.4615,-4.4682,-4.4709,-4.4709,-4.4913,-4.5032,-4.5096,-4.5167,-4.5291,-4.5397,-4.5397,-4.5397,-4.5397,-4.5397,-4.5563,-4.5752,-4.5502,-4.5156,-4.4854,0.0,0.0,0.0,0.0,0.0,0.0,0.0,0.0,0.0,0.0,-3.348,-3.1648,-3.053,-2.867,-2.7105,0.0,0.0,0.0,0.0,-1.9741,-1.8503,-1.7142,-1.6727,-1.5886,-1.4627,-1.4388,-1.4298,-1.4298,-1.4298,-1.4298,-1.4346,-1.5371,-1.5927,-1.6203,-1.8218,-1.9807,-2.098,-2.2356,-2.3986,-2.5621,-2.6535,-2.7336,-2.8139,-2.9223,-2.9806,-3.0075,-3.0621,-3.1283,-3.1869,-3.1869,-3.2376,-3.3003,-3.3003,-3.3073,-3.3353,-3.4075,-3.4312,0.0,0.0,0.0,0.0,0.0,0.0,0.0,0.0,-3.7793,-3.8023,-3.8873,-3.9219,-3.9952,-4.1883,-4.2445,-4.299,-4.4202,-4.4415,-4.4707,-4.5584,-4.6222,-4.6895,-4.7799,-4.8031,-4.8359,-4.8951,-4.9001,-4.9001,-4.9001,-4.9001,-4.9001,-4.9001,-4.9001,-4.9001,-4.9001,-4.8443,-4.7699,-4.6802,-4.621,-4.5466,-4.4615,-4.4615,-4.4615,-4.4598,-4.4737,-4.4858,-4.4951,-4.5005,-4.5167,-4.5371,-4.5397,-4.5397,-4.5397,-4.5397,-4.5397,-4.5397,-4.5397,-4.5397,-4.5397,0.0,0.0,0.0,0.0,0.0,0.0,0.0,0.0,0.0,0.0,0.0,0.0,0.0,0.0,0.0,0.0,0.0,0.0,-2.278,-2.1141,-1.984,-1.9201,-1.7429,-1.6217,-1.5656,-1.4765,-1.4298,-1.4298,-1.4298,-1.4298,-1.4298,-1.4436,-1.4997,-1.5886,-1.7282,-1.858,-1.9877,-2.2717,-2.4221,-2.4787,-2.6498,-2.7219,-2.7383,-2.8139,-2.9067,-2.9999,-3.0075,-3.0545,-3.1123,-3.1123,-3.1603,-3.2218,-3.2218,-3.2684,-3.3353,-3.4075,-3.4312,-3.4612,-3.6026,-3.6821,-3.7464,-3.8123,-3.8287,-3.8437,0.0,-3.92,-3.9379,-4.0074,-4.0516,-4.1034,-4.1873,-4.2354,-4.2839,-4.3598,-4.3691,-4.418,-4.5512,-4.575,-4.6336,-4.7736,-4.8459,-4.8917,-4.9001,-4.9001,-4.9001,-4.9001,-4.9001,-4.9001,-4.9001,-4.9001,-4.9001,-4.9001,-4.8934,-4.8206,-4.6802,-4.6718,-4.5974,-4.4615,-4.4615,-4.4615,-4.4598,-4.4737,-4.4803,-4.4831,-4.5086,-4.5177,-4.523,-4.5371,-4.5397,-4.5397,-4.5397,-4.5397,-4.5397,-4.5397,-4.5397,-4.5397,0.0,0.0,0.0,0.0,0.0,0.0,0.0,0.0,0.0,0.0,0.0,0.0,0.0,0.0,0.0,0.0,0.0,0.0,-2.3963,-2.3173,-2.2047,-2.0558,-1.9592,-1.8356,-1.6955,-1.6358,-1.5751,-1.5188,-1.5188,-1.486,-1.4298,-1.4298,-1.4902,-1.6069,-1.7188,-1.874,-2.0603,-2.2488,-2.4039,-2.5326,-2.6091,-2.6704,-2.7272,-2.7938,-2.8712,-2.9523,-2.9883,-3.0432,0.0,0.0,-3.1185,-3.1468,-3.1468,-3.1676,-3.2064,-3.2812,-3.3593,-3.4749,-3.6976,-3.7778,-3.8138,-3.8811,-3.899,-3.917,-3.9843,-3.9993,-4.0246,-4.1128,-4.1464,-4.1845,-4.2775,-4.3045,-4.3387,-4.4086,-4.4194,-4.4399,-4.4999,-4.5421,-4.5933,-4.6553,-4.7288,-4.8048,-4.894,-4.9001,-4.9187,-4.961,-4.9644,-4.983,-5.027,-5.0287,-5.0287,-5.0287,-4.9864,-4.9137,-4.8088,-4.7225,-4.6278,-4.5229,-4.4818,-4.4615,-4.4615,-4.4654,-4.4682,-4.4709,-4.4968,-4.5086,-4.5086,-4.522,-4.5344,-4.5397,-4.5397,-4.5397,-4.5397,-4.5397,-4.5397,-4.5397,0.0,0.0,0.0,0.0,0.0,0.0,0.0,0.0,0.0,0.0,0.0,0.0,0.0,0.0,0.0,0.0,0.0,-2.6502,-2.52,-2.4893,-2.3922,-2.2089,-2.1328,-2.0172,-1.851,-1.7786,-1.7016,-1.6217,-1.6217,-1.5886,-1.5229,-1.5229,-1.5744,-1.6767,-1.8003,-1.9538,-2.1318,-2.2829,-2.4489,-2.611,-2.637,-2.6969,-2.7777,-2.8247,-2.8819,-2.9406,-2.9832,-3.0432,0.0,0.0,-3.0986,-3.0986,-3.0986,-3.0986,-3.12,-3.2085,-3.3449,-3.5172,-3.7458,-3.8192,-3.8531,-3.9218,-3.9559,-3.9813,-4.0292,-4.0583,-4.1047,-4.1987,-4.2272,-4.2657,-4.3613,-4.3848,-4.404,-4.4533,-4.461,-4.461,-4.461,-4.5067,-4.5494,-4.566,-4.6535,-4.7616,-4.8864,-4.899,-4.931,-5.0033,-5.0293,-5.0541,-5.0896,-5.0913,-5.0811,-5.0608,-5.0084,-4.9441,-4.8714,-4.7428,-4.643,-4.5703,-4.4942,-4.4615,-4.4615,-4.4615,-4.4615,-4.4598,-4.4831,-4.4923,-4.4968,-4.5086,-4.522,-4.5327,-4.5327,-4.5371,-4.5397,-4.5397,-4.5397,-4.5397,0.0,0.0,0.0,0.0,0.0,0.0,0.0,0.0,0.0,0.0,0.0,0.0,0.0,0.0,0.0,-3.1093,-2.8971,-2.7418,-2.6771,-2.59,-2.4967,-2.4039,-2.2186,-2.0971,-2.0442,-1.8602,-1.7569,-1.725,-1.725,-1.7382,-1.7608,-1.7608,-1.7701,-1.8033,-1.9954,-2.0935,-2.1407,-2.4202,-2.5944,-2.6853,-2.7742,-2.8474,-2.9042,-2.9042,-2.9445,-2.996,-2.9999,0.0,0.0,-3.0986,-3.0986,-3.0986,-3.0986,-3.0986,-3.1279,-3.2597,-3.4351,-3.6038,-3.6989,-3.7717,-3.8397,-3.9192,-3.9903,-4.0367,-4.0397,-4.1062,-4.1859,-4.253,-4.2993,-4.3456,-4.4167,-4.4442,-4.4594,-4.461,-4.461,-4.461,-4.461,-4.461,-4.4896,-4.5624,-4.6988,-4.8181,-4.8928,-4.8995,-4.9293,-4.9954,-5.0726,-5.0879,-5.0152,-5.0118,-4.9796,-4.9086,-4.9052,-4.8697,-4.7922,-4.7175,-4.643,-4.5703,-4.4942,-4.4615,-4.4615,-4.4615,-4.4615,-4.4598,-4.4765,-4.4803,-4.4803,-4.4951,-4.5086,-4.522,-4.522,-4.5274,-4.5397,-4.5397,-4.5397,-4.5397,0.0,0.0,0.0,0.0,0.0,0.0,0.0,0.0,0.0,0.0,0.0,0.0,0.0,0.0,0.0,0.0,-3.1222,-3.0277,-2.9139,-2.8397,-2.7371,-2.5933,-2.4713,-2.3418,-2.1994,-2.1194,-2.0124,-1.8742,-1.8742,-1.8457,-1.7894,-1.7894,-1.8694,-2.0172,-2.0792,-2.229,-2.4352,-2.6044,-2.7256,-2.8164,-2.9201,-2.9575,-2.9549,-2.9961,-3.005,-3.0075,0.0,0.0,0.0,-3.0986,-3.0986,-3.0986,-3.0986,-3.0986,-3.1345,-3.3106,-3.4328,-3.5543,-3.7365,-3.8028,-3.8389,-3.9192,-3.9903,-4.0516,-4.095,-4.1753,-4.2583,-4.3401,-4.3769,-4.4083,-4.4427,-4.4534,-4.461,-4.461,-4.461,-4.461,-4.461,-4.461,-4.4685,-4.4933,-4.5809,-4.6652,-4.7334,-4.9263,-5.0758,-5.148,-5.1308,-5.1319,-5.1555,-5.1099,-5.0727,-5.049,-4.9982,-4.961,-4.9357,-4.8139,-4.7158,-4.6413,-4.5207,-4.4615,-4.4615,-4.4615,-4.4615,-4.4598,-4.4654,-4.4737,-4.4803,-4.4858,-4.4968,-4.5059,-4.5059,-4.514,-4.5274,-4.5274,-4.5327,-4.5397,0.0,0.0,0.0,0.0,0.0,0.0,0.0,0.0,0.0,0.0,0.0,0.0,0.0,0.0,0.0,0.0,0.0,-3.251,-3.1353,0.0,-2.941,-2.806,-2.6889,-2.5566,-2.4074,-2.3611,-2.261,-2.1025,-2.1025,-2.0747,-2.0189,-2.0189,-2.0989,-2.2406,-2.2945,-2.4364,-2.6449,-2.77,-2.8866,-2.9936,-3.0642,-3.0992,-3.1177,-3.1559,-3.1536,0.0,0.0,0.0,-3.1616,-3.1161,-3.0986,-3.0986,-3.0986,-3.1261,-3.1886,-3.3353,-3.4205,-3.5101,-3.7171,-3.7744,-3.8081,-3.9438,-4.0262,-4.092,-4.1617,-4.2483,-4.3317,-4.3897,-4.4166,-4.4358,-4.4572,-4.4549,-4.4511,-4.4587,-4.461,-4.461,-4.461,-4.461,-4.461,-4.461,-4.5664,-4.6547,-4.6983,-4.9782,-5.1681,-5.1877,-5.1698,-5.1691,-5.1911,-5.1217,-5.0693,-5.0439,-4.9949,-4.9712,-4.9712,-4.8528,-4.7411,-4.6397,-4.519,-4.4615,-4.4615,-4.4615,-4.4615,-4.4615,-4.4615,-4.4654,-4.4737,-4.4737,-4.4803,-4.494,-4.494,-4.5005,-4.5123,-4.5177,-4.5247,-4.5344,0.0,0.0,0.0,0.0,0.0,0.0,0.0,0.0,0.0,0.0,0.0,0.0,0.0,0.0,0.0,0.0,0.0,0.0,-3.338,0.0,0.0,-3.0341,-2.8763,-2.7463,-2.6558,-2.5721,-2.4819,-2.3912,-2.3912,-2.4051,-2.4243,-2.4243,-2.4425,-2.4776,-2.6295,-2.7174,-2.7705,-2.9215,-3.0743,-3.2087,-3.2123,-3.2778,-3.3739,-3.3739,0.0,0.0,0.0,0.0,-3.2755,-3.1468,-3.1075,-3.1026,-3.1063,-3.1848,-3.2855,-3.3417,-3.3979,-3.4744,-3.6385,-3.688,-3.7461,-3.9757,-4.0853,-4.1587,-4.2246,-4.3232,-4.3988,-4.3988,-4.4127,-4.4358,-4.4549,-4.4435,-4.4358,-4.4572,-4.461,-4.461,-4.461,-4.461,-4.461,-4.461,-4.6441,-4.7735,-4.7735,-5.0412,-5.1878,-5.1145,-5.1824,-5.1944,-5.1251,-5.0456,-4.9712,-4.9018,-4.9001,-4.9001,-4.9001,-4.824,-4.7158,-4.5754,-4.4987,-4.4615,-4.4615,-4.4615,-4.4615,-4.4615,-4.4615,-4.4615,-4.4615,-4.4615,-4.4682,-4.4776,-4.4776,-4.4886,-4.5005,-4.5123,-4.5177,-4.522,0.0,0.0,0.0,0.0,0.0,0.0,0.0,0.0,0.0,0.0,0.0,0.0,0.0,0.0,0.0,0.0,0.0,0.0,-3.522,0.0,0.0,0.0,0.0,0.0,0.0,0.0,0.0,-2.574,-2.574,-2.5895,-2.6203,-2.6203,-2.6775,-2.7806,-2.8626,-2.9414,-3.0264,-3.1807,-3.2693,-3.3129,0.0,-3.4163,-3.4163,0.0,0.0,0.0,0.0,-3.3602,-3.3374,-3.2362,-3.1822,-3.1652,-3.1944,-3.2646,-3.3391,-3.3548,-3.3979,-3.4634,-3.5696,-3.6425,-3.7307,-3.9019,-4.0431,-4.1587,-4.2246,-4.3115,-4.3769,-4.3769,-4.3949,-4.4143,-4.4358,-4.432,-4.4358,-4.4572,-4.461,-4.461,-4.461,-4.461,-4.461,-4.461,-4.5951,-4.6928,-4.6928,-4.9085,-5.0669,-5.107,-5.1324,-5.142,-5.1202,-4.9982,-4.9187,-4.9018,-4.9001,-4.9001,-4.9001,-4.7716,-4.6887,-4.6498,-4.5196,-4.4615,-4.4615,-4.4615,-4.4615,-4.4615,-4.4615,-4.4615,-4.4615,-4.4615,-4.4626,-4.4654,-4.4654,-4.472,-4.4858,-4.4886,-4.5032,-4.5203,0.0,0.0,0.0,0.0,0.0,0.0,0.0,0.0,0.0,0.0,0.0,0.0,0.0,0.0,0.0,0.0,0.0,0.0,0.0,0.0,0.0,0.0,0.0,0.0,0.0,0.0,0.0,0.0,0.0,0.0,-2.9045,-2.9045,-2.9453,-3.025,-3.0808,-3.1622,-3.2681,-3.3806,0.0,0.0,0.0,0.0,0.0,0.0,0.0,0.0,0.0,-3.4901,-3.4259,-3.4033,-3.3545,-3.3108,-3.3319,-3.3912,-3.4565,-3.4848,-3.5144,-3.5629,-3.6738,-3.7357,-3.8106,-3.9917,-4.1032,-4.1904,-4.279,-4.3404,-4.3832,-4.3832,-4.3832,-4.3949,-4.4243,-4.4243,-4.4243,-4.4435,-4.4549,-4.461,-4.461,-4.461,-4.461,-4.461,-4.5694,-4.6524,-4.6588,-4.8497,-4.9955,-5.0538,-5.0655,-5.0825,-5.1185,-4.9813,-4.9001,-4.9001,-4.9001,-4.9001,-4.9001,-4.753,-4.6786,-4.6769,-4.5309,-4.4615,-4.4615,-4.4615,-4.4615,-4.4615,-4.4615,-4.4615,-4.4615,-4.4615,-4.4615,-4.4615,-4.4615,-4.4654,-4.4737,-4.4776,-4.4913,-4.5032,0.0,0.0,0.0,0.0,0.0,0.0,0.0,0.0,0.0,0.0,0.0,0.0,0.0,0.0,0.0,0.0,0.0,0.0,0.0,0.0,0.0,0.0,0.0,0.0,0.0,-3.3198,0.0,0.0,0.0,0.0,0.0,0.0,0.0,0.0,0.0,0.0,0.0,0.0,0.0,0.0,0.0,0.0,0.0,0.0,0.0,0.0,-3.7889,-3.6817,-3.5746,-3.6112,-3.5614,-3.4832,-3.4992,-3.5437,-3.6039,-3.6574,-3.6727,-3.7,-3.8204,-3.8671,-3.9313,-4.1317,-4.197,-4.2417,-4.3482,-4.3871,-4.3988,-4.3949,-4.3832,-4.3832,-4.4205,-4.4127,-4.4104,-4.432,-4.4511,-4.4572,-4.4572,-4.4572,-4.4587,-4.4549,-4.5577,-4.6364,-4.6524,-4.8242,-4.9479,-4.9813,-4.9726,-5.0105,-5.1006,-4.9639,-4.8909,-4.9001,-4.9001,-4.9001,-4.9001,-4.7631,-4.6887,-4.6769,-4.5382,-4.4699,-4.4615,-4.4615,-4.4615,-4.4615,-4.4615,-4.4615,-4.4615,-4.4615,-4.4615,-4.4615,-4.4615,-4.4615,-4.4598,-4.4737,-4.4776,-4.4803,0.0,0.0,0.0,0.0,0.0,0.0,0.0,0.0,0.0,0.0,-4.2653,0.0,0.0,0.0,0.0,0.0,0.0,0.0,0.0,0.0,0.0,0.0,0.0,0.0,-3.5314,-3.5297,-3.4913,-3.4118,-3.4118,0.0,0.0,0.0,0.0,0.0,0.0,0.0,0.0,0.0,0.0,0.0,0.0,0.0,0.0,0.0,0.0,0.0,-3.9194,-3.8968,-3.8654,-3.8181,-3.6891,-3.559,-3.6489,-3.6951,-3.7215,-3.7291,-3.7319,-3.741,-3.7625,-3.8583,-3.9748,-4.0683,-4.1858,-4.3016,-4.3767,-4.3988,-4.3949,-4.3808,-4.3871,-4.3988,-4.4026,-4.4166,-4.432,-4.4511,-4.4587,-4.4549,-4.4396,-4.4511,-4.4473,-4.4127,-4.5395,-4.6244,-4.6138,-4.7574,-4.8821,-4.9503,-4.8656,-4.8699,-5.0139,-4.8862,-4.837,-4.897,-4.9001,-4.9001,-4.9001,-4.8156,-4.7411,-4.6786,-4.5923,-4.5179,-4.4615,-4.4615,-4.4615,-4.4615,-4.4615,-4.4615,-4.4615,-4.4615,-4.4615,-4.4615,-4.4615,-4.4615,-4.4598,-4.4643,-4.4709,-4.4803,0.0,0.0,0.0,0.0,0.0,0.0,0.0,0.0,0.0,-4.3545,-4.3178,-4.2863,0.0,0.0,0.0,0.0,0.0,0.0,0.0,0.0,0.0,0.0,0.0,0.0,0.0,-3.7097,-3.6946,-3.6627,0.0,-3.6941,-3.7556,-3.7774,-3.7994,-3.8275,-3.8788,-3.9224,-3.9573,0.0,0.0,-4.0504,-4.0273,-4.0126,0.0,0.0,0.0,0.0,0.0,-3.9865,-3.9456,-3.9123,-3.8413,-3.7654,-3.7875,-3.8243,-3.8627,-3.8627,-3.8627,-3.8789,-3.9461,-4.0134,-4.0924,-4.1957,-4.2773,-4.3456,-4.4014,-4.4166,-4.4143,-4.4026,-4.4026,-4.4026,-4.4143,-4.4243,-4.432,-4.4435,-4.4534,-4.4572,-4.4473,-4.4549,-4.4511,-4.4205,-4.5315,-4.6057,-4.6017,-4.73,-4.8355,-4.8846,-4.7791,-4.7789,-4.9344,-4.8091,-4.7655,-4.8401,-4.845,-4.8608,-4.9001,-4.8291,-4.753,-4.6786,-4.6058,-4.5314,-4.4615,-4.4615,-4.4615,-4.4615,-4.4615,-4.4615,-4.4615,-4.4615,-4.4615,-4.4615,-4.4615,-4.4615,-4.4615,-4.4615,-4.4626,-4.4709,0.0,0.0,0.0,0.0,0.0,0.0,0.0,-4.4443,-4.4102,-4.3946,-4.3697,-4.348,-4.3392,-4.2883,-4.2575,0.0,0.0,0.0,0.0,0.0,0.0,0.0,0.0,0.0,0.0,0.0,0.0,-3.9003,-3.9003,0.0,0.0,0.0,0.0,0.0,-4.0315,-4.0793,-4.135,-4.135,-4.1679,0.0,0.0,-4.1697,0.0,0.0,0.0,0.0,0.0,-4.0954,-4.0369,-4.0041,-3.991,-3.981,-3.9215,-3.942,-3.9859,-3.9859,-3.9859,-4.0117,-4.1295,-4.1694,-4.2094,-4.3316,-4.3716,-4.3925,-4.4274,-4.4358,-4.4358,-4.432,-4.4205,-4.4166,-4.4281,-4.4281,-4.4281,-4.4281,-4.4396,-4.4473,-4.4473,-4.4473,-4.4396,-4.4205,-4.5156,-4.5839,-4.5839,-4.7133,-4.8049,-4.8202,-4.7196,-4.7083,-4.8156,-4.7306,-4.7153,-4.7885,-4.7885,-4.8257,-4.9001,-4.8291,-4.753,-4.6786,-4.6058,-4.5314,-4.4615,-4.4615,-4.4615,-4.4615,-4.4615,-4.4615,-4.4615,-4.4615,-4.4615,-4.4615,-4.4615,-4.4615,-4.4615,-4.4615,-4.4615,-4.4615,0.0,0.0,0.0,0.0,0.0,0.0,0.0,-4.4751,-4.4637,-4.4369,-4.4121,-4.3942,-4.3942,-4.3443,-4.3123,0.0,0.0,0.0,0.0,0.0,0.0,0.0,0.0,0.0,0.0,0.0,0.0,-4.0672,-4.0672,0.0,0.0,0.0,0.0,0.0,0.0,-4.2083,-4.2208,-4.2208,0.0,0.0,0.0,0.0,0.0,0.0,0.0,0.0,0.0,-4.3485,-4.3182,-4.1789,-4.1332,-4.1199,-4.0538,-4.0374,-4.042,-4.042,-4.042,-4.0589,-4.1401,-4.2048,-4.2679,-4.3424,-4.4071,-4.451,-4.4556,-4.4572,-4.4511,-4.4358,-4.4435,-4.4496,-4.432,-4.4281,-4.4281,-4.4281,-4.4166,-4.4065,-4.4065,-4.4065,-4.3988,-4.3754,-4.4861,-4.5578,-4.5372,-4.6966,-4.8007,-4.8007,-4.713,-4.6423,-4.6022,-4.6509,-4.7153,-4.7885,-4.7885,-4.8257,-4.9001,-4.8291,-4.753,-4.6786,-4.6058,-4.5314,-4.4615,-4.4615,-4.4615,-4.4615,-4.4615,-4.4615,-4.4615,-4.4615,-4.4615,-4.4615,-4.4615,-4.4615,-4.4615,-4.4615,-4.4615,-4.4615,0.0,0.0,0.0,0.0,0.0,0.0,0.0,-4.4996,-4.4812,-4.4714,-4.4443,-4.425,-4.425,-4.4053,-4.3775,0.0,0.0,0.0,0.0,0.0,0.0,0.0,0.0,0.0,0.0,0.0,-4.1468,-4.1572,-4.1572,0.0,0.0,0.0,0.0,0.0,0.0,-4.3032,-4.3014,-4.3069,0.0,0.0,0.0,0.0,0.0,0.0,0.0,0.0,0.0,0.0,-4.3647,-4.263,-4.1933,-4.1459,-4.1176,-4.0836,-4.0489,-4.0489,-4.0489,-4.0735,-4.1894,-4.2402,-4.2863,-4.3947,-4.4409,-4.461,-4.461,-4.461,-4.4587,-4.4511,-4.4534,-4.4587,-4.4511,-4.4473,-4.4473,-4.4473,-4.432,-4.4166,-4.4166,-4.4065,-4.4046,-4.4242,-4.5046,-4.5687,-4.5873,-4.7166,-4.7756,-4.7181,-4.6447,-4.5727,-4.5092,-4.5311,-4.5789,-4.6553,-4.7001,-4.7589,-4.8338,-4.8043,-4.753,-4.6786,-4.6058,-4.5314,-4.4615,-4.4615,-4.4615,-4.4615,-4.4615,-4.4615,-4.4615,-4.4615,-4.4615,-4.4615,-4.4615,-4.4615,-4.4615,-4.4615,-4.4615,-4.4542,0.0,0.0,0.0,0.0,0.0,0.0,-4.6177,-4.5955,-4.5696,-4.5438,-4.5117,-4.4802,-4.4557,-4.4438,-4.4217,-4.3747,0.0,0.0,0.0,0.0,0.0,0.0,0.0,0.0,0.0,0.0,-4.2346,-4.2444,-4.2444,-4.2501,0.0,0.0,-4.3087,-4.3087,0.0,0.0,0.0,0.0,0.0,0.0,0.0,0.0,0.0,0.0,0.0,0.0,0.0,0.0,0.0,0.0,0.0,-4.1771,-4.1558,-4.1057,-4.0489,-4.0489,-4.0489,-4.0797,-4.2232,-4.2602,-4.2925,-4.4249,-4.461,-4.461,-4.461,-4.461,-4.461,-4.461,-4.461,-4.461,-4.461,-4.4534,-4.4496,0.0,-4.4243,-4.4127,-4.4127,-4.3934,-4.392,-4.4293,-4.5011,-4.5635,-4.5963,-4.6973,-4.7315,-4.6576,-4.5894,-4.5256,-4.4618,-4.461,-4.4933,-4.566,-4.6182,-4.6846,-4.7589,-4.715,-4.6684,-4.6179,-4.5391,-4.4786,-4.4265,-4.4514,-4.4615,-4.4615,-4.4615,-4.4615,-4.4615,-4.4615,-4.4615,-4.457,-4.4367,-4.4265,-4.4236,-4.4047,-4.396,-4.3885,0.0,0.0,0.0,0.0,0.0,0.0,0.0,-4.7909,-4.7561,-4.6689,-4.6294,-4.576,-4.4883,-4.4559,-4.4402,-4.4383,0.0,0.0,0.0,0.0,0.0,0.0,0.0,0.0,0.0,0.0,-4.3479,-4.3479,-4.3479,-4.3497,-4.3497,-4.3479,-4.3479,-4.3479,0.0,0.0,0.0,0.0,0.0,0.0,0.0,0.0,0.0,0.0,0.0,0.0,0.0,0.0,0.0,0.0,0.0,0.0,0.0,-4.1057,-4.0489,-4.0489,-4.0489,-4.0797,-4.2232,-4.2602,-4.2925,-4.4249,-4.461,-4.461,-4.461,-4.461,-4.461,-4.461,-4.461,-4.461,-4.461,-4.4435,-4.4243,-4.4026,-4.3847,-4.3729,-4.3729,-4.3463,-4.3423,-4.369,-4.4633,-4.5304,-4.5304,-4.6097,-4.655,-4.633,-4.5657,-4.5101,-4.4618,-4.461,-4.4933,-4.566,-4.5697,-4.6092,-4.6811,-4.5436,-4.4723,-4.4723,-4.3904,-4.3512,-4.3542,-4.4281,-4.4615,-4.4615,-4.4615,-4.4615,0.0,-4.4615,-4.4615,-4.4542,-4.381,-4.3512,-4.3423,-4.2769,-4.252,-4.252,0.0,0.0,0.0,0.0,0.0,0.0,0.0,-4.8058,-4.7942,-4.7654,-4.7495,-4.7286,-4.7019,-4.6369,-4.5962,-4.5962,0.0,0.0,0.0,0.0,0.0,0.0,0.0,0.0,0.0,0.0,-4.3515,-4.3515,-4.3515,-4.3515,-4.3515,-4.3515,-4.3515,-4.3496,-4.3566,-4.386,0.0,0.0,0.0,0.0,0.0,0.0,-4.7226,0.0,0.0,0.0,0.0,0.0,0.0,0.0,0.0,0.0,0.0,0.0,0.0,-4.1249,-4.1263,-4.1463,-4.2355,-4.2925,-4.3516,-4.4394,-4.461,-4.461,-4.461,-4.461,-4.461,-4.461,-4.461,-4.4549,-4.4435,-4.4358,-4.4243,-4.4026,-4.3847,-4.369,-4.369,-4.3463,-4.3494,-4.4038,-4.5226,-4.6214,-4.6819,-4.6301,-4.5969,-4.6113,-4.5166,-4.4511,-4.422,-4.4473,-4.4723,-4.4933,-4.5458,-4.5805,-4.6056,-4.5151,-4.4707,-4.4691,-4.3438,-4.2831,-4.2814,-4.3061,-4.3152,-4.3152,-4.3152,-4.3152,-4.3152,-4.3152,-4.3152,-4.3152,-4.2892,-4.2831,-4.28,-4.2583,-4.252,-4.2426,0.0,0.0,0.0,0.0,0.0,0.0,0.0,-4.9058,-4.8932,-4.8587,-4.8489,-4.8344,-4.8037,-4.7509,-4.7183,-4.7183,0.0,0.0,0.0,0.0,0.0,0.0,0.0,0.0,0.0,-4.3515,-4.3515,-4.3515,-4.3791,-4.3956,-4.3956,-4.425,-4.4397,-4.4414,-4.4449,-4.4707,0.0,0.0,0.0,0.0,0.0,0.0,-4.7836,0.0,0.0,0.0,0.0,0.0,0.0,0.0,0.0,0.0,0.0,0.0,0.0,0.0,-4.2153,-4.2432,-4.2848,-4.3264,-4.3762,-4.444,-4.461,-4.461,-4.461,-4.461,-4.461,-4.461,-4.461,-4.4572,-4.4435,-4.4358,-4.4243,-4.4026,-4.3847,-4.3651,-4.3557,-4.3423,-4.3544,-4.4242,-4.5065,-4.5855,-4.6641,-4.5751,-4.5202,-4.546,-4.458,-4.4065,-4.3988,-4.4243,-4.4396,-4.4458,-4.4993,-4.5274,-4.5274,-4.4357,-4.3902,-4.3886,-4.2701,-4.2109,-4.2141,-4.2379,-4.252,-4.252,-4.252,-4.252,0.0,-4.252,-4.252,-4.2489,-4.2205,-4.2109,-4.2078,-4.1836,-4.1739,-4.1673,0.0,0.0,0.0,0.0,0.0,0.0,0.0,0.0,0.0,0.0,-4.9344,-4.9025,-4.8277,-4.8143,-4.8105,0.0,0.0,0.0,0.0,0.0,0.0,0.0,0.0,0.0,-4.3548,-4.3587,-4.3606,-4.3606,-4.4397,-4.48,-4.4819,-4.5553,-4.5902,-4.5902,-4.5902,-4.592,0.0,0.0,0.0,0.0,0.0,0.0,0.0,0.0,0.0,0.0,0.0,0.0,0.0,0.0,0.0,0.0,0.0,0.0,0.0,0.0,0.0,0.0,0.0,-4.3685,-4.3824,-4.4456,-4.461,-4.461,-4.461,-4.461,0.0,-4.461,-4.4587,-4.4572,-4.4572,-4.4396,-4.4205,-4.3972,-4.3793,-4.3596,-4.3329,-4.329,-4.3544,-4.4242,-4.4272,-4.4496,-4.5155,-4.4631,-4.4323,-4.4509,-4.4022,-4.3754,-4.3949,-4.3988,-4.4089,-4.4243,-4.4473,-4.4587,-4.461,-4.3264,-4.2602,-4.2586,-4.1797,-4.1426,-4.1459,-4.2078,-4.2363,-4.2363,-4.2363,-4.2363,-4.2363,-4.2363,-4.2363,-4.23,-4.1673,-4.1426,-4.136,-4.0715,-4.0489,-4.0489,0.0,0.0,0.0,0.0,0.0,0.0,0.0,0.0,0.0,0.0,-5.0356,-5.0288,-5.0096,-4.9481,-4.9077,0.0,0.0,0.0,0.0,0.0,0.0,0.0,0.0,0.0,-4.3881,-4.4325,-4.4575,-4.4575,-4.5366,-4.5771,-4.5771,-4.5865,-4.5902,-4.5902,-4.5902,-4.625,0.0,0.0,0.0,0.0,0.0,0.0,0.0,0.0,0.0,0.0,-4.689,-4.6394,0.0,0.0,0.0,0.0,0.0,0.0,0.0,0.0,-4.3898,-4.3716,-4.424,0.0,-4.4409,-4.4579,-4.461,-4.461,0.0,-4.461,-4.461,-4.461,-4.4473,-4.432,-4.4166,-4.3988,-4.3754,-4.3503,-4.3409,-4.3384,-4.329,-4.329,-4.3544,-4.4242,-4.3828,-4.3783,-4.4481,-4.3943,-4.3554,-4.3594,-4.3687,-4.3636,-4.3448,-4.3817,-4.3949,-4.3832,-4.4166,-4.4435,-4.461,-4.3264,-4.2602,-4.2586,-4.131,-4.0749,-4.0749,-4.0904,-4.0956,-4.0956,-4.0956,-4.0956,-4.0956,-4.0956,-4.0956,-4.0956,-4.0817,-4.0749,-4.0715,-4.0558,-4.0489,-4.0489,0.0,0.0,0.0,0.0,0.0,0.0,0.0,0.0,0.0,0.0,0.0,0.0,0.0,0.0,0.0,0.0,0.0,0.0,0.0,0.0,0.0,0.0,0.0,-4.5552,-4.5429,-4.5621,-4.5706,-4.5619,-4.6318,-4.6617,-4.6562,-4.6856,-4.7003,-4.7003,-4.7003,-4.7462,0.0,0.0,0.0,0.0,-4.9462,0.0,0.0,0.0,0.0,0.0,-4.7608,-4.6909,0.0,-4.5839,-4.5627,-4.5544,0.0,0.0,0.0,0.0,-4.4641,-4.4148,-4.4517,-4.461,-4.461,-4.461,-4.461,-4.461,-4.461,-4.461,-4.461,-4.461,-4.4435,-4.4281,-4.4166,-4.3667,-4.3184,-4.3067,-4.268,-4.2432,-4.2432,-4.2432,-4.2566,-4.2925,-4.2656,-4.2581,-4.2925,-4.2925,-4.2895,-4.2895,-4.3298,-4.3463,-4.329,-4.3527,-4.3675,-4.369,-4.3988,-4.4243,-4.4473,-4.3227,-4.2602,-4.2586,-4.1151,-4.0489,-4.0489,-4.0489,-4.0489,-4.0489,-4.0489,-4.0489,-4.0489,-4.0489,-4.0489,-4.0489,-4.0489,-4.0489,-4.0489,-4.0489,-4.0489,-4.0489,0.0,0.0,0.0,0.0,0.0,0.0,0.0,0.0,0.0,0.0,0.0,0.0,0.0,0.0,0.0,0.0,0.0,0.0,0.0,0.0,0.0,0.0,0.0,-4.7414,-4.7167,-4.6989,-4.6841,-4.6706,-4.7234,-4.7445,-4.7333,-4.7994,-4.8306,-4.8324,-4.8434,-4.8912,0.0,-4.9739,-5.0178,-5.0802,-5.0802,0.0,0.0,0.0,0.0,0.0,0.0,0.0,0.0,-4.6539,-4.6426,-4.643,-4.7021,0.0,0.0,0.0,0.0,0.0,-4.461,-4.461,-4.461,-4.461,-4.461,-4.461,-4.461,-4.461,-4.461,-4.461,-4.4435,-4.4243,-4.4243,-4.3364,-4.2657,-4.2657,-4.1933,-4.1422,-4.1422,-4.1422,-4.1422,-4.1422,-4.1294,-4.1235,-4.1235,-4.1767,-4.2141,-4.2246,-4.2821,-4.3185,-4.329,-4.329,-4.3384,-4.3636,-4.3871,-4.4065,-4.4205,-4.3131,-4.2602,-4.2586,-4.1151,-4.0489,-4.0489,-4.0489,-4.0489,-4.0489,-4.0489,0.0,-4.0489,-4.0489,-4.0489,-4.0489,-4.0489,-4.0489,-4.0489,-4.0489,-4.0489,-4.0489,0.0,0.0,0.0,0.0,0.0,0.0,0.0,0.0,0.0,0.0,0.0,0.0,0.0,0.0,0.0,0.0,0.0,0.0,0.0,0.0,0.0,-5.0201,-4.8523,-4.7575,-4.7521,-4.7707,-4.776,-4.7684,-4.8173,-4.8348,-4.8291,-4.8307,-4.8306,-4.8343,-4.9058,-4.9482,-4.9647,-5.0325,-5.0692,-5.0802,-5.0802,0.0,0.0,0.0,0.0,0.0,0.0,0.0,0.0,-4.7767,-4.7406,-4.7403,-4.7996,0.0,0.0,0.0,0.0,0.0,-4.4746,-4.461,-4.461,-4.461,-4.461,-4.461,-4.461,-4.461,-4.461,-4.461,-4.432,-4.4065,-4.4065,-4.3156,-4.2449,-4.2449,-4.1856,-4.1422,-4.1422,-4.1422,-4.1422,-4.1422,-4.0891,-4.0546,-4.0546,-4.0651,-4.0935,-4.1527,-4.2186,-4.2746,-4.326,-4.329,-4.3329,-4.3384,-4.3778,-4.3949,-4.3808,-4.3019,-4.2602,-4.2586,-4.1151,-4.0489,-4.0489,-4.0489,-4.0489,-4.0489,0.0,-4.0489,-4.0489,-4.0489,-4.0489,-4.0489,-4.0489,-4.0489,-4.0489,-4.0489,-4.0489,-4.0489,0.0,0.0,0.0,0.0,0.0,0.0,0.0,0.0,0.0,0.0,0.0,0.0,0.0,0.0,0.0,0.0,0.0,0.0,0.0,0.0,0.0,-5.0712,-4.9611,-4.8988,-4.8988,-4.8975,-4.8833,-4.8544,-4.858,-4.8532,-4.8382,-4.8325,-4.8306,-4.8343,-4.9225,-4.9849,-5.0288,-5.1114,-5.1701,-5.2105,0.0,0.0,0.0,0.0,0.0,0.0,0.0,0.0,0.0,0.0,-4.8436,-4.8203,-4.8795,0.0,0.0,0.0,0.0,0.0,-4.4783,-4.461,-4.461,-4.461,-4.461,-4.461,-4.461,-4.461,-4.4572,-4.4473,-4.4205,-4.3843,-4.3363,-4.2513,-4.1632,-4.0891,-4.0516,-4.0322,-4.0322,-4.0322,-4.0322,-4.0322,-4.0053,-3.9873,-3.9873,-4.0187,-4.0666,-4.1324,-4.2036,-4.2641,-4.326,-4.329,-4.329,-4.329,-4.3675,-4.3808,-4.369,-4.2742,-4.2331,-4.2425,-4.1115,-4.0489,-4.0489,-4.0489,-4.0489,-4.0489,0.0,-4.0489,-4.0489,-4.0489,-4.0489,-4.0489,-4.0489,-4.0489,-4.0489,-4.0489,-4.0489,-4.0489,0.0,0.0,0.0,0.0,0.0,0.0,0.0,0.0,0.0,0.0,0.0,0.0,0.0,0.0,0.0,0.0,0.0,0.0,0.0,0.0,-5.0663,-5.0594,-5.0347,-5.0195,-5.0195,-4.9884,-4.9506,-4.9104,-4.8766,-4.8495,-4.8306,-4.8306,-4.8306,-4.8361,-4.9407,-5.0215,-5.0875,-5.1867,-5.2637,-5.3185,0.0,0.0,0.0,0.0,0.0,0.0,0.0,0.0,0.0,0.0,0.0,0.0,0.0,0.0,0.0,-4.7171,-4.6413,-4.5769,-4.4858,-4.461,-4.461,-4.461,-4.461,-4.461,-4.461,-4.4572,-4.4511,-4.432,-4.4089,-4.3674,-4.2854,-4.1866,-4.0771,-3.9604,-3.9388,-3.9388,-3.9388,-3.9388,-3.9388,-3.9388,-3.9388,-3.9388,-3.9388,-3.9873,-4.0442,-4.11,-4.1796,-4.2455,-4.3075,-4.32,-4.329,-4.329,-4.3557,-4.369,-4.3596,-4.2554,-4.211,-4.23,-4.1045,-4.047,-4.0489,-4.0489,-4.0489,-4.0489,-4.0489,-4.0489,-4.0489,-4.0489,-4.0489,-4.0489,-4.0489,-4.0489,-4.0489,-4.0489,-4.0489,-4.0489,0.0,0.0,0.0,0.0,0.0,0.0,0.0,0.0,0.0,0.0,0.0,0.0,0.0,0.0,0.0,0.0,0.0,0.0,0.0,0.0,-5.0554,-5.026,-5.0206,-5.0195,-5.0195,-4.9698,-4.9315,-4.9104,-4.8766,-4.8495,-4.8306,-4.8306,-4.8306,-4.8379,-4.9994,-5.0747,-5.0912,-5.2472,-5.3148,-5.3185,-5.3185,0.0,0.0,0.0,0.0,0.0,0.0,0.0,0.0,0.0,0.0,0.0,0.0,0.0,-4.9073,-4.7457,-4.6866,-4.6394,-4.5008,-4.461,-4.461,-4.461,-4.461,-4.461,-4.461,-4.4473,-4.432,-4.4281,-4.3988,-4.3518,-4.2831,-4.149,-4.0247,-3.9529,-3.9388,-3.9388,-3.9388,-3.9388,-3.9388,-3.9388,-3.9388,-3.9388,-3.9388,-3.9454,-3.9768,-4.0427,-4.107,-4.1767,-4.244,-4.3015,-4.329,-4.329,-4.3557,-4.3596,-4.3329,-4.2463,-4.211,-4.23,-4.0954,-4.0366,-4.0489,-4.0489,-4.0489,-4.0489,-4.0489,-4.0489,-4.0489,-4.0489,-4.0489,-4.0489,-4.0489,-4.0489,-4.0489,-4.0489,-4.0489,-4.0489,0.0,0.0,0.0,0.0,0.0,0.0,0.0,0.0,0.0,0.0,0.0,0.0,0.0,0.0,0.0,0.0,0.0,0.0,0.0,-5.0712,-5.0634,-5.0534,-5.0155,-4.9943,-4.9943,-4.9602,-4.9206,-4.8783,-4.855,-4.8382,-4.8306,-4.8306,-4.86,-4.915,-5.0288,-5.1077,-5.161,-5.2729,-5.3185,-5.3185,-5.3185,-5.3185,0.0,0.0,0.0,0.0,0.0,0.0,0.0,0.0,-5.0712,-4.9964,-4.9755,-4.9619,-4.9165,-4.7473,-4.69,-4.6464,-4.5008,-4.461,-4.461,-4.461,-4.461,-4.4572,-4.4435,-4.4358,-4.4243,-4.3988,-4.3808,-4.332,-4.2121,-4.0718,-3.9709,-3.9454,-3.9388,-3.9388,-3.9388,-3.9388,-3.9388,-3.9388,-3.9388,-3.9388,-3.9388,-3.9388,-3.9694,-4.0352,-4.101,-4.1707,-4.2366,-4.297,-4.329,-4.329,-4.3384,-4.3229,-4.2731,-4.1986,-4.1512,-4.131,-4.0507,-4.0207,-4.0366,-4.0366,-4.0436,-4.0489,-4.0489,-4.0489,-4.0489,-4.0489,-4.0489,-4.0489,-4.0489,-4.0489,-4.0489,-4.0489,-4.0489,-4.0489,0.0,0.0,0.0,0.0,0.0,0.0,0.0,0.0,0.0,0.0,0.0,0.0,0.0,0.0,0.0,0.0,0.0,0.0,-5.0712,-5.0712,-5.0663,-5.0554,-5.0081,-4.9762,-4.9684,-4.9362,-4.9008,-4.8605,-4.8401,-4.8306,-4.8306,-4.8306,-4.8765,-4.9647,-5.0435,-5.1242,-5.205,-5.2858,-5.3185,-5.3185,-5.3185,-5.3185,0.0,0.0,0.0,0.0,0.0,0.0,0.0,0.0,-5.0884,-4.9982,0.0,-4.9696,-4.9286,-4.7868,-4.7172,-4.6571,-4.5311,-4.4799,-4.461,-4.461,-4.4456,-4.4272,-4.4236,-4.422,-4.4089,-4.3769,-4.3305,-4.2655,-4.1587,-4.0307,-3.9388,-3.9388,-3.9388,-3.9388,-3.9388,-3.9388,-3.9388,-3.9388,-3.9388,-3.9388,-3.9388,-3.9388,-3.9604,-4.0053,-4.0696,-4.1392,-4.2051,-4.2671,-4.312,-4.329,-4.3135,-4.2821,-4.2396,-4.1542,-4.092,-4.0603,-4.0064,-3.996,-4.0207,-4.0207,-4.0277,-4.0331,-4.0331,-4.0366,-4.0436,-4.0436,-4.047,-4.0489,-4.0489,-4.0489,-4.0489,-4.0489,-4.0489,-4.0489,0.0,0.0,0.0,0.0,0.0,0.0,0.0,0.0,0.0,0.0,0.0,0.0,0.0,0.0,0.0,0.0,0.0,0.0,-5.0712,-5.0712,-5.0554,-5.0206,-4.993,-4.9665,-4.9396,-4.9012,-4.8732,-4.8605,-4.8401,-4.8306,-4.8306,-4.8306,-4.8765,-4.9647,-5.0435,-5.1242,-5.205,-5.2858,-5.3185,-5.3185,-5.3185,-5.3185,-5.3185,0.0,0.0,0.0,0.0,0.0,0.0,0.0,-5.0884,-5.0011,0.0,0.0,0.0,-4.8668,-4.7737,-4.6799,-4.5933,-4.5179,-4.461,-4.461,-4.4117,-4.3666,-4.3937,-4.3972,-4.3934,-4.3714,-4.2466,-4.1422,-4.1407,-4.0307,-3.9388,-3.9388,-3.9388,-3.9388,-3.9388,-3.9388,-3.9388,-3.9388,-3.9388,-3.9388,-3.9388,-3.9388,-3.9388,-3.9388,-4.0023,-4.0681,-4.1324,-4.2036,-4.2641,-4.3245,-4.2686,-4.2396,-4.2381,-4.1055,-4.0397,-4.0382,-3.9723,-3.9604,-4.0011,-4.0011,-4.0011,-4.0011,-4.0011,-4.0101,-4.0312,-4.0312,-4.0366,-4.0489,-4.0489,-4.0489,-4.0489,-4.0489,-4.0489,-4.0489,0.0,0.0,0.0,0.0,0.0,0.0,0.0,0.0,0.0,0.0,0.0,0.0,0.0,0.0,0.0,0.0,0.0,0.0,-5.0712,-5.0712,-5.0554,-5.0206,-4.993,-4.9618,-4.9265,-4.882,-4.8569,-4.8532,-4.8382,-4.8306,-4.8306,-4.8306,-4.8765,-4.9647,-5.0435,-5.1242,-5.205,-5.2858,-5.3185,-5.3185,-5.3185,-5.3185,-5.3185,0.0,0.0,0.0,0.0,0.0,0.0,0.0,0.0,0.0,-5.0138,0.0,0.0,-4.8668,-4.7737,-4.6799,-4.5933,-4.5179,-4.461,-4.461,-4.4117,-4.358,-4.3532,-4.3389,-4.3213,-4.2851,-4.2059,-4.1272,-4.0771,-3.9993,-3.9388,-3.9388,-3.9388,-3.9388,-3.9388,-3.9388,-3.9388,-3.9388,-3.9388,-3.9388,-3.9388,-3.9388,-3.9388,-3.9388,-4.0023,-4.0487,-4.0681,-4.1309,-4.1758,-4.1953,-4.1773,-4.1444,-4.0995,-4.0591,-4.0172,-3.9709,-3.9514,-3.9532,-3.9803,-3.9803,-3.9889,-4.0011,-4.0011,-4.0101,-4.0312,-4.0312,-4.0366,-4.0489,-4.0401,-4.0436,-4.0489,-4.0489,-4.0489,-4.0489,0.0,0.0,0.0,0.0,0.0,0.0,0.0,0.0,0.0,0.0,0.0,0.0,0.0,0.0,0.0,0.0,0.0,0.0,0.0,-5.0584,-5.0421,-5.0206,-4.9779,-4.9352,-4.892,-4.8624,-4.8476,-4.8419,-4.8343,-4.8306,-4.8306,-4.8306,-4.8765,-4.9629,-5.0105,-5.0949,-5.2013,-5.2527,-5.2913,-5.3185,-5.3185,-5.3185,-5.3185,0.0,0.0,0.0,0.0,0.0,0.0,0.0,0.0,0.0,-5.0178,-4.9935,-4.9696,-4.9087,-4.8062,-4.6986,-4.6381,-4.5442,-4.461,-4.461,-4.3879,-4.3036,-4.2517,-4.2446,-4.2402,-4.2059,-4.1444,-4.0876,-4.0472,-3.9858,-3.9301,-3.8973,-3.8922,-3.8797,-3.8472,-3.842,-3.842,-3.842,-3.842,-3.8546,-3.8885,-3.8922,-3.9083,-3.9388,-3.9783,-4.0127,-4.0382,-4.0771,-4.1115,-4.1407,-4.113,-4.0801,-4.0397,-4.0142,-3.9813,-3.9388,-3.9388,-3.9445,-3.9589,-3.9589,-3.9661,-3.9783,-3.9925,-4.0066,-4.0207,-4.0331,-4.0401,-4.0436,-4.0401,-4.0401,-4.0436,-4.0436,-4.0455,-4.0489,0.0,0.0,0.0,0.0,0.0,0.0,0.0,0.0,0.0,0.0,0.0,0.0,0.0,0.0,0.0,0.0,0.0,0.0,0.0,0.0,-5.0195,-5.0171,-4.9512,-4.8937,-4.8513,-4.8494,-4.8419,-4.8306,-4.8306,-4.8306,-4.8306,-4.8306,-4.8728,-4.95,-4.9555,-5.0455,-5.1885,-5.1958,-5.2454,-5.3185,-5.3185,-5.3185,-5.3185,-5.3185,0.0,0.0,0.0,0.0,0.0,0.0,0.0,0.0,-5.0235,-5.0022,-4.9964,-4.9755,-4.8572,-4.7256,-4.7071,-4.583,-4.461,-4.461,-4.3587,-4.2293,-4.1182,-4.1193,-4.1423,-4.1317,-4.0816,-4.0345,-4.0196,-3.9704,-3.9031,-3.8188,-3.8075,-3.7782,-3.7011,-3.688,-3.688,-3.688,-3.688,-3.7204,-3.8,-3.8075,-3.8427,-3.9228,-3.9301,-3.9606,-4.0277,-4.0307,-4.0591,-4.119,-4.0621,-4.0307,-4.0307,-3.9709,-3.9388,-3.9388,-3.9388,-3.9388,-3.9388,-3.9388,-3.9388,-3.9409,-3.9818,-3.996,-4.0031,-4.0296,-4.0366,-4.0312,-4.0401,-4.0366,-4.0277,-4.0277,-4.0331,-4.0436,0.0,0.0,0.0,0.0,0.0,0.0,0.0,0.0,0.0,0.0,0.0,0.0,0.0,0.0,0.0,0.0,0.0,0.0,0.0,0.0,-5.0111,-4.991,-4.9148,-4.866,-4.8513,-4.84,-4.8325,-4.8306,-4.8306,-4.8306,-4.8306,-4.8306,-4.8398,-4.8618,-4.9279,-5.0123,-5.1096,-5.172,-5.2454,-5.3185,-5.3185,-5.3185,-5.3185,-5.3185,-5.3185,0.0,0.0,0.0,0.0,0.0,0.0,0.0,-5.082,-5.0331,-4.9964,-4.9755,-4.8572,-4.7256,-4.7071,-4.583,-4.461,-4.461,-4.3587,-4.217,-4.0568,-3.9766,-3.9587,-4.0449,-4.0502,-4.0047,-3.8883,-3.8566,-3.8188,-3.7333,-3.7165,-3.7127,-3.6933,-3.688,-3.688,-3.688,-3.688,-3.6958,-3.7165,-3.7165,-3.7539,-3.8389,-3.8464,-3.8797,-3.9582,-3.9634,-3.9694,-3.9843,-3.9709,-3.9634,-3.9634,-3.9448,-3.9388,-3.9388,-3.9388,-3.9388,-3.9388,-3.9388,-3.9388,-3.9409,-3.9661,-3.9839,-3.9996,-3.991,-4.0051,-4.0261,-3.9965,-3.9945,-4.0066,-4.0066,-4.0066,-4.0137,0.0,0.0,0.0,0.0,0.0,0.0,0.0,0.0,0.0,0.0,0.0,0.0,0.0,0.0,0.0,0.0,0.0,0.0,0.0,0.0,-4.9981,-4.9487,-4.8887,-4.8513,-4.8401,-4.8343,-4.8306,-4.8306,-4.8306,-4.8306,-4.8306,-4.8306,-4.8306,-4.8324,-4.8765,-4.9444,-5.027,-5.1077,-5.1885,-5.2656,-5.3038,-5.3185,-5.3185,-5.3185,-5.3185,-5.3185,-5.3185,0.0,0.0,0.0,0.0,0.0,0.0,0.0,-5.0302,-4.993,-4.8776,-4.7506,-4.7223,-4.6044,-4.4759,-4.4247,-4.334,-4.2268,-4.0924,-4.0,-3.9454,-3.9469,-3.9082,-3.8513,-3.7711,-3.7577,-3.7309,-3.6478,-3.632,-3.6201,-3.5762,-3.5722,-3.5722,-3.5722,-3.5722,-3.5883,-3.6267,-3.632,-3.6674,-3.7501,-3.7577,-3.7933,-3.8775,-3.8811,-3.8995,-3.9388,-3.9388,-3.9388,-3.9388,-3.9388,-3.9388,-3.9388,-3.9388,-3.9388,-3.9388,-3.9388,-3.9388,-3.9424,-3.9625,-3.9768,-3.9854,-3.9839,-3.991,-4.0016,-3.9874,-3.9839,-3.9854,-3.9854,-3.9925,-3.9996,0.0,0.0,0.0,0.0,0.0,0.0,0.0,0.0,0.0,0.0,0.0,0.0,0.0,0.0,0.0,0.0,0.0,0.0,0.0,0.0,0.0,-4.9102,-4.8714,-4.8438,-4.8306,-4.8306,-4.8306,-4.8306,-4.8306,-4.8306,-4.8306,-4.8306,-4.8306,-4.8306,-4.8306,-4.8783,-4.9647,-5.0453,-5.1261,-5.2068,-5.2894,-5.3185,-5.3185,-5.3185,-5.3115,-5.3004,-5.3004,-5.3004,-5.2941,-5.2476,0.0,0.0,0.0,0.0,-5.0684,-5.0166,-4.9073,-4.7933,-4.7506,-4.6343,-4.4964,-4.3963,-4.3245,-4.255,-4.1679,-4.0848,-3.9888,-3.8752,-3.7772,-3.7074,-3.6763,-3.6685,-3.6425,-3.5629,-3.5467,-3.5237,-3.4522,-3.4397,-3.4397,-3.4397,-3.4397,-3.4675,-3.5426,-3.5467,-3.5816,-3.6621,-3.6685,-3.7141,-3.8165,-3.8202,-3.859,-3.9373,-3.9388,-3.9388,-3.9388,-3.9388,-3.9388,-3.9388,-3.9388,-3.9388,-3.9388,-3.9388,-3.9388,-3.9424,-3.9589,-3.9661,-3.9717,-3.9854,-3.9818,-3.9717,-3.9854,-3.9768,-3.9661,-3.9661,-3.9732,-3.9889,0.0,0.0,0.0,0.0,0.0,0.0,0.0,0.0,0.0,0.0,-5.5135,0.0,0.0,0.0,0.0,0.0,0.0,0.0,0.0,0.0,0.0,-4.9021,-4.8678,-4.8438,-4.8306,-4.8306,-4.8306,-4.8306,-4.8306,-4.8306,-4.8306,-4.8306,-4.8306,-4.8306,-4.8306,-4.8783,-4.9647,-5.0453,-5.1261,-5.2068,-5.2894,-5.3185,-5.3185,-5.3185,-5.2766,-5.216,-5.216,-5.216,-5.216,-5.2079,-5.22,0.0,0.0,0.0,-5.0684,-5.0166,-4.9299,-4.8413,-4.7933,-4.6534,-4.5054,-4.4315,-4.3789,-4.3227,-4.2368,-4.1036,-3.9825,-3.8986,-3.8484,-3.7724,-3.6162,-3.5856,-3.5588,-3.4716,-3.4551,-3.4522,-3.4439,-3.4397,-3.4397,-3.4397,-3.4397,-3.4439,-3.4551,-3.4551,-3.495,-3.5776,-3.5856,-3.6531,-3.8127,-3.8202,-3.859,-3.9373,-3.9388,-3.9388,-3.9388,-3.9388,-3.9388,-3.9388,-3.9388,-3.9388,-3.9388,-3.9388,-3.9388,-3.9388,-3.9424,-3.9553,-3.9696,-3.9553,-3.9553,-3.9696,-3.9532,-3.9445,-3.946,-3.946,-3.946,-3.9496,0.0,0.0,0.0,0.0,0.0,0.0,0.0,0.0,0.0,0.0,0.0,-5.4754,0.0,0.0,0.0,0.0,0.0,0.0,0.0,0.0,0.0,-4.8967,-4.8605,-4.8363,-4.8306,-4.8306,-4.8306,-4.8306,-4.8306,-4.8172,-4.7915,-4.7915,-4.8035,-4.8287,-4.8015,-4.8274,-4.893,-4.9756,-5.0325,-5.0767,-5.2013,-5.2527,-5.2582,-5.3041,-5.2711,-5.1995,-5.1995,-5.1995,-5.1995,-5.1995,-5.2383,-5.2761,-5.2221,0.0,0.0,0.0,-4.9744,-4.8728,-4.7721,-4.6518,-4.5452,-4.4893,-4.4183,-4.3494,-4.3128,-4.2206,-4.1114,-3.9833,-3.9446,-3.8548,-3.5845,-3.5372,-3.5127,-3.4522,-3.4397,-3.4397,-3.4397,-3.4397,-3.4397,-3.4397,-3.4397,-3.4397,-3.4397,-3.4397,-3.4551,-3.495,-3.495,-3.5507,-3.6741,-3.7232,-3.7857,-3.8686,-3.9156,-3.9388,-3.9388,-3.9388,-3.9388,-3.9388,-3.9388,-3.9388,-3.9388,-3.9388,-3.9388,-3.9388,-3.9388,-3.9445,-3.9517,-3.946,-3.9445,-3.9517,-3.9409,-3.9388,-3.9388,-3.9388,-3.9388,-3.9409,0.0,0.0,0.0,0.0,0.0,0.0,0.0,0.0,0.0,0.0,0.0,0.0,0.0,0.0,0.0,0.0,0.0,0.0,0.0,0.0,0.0,-4.888,-4.8495,-4.8306,-4.8306,-4.8306,-4.8306,-4.8306,-4.8306,-4.8055,-4.7591,-4.7485,-4.7609,-4.7935,-4.7569,-4.763,-4.799,-4.8869,-4.9216,-4.9343,-5.0892,-5.1501,-5.1556,-5.232,-5.2087,-5.1391,-5.1391,-5.1391,-5.1428,-5.1628,-5.2234,-5.2846,-5.249,-5.1892,0.0,0.0,0.0,-4.8728,-4.7868,-4.6916,-4.6131,-4.5749,-4.4841,-4.4004,-4.4004,-4.3399,-4.2404,-4.0843,-4.0242,-3.9114,-3.6195,-3.56,-3.5442,-3.5094,-3.4926,-3.4829,-3.4829,-3.4829,-3.4776,-3.4633,-3.462,-3.4567,-3.441,-3.4397,-3.4397,-3.4397,-3.4397,-3.4799,-3.5669,-3.6464,-3.7295,-3.8165,-3.8995,-3.9388,-3.9388,-3.9388,-3.9388,-3.9388,-3.9388,-3.9388,-3.9388,-3.9388,-3.9388,-3.9388,-3.9388,-3.9388,-3.9388,-3.9388,-3.9388,-3.9388,-3.9388,-3.9388,-3.9388,-3.9388,-3.9388,-3.9388,0.0,0.0,0.0,0.0,0.0,0.0,0.0,0.0,0.0,0.0,0.0,0.0,-5.4313,-5.4313,-5.4023,-5.3214,0.0,0.0,0.0,0.0,0.0,-4.8833,-4.8477,0.0,-4.8306,-4.8306,-4.8306,-4.8306,-4.8306,-4.8055,-4.7591,-4.7138,-4.6954,-4.6976,-4.6954,-4.6954,-4.703,-4.7844,-4.8184,-4.8284,-4.9581,-5.0101,-5.0145,-5.0733,-5.0417,-4.9721,-4.9721,-4.9721,-4.9849,-5.06,-5.1389,-5.2095,-5.2327,-5.1496,-5.036,0.0,0.0,0.0,-4.8931,-4.808,-4.7033,-4.7015,-4.604,-4.5126,-4.5126,-4.4301,-4.3177,-4.1904,-4.0658,-3.9262,-3.7447,-3.6935,-3.682,-3.6764,-3.6349,-3.6018,-3.6018,-3.6018,-3.5822,-3.5312,-3.5247,-3.5025,-3.445,-3.4397,-3.4397,-3.4397,-3.4397,-3.4799,-3.5669,-3.6464,-3.7295,-3.8165,-3.8995,-3.9388,-3.9388,-3.9388,-3.9388,-3.9388,-3.9388,-3.9388,-3.9388,-3.9388,-3.9388,-3.9388,-3.9388,-3.9388,-3.9388,-3.9388,-3.9388,-3.9388,-3.9388,-3.9388,-3.9388,-3.9388,-3.9388,-3.9388,0.0,0.0,0.0,0.0,0.0,0.0,0.0,0.0,0.0,0.0,0.0,0.0,0.0,-5.3033,-5.2823,-5.2085,-5.16,0.0,0.0,0.0,0.0,-4.8495,-4.8364,-4.8306,-4.8306,-4.8306,-4.8306,-4.8306,-4.8306,-4.7915,-4.7138,-4.6976,-4.656,-4.5963,-4.6291,-4.6607,-4.6926,-4.7212,-4.7342,-4.7395,-4.8388,-4.896,-4.9318,-5.0013,-5.001,-4.961,-4.961,-4.961,-4.9721,-5.0527,-5.1334,-5.2029,-5.2118,-5.1343,-5.0133,-4.8783,-4.8135,-4.7735,-4.7163,-4.6611,-4.6011,-4.5196,-4.4555,-4.4134,-4.3883,-4.3552,-4.2978,-4.185,-4.0956,-4.0055,-3.8993,-3.7597,-3.6388,-3.585,-3.5573,-3.535,-3.5054,-3.5012,-3.4933,-3.4737,-3.4724,-3.4633,-3.441,-3.4397,-3.4397,-3.4397,-3.4397,-3.4551,-3.4827,-3.6148,-3.7049,-3.7372,-3.8671,-3.9388,-3.9388,-3.9388,-3.9388,-3.9388,-3.9388,-3.9388,-3.9388,-3.9388,-3.9388,-3.9388,-3.9388,-3.9388,-3.9388,-3.9388,-3.9388,-3.9388,-3.9388,-3.9388,-3.9388,-3.9388,-3.9388,-3.9388,0.0,0.0,0.0,0.0,0.0,0.0,0.0,0.0,0.0,0.0,0.0,0.0,0.0,0.0,-5.1677,-5.1021,-5.0418,-4.9755,-4.8951,-4.8864,-4.8676,-4.8325,-4.8306,-4.8306,-4.8306,-4.8306,-4.8306,-4.8306,-4.8306,-4.7816,-4.6908,-4.6908,-4.637,-4.5423,-4.5778,-4.6094,-4.6394,-4.6394,-4.6394,-4.6471,-4.7157,-4.7652,-4.8026,-4.888,-4.9089,-4.8954,-4.9111,-4.9353,-4.9721,-5.0527,-5.1334,-5.1995,-5.1995,-5.0921,-4.9319,-4.7767,-4.7121,-4.6807,-4.6229,-4.573,-4.5113,-4.4115,-4.3557,-4.3168,-4.2689,-4.2481,-4.2105,-4.1106,-4.0411,-3.9727,-3.8864,-3.7528,-3.6464,-3.6171,-3.5866,-3.5575,-3.5226,-3.5057,-3.4894,-3.4724,-3.4698,-3.462,-3.441,-3.4397,-3.4397,-3.4397,-3.4397,-3.4397,-3.4397,-3.5722,-3.6738,-3.7333,-3.8671,-3.9388,-3.9388,-3.9388,-3.9388,-3.9388,-3.9388,-3.9388,-3.9388,-3.9388,-3.9388,-3.9388,-3.9388,-3.9388,-3.9388,-3.9388,-3.9388,-3.9388,-3.9388,-3.9388,-3.9388,-3.9388,-3.9388,-3.9388,0.0,0.0,0.0,0.0,0.0,0.0,0.0,0.0,0.0,-5.3167,0.0,0.0,0.0,0.0,0.0,-5.0095,-4.9328,-4.888,-4.888,-4.888,-4.871,-4.8325,0.0,0.0,-4.8306,-4.8306,-4.8306,-4.8306,-4.8306,-4.7816,-4.6908,-4.6908,-4.637,-4.5397,-4.5397,-4.5397,-4.5397,-4.5397,-4.5397,-4.545,-4.598,-4.6186,-4.6308,-4.7208,-4.7569,-4.7653,-4.8132,-4.8838,-4.9702,-5.0508,-5.1316,-5.1958,-5.1919,-5.0137,-4.7868,-4.6838,-4.5966,-4.5518,0.0,0.0,0.0,-4.4033,-4.3284,-4.2473,-4.1706,-4.126,-4.0671,-3.9683,-3.9021,-3.8207,-3.703,-3.6873,-3.7135,-3.7909,-3.7321,-3.6764,-3.6764,-3.6362,-3.5861,-3.5381,-3.5273,-3.5038,-3.445,-3.4397,-3.4397,-3.4397,-3.4397,-3.4397,-3.4397,-3.5237,-3.6492,-3.8165,-3.8995,-3.9388,-3.9388,-3.9388,-3.9388,-3.9388,-3.9388,-3.9388,-3.9388,-3.9388,-3.9388,-3.9388,-3.9388,-3.9388,-3.9388,-3.9388,-3.9388,-3.9388,-3.9388,-3.9388,-3.9388,-3.9388,-3.9388,-3.9388,0.0,0.0,0.0,0.0,0.0,0.0,0.0,0.0,-5.3004,0.0,0.0,0.0,-5.04,-4.9499,-4.8951,-4.8808,-4.8587,-4.8477,-4.8477,-4.8477,-4.8421,-4.8306,-4.8306,-4.8306,-4.8306,-4.8306,-4.8306,-4.8306,-4.8306,-4.7816,-4.6908,-4.6908,-4.637,-4.5397,-4.5397,-4.5397,-4.5397,-4.5397,-4.5397,-4.5423,-4.5563,-4.5854,-4.6235,-4.6489,-4.7026,-4.7611,-4.7754,-4.8161,-4.8875,-5.0325,-5.0949,-5.1012,-5.0276,-4.8752,-4.6938,-4.5379,-4.4768,-4.4406,-4.3509,0.0,0.0,0.0,0.0,0.0,-4.0606,-4.0151,-3.9769,-3.9242,-3.8473,-3.777,-3.7439,-3.7024,-3.6729,-3.6616,-3.6557,-3.6389,-3.6048,-3.5635,-3.5332,-3.5173,-3.4868,-3.458,-3.441,-3.4397,-3.4397,-3.4397,-3.4397,-3.4397,-3.4397,-3.5762,-3.7063,-3.8165,-3.8995,-3.9388,-3.9388,-3.9388,-3.9388,-3.9388,-3.9388,-3.9388,-3.9388,-3.9388,-3.9388,-3.9388,-3.9388,-3.9388,-3.9388,-3.9388,-3.9388,-3.9388,-3.9388,-3.9388,-3.9388,-3.9388,-3.9388,-3.9388,0.0,0.0,0.0,0.0,0.0,0.0,0.0,-5.2931,-5.2527,0.0,0.0,0.0,-4.9187,-4.86,-4.8306,-4.8306,-4.8306,-4.8306,-4.8306,-4.8306,-4.8306,-4.8306,-4.8306,-4.8306,-4.8306,-4.8306,-4.8306,-4.8306,-4.8094,-4.763,-4.6908,-4.6701,-4.6168,-4.5397,-4.5397,-4.5397,-4.5397,-4.5344,-4.5344,-4.5397,-4.5397,-4.5589,-4.5905,-4.6112,-4.6537,-4.7049,-4.7248,-4.7847,-4.8707,-5.0024,-5.0604,-5.0527,-4.8989,-4.7785,-4.6564,-4.4806,-4.4087,-4.3569,-4.2344,-4.1923,-4.163,-4.0763,0.0,0.0,-3.9544,-3.9072,-3.8695,-3.8263,-3.7742,-3.7242,-3.6866,-3.6742,-3.6512,-3.6006,-3.6249,-3.6276,-3.566,-3.544,-3.5277,-3.5127,-3.4867,-3.4618,-3.4439,-3.4397,-3.4397,-3.4397,-3.4397,-3.4397,-3.4397,-3.5682,-3.6791,-3.763,-3.8449,-3.9083,-3.9388,-3.9388,-3.9388,-3.9388,-3.9388,-3.9388,-3.9388,-3.9388,-3.9388,-3.9388,-3.9388,-3.9388,-3.9388,-3.9388,-3.9388,-3.9388,-3.9388,-3.9388,-3.9388,-3.9388,-3.9388,-3.9388,0.0,0.0,0.0,0.0,0.0,0.0,0.0,-5.2454,-5.194,0.0,-5.04,-4.917,-4.8379,-4.8306,-4.8306,-4.8306,-4.8306,-4.8306,-4.8306,-4.8306,-4.8306,-4.8306,-4.8306,-4.8306,-4.8306,-4.8306,-4.8306,-4.8306,-4.7836,-4.7356,-4.6886,-4.6411,0.0,0.0,0.0,-4.5371,-4.5371,-4.5247,-4.5247,-4.5344,-4.5344,-4.5344,-4.5423,-4.5887,-4.6137,-4.6217,-4.6654,-4.7564,-4.8703,-4.9521,-5.0162,-5.025,-4.8092,-4.7143,-4.6477,-4.4702,-4.3707,-4.3,-4.212,-4.1412,-4.0799,-4.0404,-3.9978,0.0,-3.8778,-3.8339,-3.7886,-3.7285,-3.7135,-3.6862,-3.6006,-3.63,-3.6463,-3.5866,-3.631,-3.6445,-3.5749,-3.5776,-3.5749,-3.5372,-3.5263,-3.5031,-3.4522,-3.4439,-3.4397,-3.4397,-3.4397,-3.4397,-3.4397,-3.5237,-3.6042,-3.6724,-3.7706,-3.8538,-3.9265,-3.9352,-3.9388,-3.9388,-3.9388,-3.9388,-3.9388,-3.9388,-3.9388,-3.9388,-3.9388,-3.9388,-3.9388,-3.9388,-3.9388,-3.9388,-3.9388,-3.9388,-3.9388,-3.9388,-3.9388,-3.9388,0.0,0.0,0.0,0.0,0.0,0.0,0.0,-5.2087,-5.1536,-5.0253,-4.9169,-4.8489,-4.8324,-4.8306,-4.8306,-4.8306,-4.8306,-4.8306,-4.8306,-4.8306,-4.8306,-4.8306,-4.8306,-4.8306,-4.8306,-4.8306,-4.8306,-4.8306,-4.7836,-4.7356,0.0,0.0,0.0,0.0,-4.5274,-4.5247,-4.5247,-4.5113,-4.5059,-4.5086,-4.5086,-4.5086,-4.5086,-4.531,-4.5641,-4.5992,-4.6242,-4.6737,-4.7384,-4.8199,-4.8926,-4.9274,-4.7848,-4.6917,-4.5954,-4.3994,-4.331,-4.2896,-4.1498,-4.1015,-4.0799,-4.0404,-4.0238,0.0,-3.9489,-3.9162,-3.881,-3.8294,-3.8042,-3.7653,-3.6892,-3.6847,-3.6676,-3.5836,-3.6229,-3.6796,-3.7237,-3.703,-3.6826,-3.6799,-3.6215,-3.5602,-3.5031,-3.4605,-3.4397,-3.4397,-3.4397,-3.4397,-3.4397,-3.5237,-3.5776,-3.5936,-3.7414,-3.8277,-3.8427,-3.9083,-3.9388,-3.9388,-3.9388,-3.9388,-3.9388,-3.9388,-3.9388,-3.9388,-3.9388,-3.9388,-3.9388,-3.9388,-3.9388,-3.9388,-3.9388,-3.9388,-3.9388,-3.9388,-3.9388,-3.9388,0.0,-5.2894,0.0,0.0,0.0,0.0,0.0,0.0,-5.043,-4.9682,-4.8838,-4.8306,-4.8306,-4.8306,-4.8306,-4.8306,-4.8306,-4.8306,-4.8306,-4.8306,-4.8306,-4.8306,-4.8306,-4.8306,-4.8306,-4.8306,-4.8306,-4.8306,0.0,0.0,0.0,0.0,0.0,-4.53,-4.5247,-4.515,-4.5086,-4.4968,-4.4913,-4.4913,-4.4978,-4.5005,-4.5005,-4.5086,-4.5239,-4.5468,-4.5641,-4.656,-4.7634,-4.7286,-4.8057,-4.8876,-4.699,-4.604,-4.5288,-4.3675,-4.2913,-4.2361,-4.1205,-4.0912,-4.0847,-4.0631,-4.0453,0.0,0.0,-3.9679,-3.9295,-3.8947,-3.8562,-3.8157,-3.7639,-3.7359,-3.7029,-3.6445,-3.6596,-3.7002,-3.7575,-3.7523,-3.7375,-3.7184,-3.7082,-3.666,-3.5642,-3.5359,-3.4991,-3.4439,-3.4397,-3.4397,-3.4397,-3.4799,-3.5237,-3.5709,-3.6531,-3.7376,-3.8202,-3.859,-3.8995,-3.9388,-3.9388,-3.9388,-3.9388,-3.9388,-3.9388,-3.9388,-3.9388,-3.9388,-3.9388,-3.9388,-3.9388,-3.9388,-3.9388,-3.9388,-3.9388,-3.9388,-3.9388,-3.9388,-5.2666,-5.2134,0.0,0.0,0.0,0.0,0.0,0.0,-4.934,-4.9313,-4.8727,-4.8306,-4.8306,-4.8287,-4.8305,-4.8306,-4.8287,-4.8305,-4.8306,-4.8306,-4.8306,-4.8306,-4.8306,-4.8306,-4.8306,-4.8306,-4.8267,-4.8172,0.0,0.0,0.0,0.0,-4.5344,-4.5203,-4.5177,-4.5086,-4.4951,-4.4831,-4.4748,-4.4776,-4.4886,-4.4923,-4.494,-4.4951,-4.4951,-4.4978,-4.5096,-4.6411,-4.784,-4.6485,-4.7188,-4.8268,-4.6083,-4.5163,-4.4635,-4.3521,-4.2637,-4.1843,-4.1101,-4.0912,-4.0912,-4.0912,-4.0673,-4.0429,0.0,0.0,0.0,-3.947,-3.9109,-3.8739,-3.8383,-3.7927,-3.7535,-3.7255,-3.709,-3.7094,-3.7357,-3.7594,-3.7656,-3.7418,-3.7893,-3.78,-3.6517,-3.6175,-3.5548,-3.4481,-3.4397,-3.4397,-3.4397,-3.4397,-3.4716,-3.5426,-3.5629,-3.6413,-3.791,-3.8127,-3.8612,-3.9388,-3.9388,-3.9388,-3.9388,-3.9388,-3.9388,-3.9388,-3.9388,-3.9388,-3.9388,-3.9388,-3.9388,-3.9388,-3.9388,-3.9388,-3.9388,-3.9388,-3.9388,-3.9388,-5.0736,-5.0644,-5.0568,0.0,0.0,0.0,0.0,0.0,-4.9019,-4.8425,-4.8321,-4.8306,-4.8306,-4.8247,-4.8246,-4.8287,-4.8247,-4.8246,-4.8287,-4.8306,-4.8306,-4.8306,-4.8306,-4.8306,-4.8306,-4.8306,-4.8113,-4.7674,0.0,0.0,0.0,0.0,0.0,-4.5177,-4.5086,-4.4951,-4.4803,-4.4682,-4.4626,-4.4626,-4.4626,-4.4654,-4.4654,-4.4793,-4.4831,-4.4831,-4.4978,-4.5617,-4.6265,-4.5558,-4.5897,-4.6502,-4.5638,-4.4941,-4.4215,-4.3439,-4.2637,-4.1843,-4.1101,-4.0912,-4.0912,-4.0912,-4.0864,-4.0823,-4.0823,0.0,-4.0655,-4.0263,0.0,-3.9893,-3.9206,0.0,0.0,-3.803,-3.7419,-3.7,-3.7047,-3.7325,-3.776,-3.8352,-3.8722,-3.862,-3.7951,-3.6738,-3.5548,-3.4481,-3.4397,-3.4397,-3.4397,-3.4397,-3.4439,-3.4551,-3.5305,-3.6122,-3.7049,-3.7834,-3.8612,-3.9388,-3.9388,-3.9388,-3.9388,-3.9388,-3.9388,-3.9388,-3.9388,-3.9388,-3.9388,-3.9388,-3.9388,-3.9388,-3.9388,-3.9388,-3.9388,-3.9388,-3.9388,-3.9388,-5.0135,-5.0016,-4.9604,0.0,0.0,0.0,0.0,0.0,-4.746,-4.7204,-4.7194,-4.7198,-4.7198,-4.753,-4.7591,-4.7219,-4.753,-4.7754,-4.7777,-4.7777,-4.7937,-4.8287,-4.8306,-4.8306,-4.8306,-4.8035,-4.7795,-4.7611,-4.6863,0.0,0.0,0.0,0.0,-4.5086,-4.4923,-4.4803,-4.4682,-4.4626,-4.4615,-4.4615,-4.4615,-4.4615,-4.4615,-4.4654,-4.4737,-4.4803,-4.4858,-4.5401,-4.5996,-4.5299,-4.5346,-4.5547,-4.4861,-4.3872,-4.2913,-4.2603,-4.1964,-4.1291,-4.0981,-4.0912,-4.0912,-4.0912,-4.0912,-4.0912,-4.0912,-4.0912,-4.0847,-4.068,0.0,0.0,0.0,0.0,0.0,0.0,-3.8254,-3.7754,-3.7401,-3.7591,-3.7959,-3.8485,-3.8967,-3.9113,-3.8664,-3.7242,-3.6056,-3.5386,-3.5005,-3.4688,-3.4397,-3.4397,-3.4397,-3.4397,-3.4758,-3.5561,-3.688,-3.7256,-3.8084,-3.9388,-3.9388,-3.9388,-3.9388,-3.9388,-3.9388,-3.9388,-3.9388,-3.9388,-3.9388,-3.9388,-3.9119,-3.8686,-3.8686,-3.901,-3.9388,-3.9388,-3.9388,-3.9388,-4.8896,-4.875,-4.8199,-4.7775,0.0,0.0,0.0,0.0,-4.6377,-4.6377,-4.6383,-4.6407,-4.6407,-4.6819,-4.6927,-4.6454,-4.6819,-4.7106,-4.711,-4.719,-4.7363,-4.7759,-4.7977,-4.8035,-4.7875,-4.7674,-4.7485,-4.7226,0.0,0.0,0.0,0.0,0.0,0.0,-4.4831,-4.4737,-4.4587,-4.4367,-4.431,-4.4281,-4.4093,-4.4121,-4.431,-4.4542,-4.4654,-4.4703,-4.4483,-4.482,-4.5244,-4.4548,-4.4373,-4.4394,-4.3889,-4.2885,-4.1877,-4.1877,-4.136,-4.0799,-4.084,-4.084,-4.0847,-4.0888,-4.0912,-4.0912,-4.0912,-4.0912,-4.0912,-4.0912,-4.0673,0.0,0.0,0.0,-3.9731,-3.9523,0.0,-3.8474,-3.7937,-3.7872,-3.7966,-3.8219,-3.8985,-3.9303,-3.8761,-3.7713,-3.683,-3.636,-3.5763,-3.5332,-3.5101,-3.5101,-3.4978,-3.4758,-3.4758,-3.5454,-3.688,-3.6699,-3.741,-3.9083,-3.9083,-3.8958,-3.8708,-3.8958,-3.9083,-3.9083,-3.9083,-3.9192,-3.9388,-3.9156,-3.8738,-3.8165,-3.7947,-3.8211,-3.8745,-3.8995,-3.9192,-3.9388,-4.6217,-4.6217,-4.6182,-4.6158,-4.6165,-4.6165,0.0,-4.6238,-4.631,-4.631,-4.6353,-4.6407,-4.6407,-4.6371,-4.6347,-4.6407,-4.6347,-4.6347,-4.643,-4.6624,-4.6648,-4.6478,-4.7194,-4.7356,-4.6776,-4.7295,-4.7142,-4.6242,0.0,0.0,0.0,0.0,0.0,0.0,-4.4803,-4.4737,-4.4542,-4.3839,-4.3542,-4.3482,-4.2831,-4.2953,-4.3601,-4.4338,-4.4598,-4.4513,-4.3724,-4.347,-4.3396,-4.2794,-4.2575,0.0,0.0,0.0,-4.1604,-4.1604,-4.1074,-4.0534,-4.0673,-4.0697,-4.0745,-4.0864,-4.0912,-4.0912,-4.0912,-4.0912,-4.0912,-4.0912,-4.0888,-4.0888,-4.0888,-4.0534,-4.0263,-4.028,-3.9644,0.0,0.0,-3.7982,-3.758,-3.7541,-3.8708,-3.912,-3.8136,-3.8033,-3.78,-3.7204,-3.6596,-3.6399,-3.6802,-3.6802,-3.6464,-3.5669,-3.5669,-3.6042,-3.688,-3.6122,-3.657,-3.824,-3.824,-3.7796,-3.6996,-3.7857,-3.824,-3.824,-3.824,-3.8701,-3.9352,-3.8538,-3.824,-3.8127,-3.7256,-3.6958,-3.7088,-3.791,-3.8738,-3.9388,-4.5272,-4.5106,-4.5196,-4.5511,-4.585,-4.5975,-4.5622,-4.5363,-4.5186,-4.5186,-4.5178,-4.5205,-4.5205,-4.5537,-4.5614,-4.5232,-4.5537,-4.5775,-4.5808,-4.5875,-4.6056,-4.6383,-4.6664,-4.6705,-4.6513,-4.6489,-4.6293,-4.586,-4.5641,0.0,0.0,0.0,0.0,0.0,-4.4709,-4.4367,-4.3869,-4.3617,-4.3257,-4.2831,-4.2583,-4.2645,-4.2953,-4.415,-4.4615,-4.4496,-4.369,-4.3392,0.0,-4.2594,-4.2106,-4.1793,-4.1861,-4.1426,-4.0869,-4.0869,-4.0698,-4.051,0.0,0.0,-4.0607,-4.0745,-4.0769,-4.0793,-4.0888,-4.0912,-4.0912,-4.0912,-4.0912,-4.0912,-4.0912,-4.0776,-4.068,-4.068,-4.0246,-3.9799,0.0,-3.833,-3.7494,-3.7219,-3.816,-3.8882,-3.899,-3.8647,-3.8432,-3.8406,-3.7701,-3.7256,-3.7127,-3.6958,-3.6777,-3.6503,-3.5976,-3.6082,-3.688,-3.6082,-3.6255,-3.7333,-3.7333,-3.7179,-3.6919,-3.7218,-3.7333,-3.7333,-3.7333,-3.7486,-3.7715,-3.7448,-3.7039,-3.6531,-3.6201,-3.6122,-3.6201,-3.7025,-3.7895,-3.8701,-4.5535,-4.5162,-4.5015,-4.5032,-4.5337,-4.5451,-4.5098,-4.4786,-4.4615,-4.4615,-4.4615,-4.4615,-4.4615,-4.4961,-4.5025,-4.4626,-4.4961,-4.5178,-4.5178,-4.5232,-4.5399,-4.5732,-4.6014,-4.6063,-4.5833,-4.5825,-4.5716,-4.5451,-4.5239,-4.5059,0.0,0.0,0.0,0.0,-4.4367,-4.3943,-4.3482,-4.2984,-4.2552,-4.2141,-4.2141,-4.2141,-4.2269,-4.3426,-4.3839,-4.372,0.0,-4.2638,-4.2479,-4.1762,-4.1264,-4.0951,-4.0951,-4.0662,-4.0362,-4.0362,-4.0362,-4.0387,-4.0412,-4.0436,0.0,-4.06,-4.0624,0.0,-4.0793,-4.084,-4.084,-4.084,-4.0864,-4.0871,-4.0776,-4.084,-4.0871,-4.084,-4.0631,-4.0345,0.0,-3.8624,-3.7621,-3.7254,-3.7778,-3.8323,-3.8769,-3.866,-3.8737,-3.9037,-3.8568,-3.8219,-3.8092,-3.7904,-3.751,-3.6919,-3.6385,-3.6241,-3.6464,-3.5655,-3.5655,-3.6464,-3.6464,-3.6306,-3.6029,-3.6346,-3.6464,-3.6464,-3.6464,-3.6621,-3.688,-3.6582,-3.6162,-3.5669,-3.5345,-3.5237,-3.5345,-3.6162,-3.7193,-3.824,-4.6802,-4.6244,-4.5534,-4.4835,-4.4649,-4.4615,-4.4649,-4.4649,-4.4682,-4.4699,-4.4682,-4.4649,-4.4649,-4.4632,-4.4615,-4.4615,-4.4615,-4.4615,-4.4615,-4.4737,-4.472,-4.4615,-4.5258,-4.539,-4.4803,-4.5363,-4.5425,-4.4978,-4.4978,-4.4913,0.0,0.0,0.0,0.0,-4.3839,-4.3482,-4.3347,-4.2062,-4.1492,-4.1459,-4.1459,-4.1459,-4.1525,-4.2141,-4.2311,-4.2142,-4.1505,-4.1199,-4.1034,-4.0299,-4.0087,-4.0096,-4.0096,-4.0096,-4.0096,-4.0096,-4.0096,-4.0138,-4.0255,-4.0288,-4.0313,-4.0461,-4.0485,0.0,0.0,0.0,-4.0697,-4.0697,-4.0793,-4.0799,-4.0558,-4.0728,-4.0864,-4.0721,-4.0817,-4.0638,-3.9927,-3.8849,-3.7998,-3.7663,-3.7514,-3.7461,-3.7507,-3.8132,-3.872,-3.9173,-3.9153,-3.9277,-3.9681,-3.9517,-3.8671,-3.7011,-3.6919,-3.6503,-3.5709,-3.484,-3.484,-3.5629,-3.5629,-3.5196,-3.4439,-3.5264,-3.5629,-3.5629,-3.5629,-3.6082,-3.6724,-3.5963,-3.5629,-3.5548,-3.4716,-3.4397,-3.4522,-3.5386,-3.6702,-3.7962,-4.6904,-4.665,-4.6447,-4.6261,-4.5343,-4.4801,-4.5331,-4.5415,-4.5602,-4.6143,-4.5754,-4.5415,-4.5415,-4.4925,-4.4615,-4.4615,-4.4615,-4.4615,-4.4615,-4.4626,-4.4626,-4.4615,-4.4786,-4.4814,-4.4654,-4.4896,-4.4923,-4.4709,-4.4803,-4.4776,-4.4654,0.0,0.0,0.0,-4.3839,-4.3227,-4.2707,-4.1868,-4.1209,-4.0783,-4.0783,-4.0783,-4.0721,0.0,-4.0228,-4.0219,-4.054,-4.0597,-4.0411,-3.9694,-3.9722,-4.0096,-4.0096,-4.0096,-4.0096,-4.0096,-4.0096,-4.0113,-4.0138,-4.0163,-4.0188,-4.0313,-4.0337,-4.0387,0.0,0.0,0.0,0.0,0.0,0.0,0.0,-4.0697,-4.0769,-4.084,-4.0793,-4.0583,-4.0079,-3.9092,-3.8238,-3.787,-3.72,-3.6953,-3.7446,-3.7671,-3.8218,-3.933,-3.9287,-3.9384,-3.9895,-3.9732,-3.909,-3.791,-3.7256,-3.6503,-3.5709,-3.484,-3.4522,-3.4716,-3.4716,-3.4634,-3.4397,-3.4634,-3.4716,-3.4716,-3.4716,-3.4868,-3.5019,-3.4827,-3.4716,-3.4716,-3.4481,-3.4397,-3.4522,-3.5386,-3.599,-3.6413,-4.7834,-4.7496,-4.7175,-4.6853,-4.6092,-4.5686,-4.6109,-4.6177,-4.6329,-4.6735,-4.643,-4.6058,-4.5737,-4.5331,-4.4942,-4.4632,-4.4615,-4.4615,-4.4615,-4.4615,-4.4615,-4.4615,-4.4615,-4.4615,-4.4615,-4.4682,-4.4682,-4.4615,-4.4682,-4.4682,-4.4615,0.0,0.0,0.0,-4.3363,-4.2691,-4.2013,-4.1343,-4.0836,-4.0489,-4.0489,-4.0489,0.0,-3.9736,-3.9294,-3.9029,-3.9092,-3.9259,-3.9363,-3.8969,-3.9011,-3.9322,-3.9322,-3.9497,-3.9722,-3.9722,-3.9876,-4.0096,-4.0096,-4.0096,-4.0138,-4.0188,-4.0213,-4.0238,-4.0387,-4.0412,-4.0412,0.0,-4.0461,-4.0485,0.0,-4.0534,-4.0631,-4.0704,-4.0444,-4.0229,-4.0271,-3.9022,-3.8124,-3.8169,-3.7178,-3.6645,-3.703,-3.7323,-3.7815,-3.8585,-3.875,-3.9061,-3.9555,-3.9388,-3.8782,-3.7668,-3.7141,-3.632,-3.5155,-3.4634,-3.4397,-3.4397,-3.4397,-3.4397,-3.4397,-3.4397,-3.4397,-3.4397,-3.4397,-3.4397,-3.4397,-3.4397,-3.4397,-3.4397,-3.4397,-3.4397,-3.4481,-3.495,-3.5386,-3.5696,-4.9001,-4.8494,-4.7851,-4.7192,-4.709,-4.709,-4.709,-4.7005,-4.6972,-4.7073,-4.6989,-4.6667,-4.5923,-4.5771,-4.5399,-4.4666,-4.4615,-4.4615,-4.4615,-4.4615,-4.4615,-4.4615,-4.4615,-4.4615,-4.4615,-4.4615,-4.4615,-4.4615,-4.4615,-4.4615,0.0,0.0,0.0,-4.3482,-4.28,-4.2078,-4.1327,-4.0749,-4.0489,-4.0489,-4.0489,-4.0443,-4.029,-3.9613,-3.897,-3.8292,-3.7615,-3.7726,-3.8165,-3.8165,-3.8222,-3.8306,-3.8306,-3.8657,-3.9082,-3.9082,-3.9444,-3.9876,-3.9876,-3.9901,-3.9995,-3.9995,-4.0045,-4.0121,-4.0238,-4.0263,-4.0263,-4.0263,-4.0362,-4.037,0.0,0.0,-4.0468,-4.0395,-3.9986,-3.9833,-4.0179,-3.8761,-3.7851,-3.8306,-3.7252,0.0,-3.6492,-3.703,-3.74,-3.7492,-3.7978,-3.8492,-3.8959,0.0,-3.8308,-3.7088,-3.6947,-3.6136,-3.4592,-3.4481,-3.4397,-3.4397,-3.4397,-3.4397,-3.4397,-3.4397,-3.4397,-3.4397,-3.4397,-3.4397,-3.4397,-3.4397,-3.4397,-3.4397,-3.4397,-3.4397,-3.4397,-3.4397,-3.4868,-3.5426,-4.9001,-4.89,-4.8781,-4.8646,-4.8612,-4.8612,-4.8612,-4.8105,-4.7936,-4.8528,-4.8088,-4.7445,-4.6684,-4.6058,-4.5399,-4.4666,-4.4615,-4.4615,-4.4615,-4.4615,-4.4615,-4.4615,-4.4615,-4.4615,-4.4615,-4.4615,-4.4615,-4.4615,-4.4615,-4.4615,0.0,0.0,0.0,-4.3482,-4.28,-4.1836,-4.0681,-4.0558,-4.0489,-4.0489,-4.0489,-4.0151,-3.9582,-3.8939,-3.8262,-3.7584,-3.6907,-3.7046,-3.7549,-3.7549,-3.7883,-3.8306,-3.8306,-3.8379,-3.8463,-3.8463,-3.8546,-3.8629,-3.8629,-3.8984,-3.9365,-3.9365,-3.9722,-4.0113,-4.0138,-4.0138,-4.0138,-4.0138,-4.0146,-4.0188,-4.0238,0.0,0.0,-3.9842,-4.0003,-3.9876,-3.8984,-3.8474,-3.8039,-3.7637,-3.6952,-3.6492,-3.6492,-3.6599,-3.6892,-3.7461,-3.764,-3.8133,0.0,0.0,-3.8723,0.0,-3.7256,0.0,0.0,0.0,-3.4397,-3.4397,-3.4397,-3.4397,-3.4397,-3.4397,-3.4397,-3.4397,-3.4397,-3.4397,-3.4397,-3.4397,-3.4397,-3.4397,-3.4397,-3.4397,-3.4397,-3.4397,-3.4522,-3.4592,-4.9001,-4.9001,-4.9001,-4.9001,-4.9001,-4.9001,-4.9001,-4.8714,-4.8612,-4.8951,-4.8697,-4.8054,-4.6904,-4.6481,-4.5821,-4.4699,-4.4615,-4.4615,-4.4615,-4.4615,-4.4615,-4.4615,-4.4615,-4.4615,-4.4615,-4.4615,-4.4615,-4.4615,-4.4615,-4.4615,0.0,0.0,0.0,-4.2953,-4.1933,-4.1109,-4.0489,-4.0489,0.0,-4.0459,-4.0105,-3.9782,-3.9367,-3.8385,-3.7784,-3.7415,-3.6738,-3.6693,-3.6922,-3.6922,-3.7118,-3.7371,-3.7371,-3.7592,-3.7825,-3.7825,-3.8067,-3.8306,-3.8306,-3.8518,-3.8739,-3.8739,-3.9189,-3.9644,-3.9644,-3.9893,-4.0096,-4.0096,-4.0096,-4.002,-3.9773,-3.9773,0.0,0.0,-3.9119,-3.9065,-3.8474,-3.7809,-3.7371,-3.7417,-3.6861,-3.6492,-3.6492,-3.6492,-3.663,-3.6953,-3.737,-3.7831,-3.8413,0.0,-3.8634,0.0,0.0,0.0,-3.5032,0.0,-3.4397,-3.4397,-3.4397,-3.4397,-3.4397,-3.4397,-3.4397,-3.4397,-3.4397,-3.4397,-3.4397,-3.4397,-3.4397,-3.4397,-3.4397,-3.4397,-3.4397,-3.4397,-3.4397,-3.4397,-4.9001,-4.9001,-4.9001,-4.9001,-4.9001,-4.9001,-4.9001,-4.9001,-4.9001,-4.9001,-4.9001,-4.8511,-4.7175,-4.6887,-4.6261,-4.4942,-4.4699,-4.4615,-4.4615,-4.4615,-4.4615,-4.4615,-4.4615,-4.4615,-4.4615,-4.4615,-4.4542,-4.4384,-4.4542,0.0,0.0,0.0,0.0,0.0,-4.1024,0.0,0.0,0.0,-4.0413,-4.0228,-3.9705,-3.9339,-3.897,-3.7908,-3.7415,-3.7215,-3.6676,-3.6492,-3.6492,-3.6492,-3.6492,-3.6492,-3.6492,-3.6846,-3.7208,-3.7208,-3.7533,-3.7924,-3.7924,-3.801,-3.8124,-3.8124,-3.8574,-3.9001,-3.9001,-3.9391,-3.9705,-3.9705,-3.9705,-3.9575,-3.9109,-3.9001,0.0,0.0,-3.8238,-3.8193,-3.7953,-3.7193,-3.6816,-3.7164,-3.6785,-3.6492,-3.6492,-3.6492,-3.646,-3.6352,-3.7089,-3.7628,-3.7879,0.0,0.0,0.0,0.0,-3.6016,-3.4675,0.0,-3.4397,-3.4397,-3.4397,-3.4397,-3.4397,-3.4397,-3.4397,-3.4397,-3.4397,-3.4397,-3.4397,-3.4397,-3.4397,-3.4397,-3.4397,-3.4397,-3.4397,-3.4397,-3.4397,-3.4397,-4.9001,-4.9001,-4.9001,-4.9001,-4.9001,-4.9001,-4.9001,-4.9001,-4.9001,-4.9001,-4.9001,-4.8697,-4.7872,-4.7192,-4.6481,-4.5669,-4.4976,-4.4615,-4.4615,-4.4615,-4.4615,-4.4615,-4.4615,-4.4615,-4.4615,-4.4615,-4.4281,-4.3601,-4.4281,-4.396,0.0,0.0,0.0,0.0,0.0,0.0,0.0,-4.0489,-4.0136,-3.9582,-3.9521,-3.8785,-3.7677,-3.7554,-3.7123,-3.6584,-3.6507,-3.6492,-3.6492,-3.6492,-3.6492,-3.6492,-3.6492,-3.6554,-3.6569,-3.6569,-3.6631,-3.6662,-3.6662,-3.7058,-3.749,-3.749,-3.794,-3.8362,-3.8362,-3.8418,-3.8474,-3.8474,-3.8474,-3.8446,-3.839,-3.8362,-3.8181,0.0,0.0,-3.7924,-3.6831,-3.7028,-3.7118,-3.6631,-3.6523,-3.6492,-3.6492,-3.6492,-3.6289,-3.5816,-3.6757,-3.7507,-3.7879,0.0,0.0,-3.8075,-3.661,-3.5749,-3.5588,-3.4799,-3.4397,-3.4397,-3.4397,-3.4397,-3.4397,-3.4397,-3.4397,-3.4397,-3.4397,-3.4397,-3.4397,-3.4397,-3.4397,-3.4397,-3.4397,-3.4397,-3.4397,-3.4397,-3.4397,-3.4397,-4.9001,-4.9001,-4.9001,-4.9001,-4.8625,-4.8338,-4.8338,-4.7967,-4.7671,-4.7671,-4.845,-4.8731,-4.7973,-4.6878,-4.5912,-4.5163,-4.4394,-4.3752,-4.338,-4.3722,-4.3752,-4.335,-4.335,-4.335,-4.335,-4.335,-4.3183,-4.2892,-4.3183,-4.3061,0.0,0.0,0.0,0.0,0.0,-4.0489,-4.0459,-4.0059,-3.9736,-3.9447,-3.8631,-3.7984,-3.7461,-3.7046,-3.6722,-3.6492,-3.6492,-3.6492,-3.6492,-3.6352,-3.6383,-3.6492,-3.6492,-3.6492,-3.6492,-3.6492,-3.6492,-3.6492,-3.6492,-3.6662,-3.6861,-3.6861,-3.7312,-3.7767,-3.7767,-3.8039,-3.8306,-3.8306,-3.801,-3.7767,-3.7767,-3.7767,-3.7562,-3.6952,0.0,-3.746,-3.6631,-3.6723,-3.6785,-3.6523,-3.6492,-3.646,-3.6352,-3.6414,-3.6226,-3.5576,-3.6742,-3.7237,0.0,0.0,0.0,-3.6741,0.0,-3.5467,-3.4909,-3.4551,-3.4397,-3.4397,-3.4397,-3.4397,-3.4397,-3.4397,-3.4397,-3.4397,-3.4397,-3.4397,-3.4397,-3.4397,-3.4397,-3.4397,-3.4397,-3.4397,-3.4397,-3.4397,-3.4397,-3.4397,-4.8354,-4.8354,-4.8354,-4.8354,-4.7934,-4.7589,-4.7589,-4.7153,-4.6811,-4.6811,-4.7704,-4.8154,-4.7621,-4.6311,-4.5283,-4.4741,-4.3786,-4.3015,-4.2552,-4.2953,-4.2984,-4.252,-4.252,-4.252,-4.252,-4.252,-4.2379,-4.2205,-4.2379,0.0,0.0,0.0,0.0,0.0,-4.047,-4.0313,-4.0098,-3.9588,-3.9143,-3.8731,-3.7747,-3.7241,-3.7043,-3.6551,-3.6367,-3.6367,-3.6367,-3.6367,-3.632,-3.6179,-3.6258,-3.6367,-3.6367,-3.6429,-3.6492,-3.6414,-3.646,-3.6492,-3.6492,-3.6492,-3.6492,-3.6492,-3.6816,-3.7134,-3.7134,-3.7445,-3.778,-3.778,-3.7431,-3.7134,-3.7134,-3.7134,-3.7013,-3.6585,0.0,0.0,-3.6554,-3.6492,-3.6492,-3.6492,-3.6492,-3.6414,-3.6211,-3.6352,-3.6116,-3.5415,-3.6424,-3.6737,0.0,0.0,0.0,0.0,0.0,0.0,-3.4397,-3.4397,-3.4397,-3.4397,-3.4397,-3.4397,-3.4397,-3.4397,-3.4397,-3.4397,-3.4397,-3.4397,-3.4397,-3.4397,-3.4397,-3.4397,-3.4397,-3.4397,-3.4397,-3.4397,-3.4397,-3.4397,-4.6811,-4.6811,-4.6811,-4.6811,-4.6811,-4.6811,-4.6811,-4.6811,-4.6811,-4.6811,-4.6828,-4.6811,-4.6795,-4.5566,-4.4707,-4.4691,-4.3346,-4.252,-4.252,-4.252,-4.252,-4.252,-4.252,-4.252,-4.252,-4.252,-4.2173,-4.1525,-4.2173,0.0,-4.0524,0.0,-4.0489,-4.0489,-4.0366,-3.9929,-3.9317,-3.9067,-3.8324,-3.722,-3.7073,-3.6694,-3.6179,-3.6068,-3.6005,-3.6005,-3.6005,-3.6005,-3.6005,-3.6005,-3.6005,-3.6005,-3.6005,-3.6226,-3.646,-3.6274,-3.6352,-3.6492,-3.6492,-3.6492,-3.6492,-3.6492,-3.6523,-3.6523,-3.6523,-3.6523,-3.6523,-3.6523,-3.6523,-3.6523,-3.6523,-3.6523,-3.6523,-3.6492,0.0,0.0,-3.6492,-3.6492,-3.6492,-3.6492,-3.6492,-3.6414,-3.6211,-3.6196,-3.5911,-3.5267,-3.5587,-3.5834,0.0,0.0,0.0,-3.5709,-3.4868,0.0,-3.4397,-3.4397,-3.4397,-3.4397,-3.4397,-3.4397,-3.4397,-3.4397,-3.4397,-3.4397,-3.4397,-3.4397,-3.4397,-3.4397,-3.4397,-3.4397,-3.4397,-3.4397,-3.4397,-3.4397,-3.4397,-3.4397,-4.6604,-4.6708,-4.6811,-4.6811,-4.6394,-4.604,-4.604,-4.5624,-4.5311,-4.5311,-4.5311,-4.5311,-4.5311,-4.4519,-4.4022,-4.4022,-4.2681,-4.1608,-4.1176,-4.1542,-4.1608,-4.1158,-4.1158,-4.1158,-4.1158,-4.1158,-4.1024,-4.0802,0.0,0.0,0.0,-4.0489,-4.0455,-4.0366,-4.0312,-3.986,-3.9051,-3.8542,-3.7828,-3.7027,-3.6506,-3.6219,-3.6068,-3.6005,-3.6005,-3.6005,-3.6005,-3.6005,-3.5973,-3.5831,-3.5894,-3.5941,-3.5748,-3.5893,-3.6132,-3.6068,-3.61,-3.6163,-3.6163,-3.6163,-3.6163,-3.6163,-3.6163,-3.6195,-3.6274,-3.6305,-3.6274,-3.6163,-3.6163,-3.6163,-3.6163,-3.6163,-3.6163,-3.6163,-3.6163,0.0,-3.6163,-3.6163,-3.6163,-3.6163,-3.6163,-3.6068,-3.5879,-3.599,-3.5722,-3.4911,-3.5196,0.0,0.0,0.0,0.0,0.0,-3.4551,0.0,-3.4397,-3.4397,-3.4397,-3.4397,-3.4397,-3.4397,-3.4397,-3.4397,-3.4397,-3.4397,-3.4397,-3.4397,-3.4397,-3.4397,-3.4397,-3.4397,-3.4397,-3.4397,-3.4397,-3.4397,-3.4397,-3.4397,-4.5572,-4.5717,-4.5861,-4.5861,-4.5551,-4.5274,-4.5179,-4.4783,-4.4511,-4.4511,-4.4435,-4.4396,-4.4473,-4.3634,0.0,-4.3275,-4.1956,-4.0972,-4.0524,-4.0904,-4.0922,-4.0524,-4.0489,-4.0489,-4.0489,-4.0489,0.0,-4.0489,-4.0489,-4.0489,-4.0489,-4.047,-4.0366,-4.0312,-4.0121,-3.9636,-3.8849,-3.8096,-3.7431,-3.6816,-3.6101,-3.5846,-3.5863,-3.5814,-3.5797,-3.5797,-3.5797,-3.5797,-3.5797,-3.5653,-3.5701,-3.5765,-3.5569,-3.5651,-3.5829,-3.5863,-3.5941,-3.6005,-3.6005,-3.6005,-3.6005,-3.6005,-3.6005,-3.6037,-3.6116,-3.6116,-3.6085,-3.6037,-3.6005,-3.6005,-3.6005,-3.6005,-3.6005,-3.6005,-3.6005,-3.6005,-3.6005,-3.6005,-3.6005,-3.6005,-3.6005,-3.5926,0.0,-3.6025,-3.5884,-3.4971,-3.5234,0.0,0.0,0.0,0.0,-3.4397,-3.4397,-3.4397,-3.4397,-3.4397,-3.4397,-3.4397,-3.4397,-3.4397,-3.4397,-3.4397,-3.4397,-3.4397,-3.4397,-3.4397,-3.4397,-3.4397,-3.4397,-3.4397,-3.4397,-3.4397,-3.4397,-3.4397,-3.4397,-3.4397,-4.3988,-4.4127,-4.4281,-4.4281,-4.4435,-4.4496,-4.432,-4.4281,-4.4281,-4.4281,-4.4104,-4.405,-4.4243,-4.2902,-4.2147,-4.2529,0.0,0.0,-4.047,-4.0489,-4.0489,-4.0489,-4.0489,-4.0489,-4.0489,-4.0455,-4.047,-4.047,-4.047,-4.047,-4.0455,-4.0331,-4.0277,-4.0242,-3.9874,-3.932,-3.8622,-3.7758,-3.7098,-3.6601,-3.5824,-3.5572,-3.5671,-3.5554,-3.5504,-3.5504,-3.5504,-3.5504,-3.5504,-3.5504,-3.5504,-3.5504,-3.5504,-3.5504,-3.5522,-3.5638,-3.5799,-3.5973,-3.5973,-3.5973,-3.5973,-3.5973,-3.5973,-3.5973,-3.5973,-3.5973,-3.5973,-3.5973,-3.5973,-3.5973,-3.5973,-3.5973,-3.5973,-3.5973,-3.5973,-3.5988,-3.6034,-3.6034,-3.6064,-3.6078,0.0,0.0,-3.5823,-3.6345,-3.6272,0.0,-3.558,0.0,0.0,0.0,-3.4397,-3.4397,-3.4397,-3.4397,-3.4397,-3.4397,-3.4397,-3.4397,-3.4397,-3.4397,-3.4397,-3.4397,-3.4397,-3.4397,-3.4397,-3.4397,-3.4397,-3.4397,-3.4397,-3.4397,-3.4397,-3.4397,-3.4397,-3.4397,-3.4397,-3.4397,0.0,0.0,-4.4127,-4.4281,-4.4205,-4.4166,-4.4281,-4.4166,-4.4065,-4.4065,-4.4026,-4.4026,-4.4065,-4.2826,-4.2036,-4.2147,-4.0913,-4.0137,-4.0137,-4.0261,-4.0347,-4.0347,-4.0347,-4.0347,-4.0347,-4.0207,-4.0137,-4.0137,-4.0137,-4.0137,-4.0101,-4.0101,-3.9996,-3.9839,-3.9753,-3.9234,-3.8417,-3.7689,-3.7079,-3.6499,-3.5774,-3.5537,-3.5554,-3.5504,-3.5504,-3.5504,-3.5504,-3.5504,-3.5504,-3.5504,-3.5504,-3.5504,-3.5504,-3.5504,-3.5504,-3.5554,-3.5587,-3.5619,-3.5619,-3.5619,-3.5619,-3.5619,-3.5686,-3.5735,-3.5651,-3.5686,-3.5735,-3.5651,-3.5619,-3.5619,-3.5619,-3.5619,-3.5619,-3.5619,-3.5619,-3.5799,-3.631,-3.637,-3.655,0.0,-3.7091,-3.7042,-3.7008,-3.6581,-3.6142,0.0,0.0,-3.4819,-3.4479,-3.4444,-3.4397,-3.4397,-3.4397,-3.4397,-3.4397,-3.4397,-3.4397,-3.4397,-3.4397,-3.4397,-3.4397,-3.4397,-3.4397,-3.4397,-3.4397,-3.4397,-3.4397,-3.4397,-3.4397,-3.4397,-3.4397,-3.4397,-3.4397,-3.4397,-3.4397,-3.4397,-4.3518,-4.3714,-4.391,-4.4026,-4.4026,-4.4026,-4.4026,-4.3949,-4.3871,-4.3871,-4.3754,-4.3738,-4.3832,-4.2561,-4.1723,-4.1723,-4.0661,-4.0011,-4.0011,-4.0101,-4.0172,-4.0172,-4.0172,-4.0172,-4.0172,-4.0081,-4.0011,-4.0011,-4.0011,-4.0011,-4.0011,-3.9925,-3.9803,-3.9696,-3.9589,-3.9307,-3.8796,-3.7823,-3.721,-3.6821,-3.5878,-3.5504,-3.5504,-3.5504,-3.5504,-3.5504,-3.5504,-3.5504,-3.5504,-3.5504,-3.5504,-3.5504,-3.5504,-3.5504,-3.5504,-3.5504,-3.5504,-3.5504,-3.5504,-3.5504,-3.5504,-3.5504,-3.5539,-3.5604,-3.5537,-3.5554,-3.5604,-3.5537,-3.5504,-3.5504,-3.5504,-3.5504,-3.5504,-3.5504,-3.5759,-3.6073,-3.6432,-3.6731,-3.703,-3.7375,-3.708,-3.6856,-3.6856,-3.6382,-3.5877,-3.5394,-3.5215,0.0,-3.4426,-3.4397,-3.4397,-3.4397,-3.4397,-3.4397,-3.4397,-3.4397,-3.4397,-3.4397,-3.4397,-3.4397,-3.4397,-3.4397,-3.4397,-3.4397,-3.4397,-3.4397,-3.4397,-3.4397,-3.4397,-3.4397,-3.4397,-3.4397,-3.4397,-3.4397,-3.4397,-3.4397,-4.329,-4.3463,-4.3651,-4.369,-4.3793,-4.3871,-4.3729,-4.369,-4.3636,-4.3636,-4.3423,-4.3384,-4.3596,-4.2293,-4.1422,-4.1422,-4.048,-3.9905,-3.9905,-3.9925,-3.996,-3.996,-3.996,-3.996,-3.996,-3.9925,-3.9905,-3.9905,-3.9905,-3.9905,-3.9905,-3.9732,-3.9646,-3.9661,-3.9496,-3.9388,-3.9298,-3.7973,-3.7404,-3.73,-3.6013,-3.5504,-3.5504,-3.5504,-3.5504,-3.5504,-3.5504,-3.5504,-3.5504,-3.5504,-3.5504,-3.5504,-3.5504,-3.5504,-3.5504,-3.5504,-3.5504,-3.5504,-3.5504,-3.5504,-3.5504,-3.5504,-3.5504,-3.5504,-3.5504,-3.5504,-3.5504,-3.5504,-3.5504,-3.5504,-3.5504,-3.5504,-3.5534,-3.5639,-3.6018,-3.6369,-3.6563,0.0,-3.7377,-3.7327,-3.6833,-3.6461,-3.6317,-3.6038,-3.5585,-3.4909,-3.5264,-3.5196,-3.4439,-3.4397,-3.4397,-3.4397,-3.4397,-3.4397,-3.4397,-3.4397,-3.4397,-3.4397,-3.4397,-3.4397,-3.4397,-3.4397,-3.4397,-3.4397,-3.4397,-3.4397,-3.4397,-3.4397,-3.4397,-3.4397,-3.4397,-3.4397,-3.4397,-3.4397,-3.4397,-3.4397,-4.329,-4.3329,-4.3423,-4.3651,-4.3542,-4.3463,-4.369,-4.3518,-4.3384,-4.3384,-4.3329,-4.3329,-4.3384,-4.2201,-4.1422,-4.1422,-4.0209,-3.9496,-3.9496,-3.9661,-3.9768,-3.9768,-3.9768,-3.9768,-3.9768,-3.9604,-3.9496,-3.9496,-3.9496,-3.9496,-3.9496,-3.9445,-3.946,-3.946,-3.9409,-3.9388,-3.9298,-3.7973,-3.7404,-3.73,-3.6013,-3.5504,-3.5504,-3.5504,-3.5504,-3.5504,-3.5504,-3.5504,-3.5504,-3.5504,-3.5504,-3.5504,-3.5504,-3.5504,-3.5504,-3.5504,-3.5504,-3.5504,-3.5504,-3.5504,-3.5504,-3.5504,-3.5504,-3.5504,-3.5504,-3.5504,-3.5504,-3.5504,-3.5504,-3.5504,-3.5504,-3.5504,-3.5684,-3.6237,-3.5819,-3.5796,-3.6945,0.0,-3.7171,-3.7002,-3.7532,-3.7607,-3.6868,-3.6152,-3.568,-3.5573,-3.4938,-3.4551,-3.4397,-3.4397,-3.4397,-3.4397,-3.4397,-3.4397,-3.4397,-3.4397,-3.4397,-3.4397,-3.4397,-3.4397,-3.4397,-3.4397,-3.4397,-3.4397,-3.4397,-3.4397,-3.4397,-3.4397,-3.4397,-3.4397,-3.4397,-3.4397,-3.4397,-3.4397,-3.4397,-3.4397,-4.329,-4.329,-4.3329,-4.3463,-4.3384,-4.3329,-4.3463,-4.3384,-4.329,-4.329,-4.329,-4.329,-4.329,-4.2476,-4.1796,-4.1414,-4.0502,-3.9798,-3.9403,-3.9481,-3.9553,-3.9553,-3.9553,-3.9553,-3.9553,-3.946,-3.9388,-3.9388,-3.9388,-3.9388,-3.9388,-3.9388,-3.9388,-3.9388,-3.9388,-3.9388,-3.9298,-3.7973,-3.7404,-3.73,-3.6013,-3.5504,-3.5504,-3.5504,-3.5504,-3.5504,-3.5504,-3.5504,-3.5504,-3.5504,-3.5504,-3.5504,-3.5504,-3.5504,-3.5504,-3.5504,-3.5504,-3.5504,-3.5504,-3.5504,-3.5504,-3.5504,-3.5504,-3.5504,-3.5504,-3.5504,-3.5504,-3.5504,-3.5504,-3.5359,-3.4938,-3.5133,-3.5287,-3.5221,-3.5404,0.0,-3.6422,-3.6792,-3.6992,-3.693,-3.6869,-3.6688,-3.6281,-3.5494,-3.4991,-3.4991,-3.4634,-3.4397,-3.4397,-3.4397,-3.4397,-3.4397,-3.4397,-3.4397,-3.4397,-3.4397,-3.4397,-3.4397,-3.4397,-3.4397,-3.4397,-3.4397,-3.4397,-3.4397,-3.4397,-3.4397,-3.4397,-3.4397,-3.4397,-3.4397,-3.4397,-3.4397,-3.4397,-3.4397,-3.4397,-3.4397,-4.329,-4.329,-4.329,-4.329,-4.329,-4.329,-4.329,-4.329,-4.329,-4.329,-4.329,-4.329,-4.329,-4.2746,-4.2126,-4.1482,-4.0786,-4.0127,-3.9433,-3.9388,-3.9388,-3.9388,-3.9388,-3.9388,-3.9388,-3.9388,-3.9388,-3.9388,-3.9388,-3.9388,-3.9388,-3.9388,-3.9388,-3.9388,-3.9388,-3.9388,-3.9298,-3.7973,-3.7404,-3.73,-3.6013,-3.5504,-3.5504,-3.5504,-3.5504,-3.5504,-3.5504,-3.5504,-3.5504,-3.5504,-3.5504,-3.5504,-3.5504,-3.5504,-3.5504,-3.5504,-3.5504,-3.5504,-3.5504,-3.5504,-3.5504,-3.5504,-3.5504,-3.5504,-3.5504,-3.5504,-3.5439,-3.5246,-3.5213,-3.4986,-3.4177,-3.454,-3.4803,-3.4409,0.0,-3.568,0.0,-3.6289,-3.6543,-3.6346,-3.5963,-3.5629,-3.5426,-3.4799,-3.4397,-3.4397,-3.4397,-3.4397,-3.4397,-3.4397,-3.4397,-3.4397,-3.4397,-3.4397,-3.4397,-3.4397,-3.4397,-3.4397,-3.4397,-3.4397,-3.4397,-3.4397,-3.4397,-3.4397,-3.4397,-3.4397,-3.4397,-3.4397,-3.4397,-3.4397,-3.4397,-3.4397,-3.4397,-3.4397,-3.4397,-3.4397,-4.329,-4.329,-4.329,-4.329,-4.329,-4.329,-4.329,-4.329,-4.329,-4.329,-4.329,-4.329,-4.329,-4.2746,-4.2126,-4.1482,-4.0786,-4.0127,-3.9433,-3.9388,-3.9388,-3.9388,-3.9388,-3.9388,-3.9388,-3.9388,-3.9388,-3.9388,-3.9388,-3.9388,-3.9388,-3.9388,-3.9388,-3.9388,-3.9388,-3.9388,-3.9298,-3.7973,-3.7404,-3.73,-3.6013,-3.5504,-3.5504,-3.5504,-3.5504,-3.5504,-3.5504,-3.5504,-3.5504,-3.5504,-3.5504,-3.5504,-3.5504,-3.5504,-3.5504,-3.5504,-3.5504,-3.5504,-3.5504,-3.5504,-3.5504,-3.5504,-3.5504,-3.5504,-3.5504,-3.5504,-3.5279,-3.4528,-3.438,-3.4177,-3.3422,-3.3754,-3.4373,-3.4927,0.0,0.0,-3.564,-3.5749,-3.5507,-3.4675,-3.5223,-3.5386,-3.4551,-3.4439,-3.4397,-3.4397,-3.4397,-3.4397,-3.4397,-3.4397,-3.4397,-3.4397,-3.4397,-3.4397,-3.4397,-3.4397,-3.4397,-3.4397,-3.4397,-3.4397,-3.4397,-3.4397,-3.4397,-3.4397,-3.4397,-3.4397,-3.4397,-3.4397,-3.4397,-3.4397,-3.4397,-3.4397,-3.4397,-3.4397,-3.4397,-3.4397,-4.329,-4.329,-4.329,-4.329,-4.329,-4.329,-4.329,-4.329,-4.329,-4.329,-4.329,-4.329,-4.329,-4.312,-4.2536,-4.1474,-4.1145,-4.0561,-3.9448,-3.9388,-3.9388,-3.9388,-3.9388,-3.9388,-3.9388,-3.9388,-3.9388,-3.9388,-3.9388,-3.9388,-3.9388,-3.9388,-3.9388,-3.9388,-3.9388,-3.9388,-3.9328,-3.8422,-3.7778,-3.7345,-3.6462,-3.5863,-3.5504,-3.5504,-3.5504,-3.5504,-3.5504,-3.5504,-3.5504,-3.5504,-3.5504,-3.5504,-3.5504,-3.5504,-3.5504,-3.5504,-3.5504,-3.5392,-3.4905,-3.5133,-3.5504,-3.5504,-3.5504,-3.5504,-3.5504,-3.5504,-3.5279,-3.4461,-3.4312,-3.4054,-3.3232,-3.3555,-3.397,-3.4146,0.0,-3.4616,-3.4841,-3.4868,-3.4758,-3.4439,-3.4675,-3.4758,-3.4439,-3.4397,-3.4397,-3.4397,-3.4397,-3.4397,-3.4397,-3.4397,-3.4397,-3.4397,-3.4397,-3.4397,-3.4397,-3.4397,-3.4397,-3.4397,-3.4397,-3.4397,-3.4397,-3.4397,-3.4397,-3.4397,-3.4397,-3.4397,-3.4397,-3.4397,-3.4397,-3.4397,-3.4397,-3.4397,-3.4397,-3.4397,-3.4397,-3.4397,-4.329,-4.329,-4.329,-4.329,-4.329,-4.329,-4.329,-4.329,-4.329,-4.329,-4.329,-4.329,-4.329,-4.329,-4.2806,-4.1489,-4.1422,-4.0816,-3.9514,-3.9388,-3.9388,-3.9388,-3.9388,-3.9388,-3.9388,-3.9388,-3.9388,-3.9388,-3.9388,-3.9388,-3.9388,-3.9388,-3.9388,-3.9388,-3.9388,-3.9388,-3.9379,-3.8676,-3.8003,-3.736,-3.6731,-3.6088,-3.5504,-3.5504,-3.5504,-3.5504,-3.5504,-3.5504,-3.5504,-3.5504,-3.5504,-3.5504,-3.5504,-3.5504,-3.5504,-3.5504,-3.5504,-3.5311,-3.4528,-3.471,-3.5133,-3.5133,-3.4968,-3.4902,-3.5392,-3.5115,-3.4664,-3.4301,-3.4054,-3.3691,-3.3022,-3.3374,-3.3727,-3.3603,-3.4045,-3.4397,-3.4397,-3.4397,-3.4397,-3.4397,-3.4397,-3.4397,-3.4397,-3.4397,-3.4397,-3.4397,-3.4397,-3.4397,-3.4397,-3.4397,-3.4397,-3.4397,-3.4397,-3.4397,-3.4397,-3.4397,-3.4397,-3.4397,-3.4397,-3.4397,-3.4397,-3.4397,-3.4397,-3.4397,-3.4397,-3.4397,-3.4397,-3.4397,-3.4397,-3.4397,-3.4397,-3.4397,-3.4397,-3.4397,-3.4397,-3.4397,-4.329,-4.329,-4.329,-4.329,-4.329,-4.329,-4.329,-4.329,-4.329,-4.329,-4.329,-4.329,-4.329,-4.329,-4.2806,-4.1489,-4.1422,-4.0816,-3.9514,-3.9388,-3.9388,-3.9388,-3.9388,-3.9388,-3.9388,-3.9388,-3.9388,-3.9388,-3.9388,-3.9388,-3.9388,-3.9388,-3.9388,-3.9388,-3.9388,-3.9388,-3.9379,-3.8691,-3.8018,-3.736,-3.6746,-3.6103,-3.5519,-3.5504,-3.5504,-3.5504,-3.5504,-3.5504,-3.5504,-3.5504,-3.5504,-3.5504,-3.5504,-3.5504,-3.5504,-3.5504,-3.5504,-3.5311,-3.4509,-3.4279,-3.4279,-3.4312,-3.3768,-3.3624,-3.5162,-3.4337,-3.3375,-3.3978,-3.3514,-3.2936,-3.2738,-3.3195,-3.3587,-3.36,-3.4045,-3.4397,-3.4397,-3.4397,-3.4397,-3.4397,-3.4397,-3.4397,-3.4397,-3.4397,-3.4397,-3.4397,-3.4397,-3.4397,-3.4397,-3.4397,-3.4397,-3.4397,-3.4397,-3.4397,-3.4397,-3.4397,-3.4397,-3.4397,-3.4397,-3.4397,-3.4397,-3.4397,-3.4397,-3.4397,-3.4397,-3.4397,-3.4397,-3.4397,-3.4397,-3.4397,-3.4397,-3.4397,-3.4397,-3.4397,-3.4397,-3.4397,-4.329,-4.329,-4.329,-4.329,-4.329,-4.329,-4.329,-4.329,-4.329,-4.329,-4.329,-4.329,-4.329,-4.329,-4.2806,-4.1489,-4.1422,-4.0816,-3.9514,-3.9388,-3.9388,-3.9388,-3.9388,-3.9388,-3.9388,-3.9388,-3.9388,-3.9388,-3.9388,-3.9388,-3.9388,-3.9388,-3.9388,-3.9388,-3.9388,-3.9388,-3.9373,-3.92,-3.8721,-3.8033,-3.7389,-3.6761,-3.6148,-3.5684,-3.5504,-3.5504,-3.5504,-3.5504,-3.5504,-3.5504,-3.5504,-3.5504,-3.5504,-3.5504,-3.5392,-3.4824,-3.4643,-3.4462,-3.3605,-3.3384,-3.3547,-3.4142,-3.451,-3.4773,-3.521,-3.5302,-3.5046,-3.4107,-3.3696,-3.3517,-3.3369,-3.347,-3.3718,-3.4097,-3.4293,-3.4397,-3.4397,-3.4397,-3.4397,-3.4397,-3.4397,-3.4397,-3.4397,-3.4397,-3.4397,-3.4397,-3.4397,-3.4397,-3.4397,-3.4397,-3.4397,-3.4397,-3.4397,-3.4397,-3.4397,-3.4397,-3.4397,-3.4397,-3.4397,-3.4397,-3.4397,-3.4397,-3.4397,-3.4397,-3.4397,-3.4397,-3.4397,-3.4397,-3.4397,-3.4397,-3.4397,-3.4397,-3.4397,-3.4397,-3.4397,-3.4397,-4.329,-4.329,-4.329,-4.329,-4.329,-4.329,-4.329,-4.329,-4.329,-4.329,-4.329,-4.329,-4.329,-4.329,-4.2871,-4.1901,-4.1294,-4.0546,-3.9448,-3.9388,-3.9388,-3.9388,-3.9388,-3.9388,-3.9388,-3.9388,-3.9388,-3.9388,-3.9388,-3.9388,-3.9388,-3.9388,-3.9388,-3.9388,-3.9388,-3.9388,-3.9388,-3.9388,-3.902,-3.8347,-3.7958,-3.727,-3.6447,-3.6043,-3.5729,-3.5504,-3.5504,-3.5504,-3.5504,-3.5504,-3.5504,-3.5504,-3.5504,-3.5504,-3.5371,-3.4816,-3.467,-3.4456,-3.3559,-3.3325,-3.3455,-3.3956,-3.4175,-3.4419,-3.4975,-3.4947,-3.4691,-3.4229,-3.3908,-3.3754,-3.3878,-3.3914,-3.4018,-3.4345,-3.4397,-3.4397,-3.4397,-3.4397,-3.4397,-3.4397,-3.4397,-3.4397,-3.4397,-3.4397,-3.4397,-3.4397,-3.4397,-3.4397,-3.4397,-3.4397,-3.4397,-3.4397,-3.4397,-3.4397,-3.4397,-3.4397,-3.4397,-3.4397,-3.4397,-3.4397,-3.4397,-3.4397,-3.4397,-3.4397,-3.4397,-3.4397,-3.4397,-3.4397,-3.4397,-3.4397,-3.4397,-3.4356,-3.4272,-3.4272,-3.4272,-3.4285,-4.329,-4.329,-4.329,-4.329,-4.329,-4.329,-4.329,-4.329,-4.329,-4.329,-4.329,-4.329,-4.329,-4.329,-4.3075,-4.2455,-4.116,-4.0127,-3.9433,-3.9388,-3.9388,-3.9388,-3.9388,-3.9388,-3.9388,-3.9388,-3.9388,-3.9388,-3.9388,-3.9388,-3.9388,-3.9388,-3.9388,-3.9388,-3.9388,-3.9388,-3.9388,-3.9388,-3.905,-3.8482,-3.8407,-3.7689,-3.6656,-3.6596,-3.6163,-3.5594,-3.5594,-3.5549,-3.5519,-3.5579,-3.5594,-3.5609,-3.5654,-3.5603,-3.5543,-3.533,-3.5247,-3.4989,-3.4152,-3.3896,-3.3871,-3.3862,-3.333,-3.3198,-3.4554,-3.3885,-3.3291,-3.4445,-3.4153,-3.3809,-3.4306,-3.4397,-3.4397,-3.4397,-3.4397,-3.4397,-3.4397,-3.4397,-3.4397,-3.4397,-3.4397,-3.4397,-3.4397,-3.4397,-3.4397,-3.4397,-3.4397,-3.4397,-3.4397,-3.4397,-3.4397,-3.4397,-3.4397,-3.4397,-3.4397,-3.4397,-3.4397,-3.4397,-3.4397,-3.4397,-3.4397,-3.4397,-3.4397,-3.4397,-3.4397,-3.4397,-3.4397,-3.4397,-3.4397,-3.4397,-3.4397,-3.4272,-3.4118,-3.4118,-3.4118,-3.4076,-4.329,-4.329,-4.329,-4.329,-4.329,-4.329,-4.329,-4.329,-4.329,-4.329,-4.329,-4.329,-4.329,-4.329,-4.3075,-4.2455,-4.116,-4.0127,-3.9433,-3.9388,-3.9388,-3.9388,-3.9388,-3.9388,-3.9388,-3.9388,-3.9388,-3.9388,-3.9388,-3.9388,-3.9388,-3.9388,-3.9388,-3.9388,-3.9388,-3.9388,-3.9388,-3.9388,-3.9334,-3.9155,-3.8601,-3.8227,-3.7928,-3.7404,-3.6821,-3.6267,-3.6267,-3.5953,-3.5579,-3.6103,-3.6267,-3.6357,-3.6851,-3.6576,-3.6056,-3.6046,-3.5626,-3.5026,-3.4692,-3.4597,-3.4549,-3.4309,-3.4142,-3.4146,-3.4639,-3.491,-3.4929,-3.4546,-3.4339,-3.4254,-3.4384,-3.4397,-3.4397,-3.4397,-3.4397,-3.4397,-3.4397,-3.4397,-3.4397,-3.4397,-3.4397,-3.4397,-3.4397,-3.4397,-3.4397,-3.4397,-3.4397,-3.4397,-3.4397,-3.4397,-3.4397,-3.4397,-3.4397,-3.4397,-3.4397,-3.4397,-3.4397,-3.4397,-3.4397,-3.4397,-3.4397,-3.4397,-3.4397,-3.4397,-3.4397,-3.4397,-3.4397,-3.4397,-3.4397,-3.4397,-3.4397,-3.4356,-3.4314,-3.4314,-3.4314,-3.4189,-4.329,-4.329,-4.329,-4.329,-4.329,-4.329,-4.329,-4.329,-4.329,-4.329,-4.329,-4.329,-4.329,-4.329,-4.294,-4.2006,-4.1265,-4.0457,-3.9448,-3.9388,-3.9388,-3.9388,-3.9388,-3.9388,-3.9388,-3.9388,-3.9388,-3.9388,-3.9388,-3.9388,-3.9388,-3.9388,-3.9388,-3.9388,-3.9388,-3.9388,-3.9388,-3.9388,-3.9388,-3.9394,-3.9035,-3.8691,-3.8347,-3.8003,-3.7479,-3.6926,-3.6926,-3.6701,-3.6462,-3.6806,-3.6926,-3.6985,-3.73,-3.7114,-3.6775,-3.6728,-3.6417,-3.6068,-3.5878,-3.5497,-3.5196,-3.5075,-3.4716,-3.4444,-3.4524,-3.4819,-3.495,-3.4481,-3.4397,-3.4397,-3.4397,-3.4397,-3.4397,-3.4397,-3.4397,-3.4397,-3.4397,-3.4397,-3.4397,-3.4397,-3.4397,-3.4397,-3.4397,-3.4397,-3.4397,-3.4397,-3.4397,-3.4397,-3.4397,-3.4397,-3.4397,-3.4397,-3.4397,-3.4356,-3.4285,-3.4285,-3.4189,-3.4063,-3.4189,-3.4285,-3.4243,-3.4105,-3.4063,-3.4063,-3.4063,-3.4063,-3.4063,-3.4063,-3.4063,-3.4063,-3.4063,-3.4063,-3.4021,-3.3725,-3.3232,-3.2605,-4.329,-4.329,-4.329,-4.329,-4.329,-4.329,-4.329,-4.329,-4.329,-4.329,-4.329,-4.329,-4.329,-4.329,-4.2806,-4.1489,-4.1422,-4.0816,-3.9514,-3.9388,-3.9388,-3.9388,-3.9388,-3.9388,-3.9388,-3.9388,-3.9388,-3.9388,-3.9388,-3.9388,-3.9388,-3.9388,-3.9388,-3.9388,-3.9388,-3.9388,-3.9388,-3.9388,-3.9388,-3.9388,-3.9388,-3.908,-3.8556,-3.8556,-3.8153,-3.7584,-3.7584,-3.7509,-3.7419,-3.7539,-3.7584,-3.7599,-3.7719,-3.7645,-3.7525,-3.7557,-3.7485,-3.7292,-3.6985,-3.6425,-3.5856,-3.5548,-3.4909,-3.4397,-3.4397,-3.4397,-3.4397,-3.4397,-3.4397,-3.4397,-3.4397,-3.4397,-3.4397,-3.4397,-3.4397,-3.4397,-3.4397,-3.4397,-3.4397,-3.4397,-3.4397,-3.4397,-3.4397,-3.4397,-3.4397,-3.4397,-3.4397,-3.4397,-3.4397,-3.4356,-3.4356,-3.4397,-3.4356,-3.4285,-3.4118,-3.4118,-3.3992,-3.3713,-3.3907,-3.3992,-3.4034,-3.381,-3.3713,-3.3713,-3.3713,-3.3713,-3.3713,-3.3713,-3.3628,-3.3458,-3.3458,-3.336,-3.3134,-3.2587,-3.1613,-3.0576,-4.329,-4.329,-4.329,-4.329,-4.329,-4.329,-4.329,-4.329,-4.329,-4.329,-4.329,-4.329,-4.329,-4.329,-4.2806,-4.1489,-4.1422,-4.0816,-3.9514,-3.9388,-3.9388,-3.9388,-3.9388,-3.9388,-3.9388,-3.9388,-3.9388,-3.9388,-3.9388,-3.9388,-3.9388,-3.9388,-3.9388,-3.9388,-3.9388,-3.9388,-3.9388,-3.9388,-3.9388,-3.9388,-3.9388,-3.9364,-3.9239,-3.9239,-3.8856,-3.8257,-3.8257,-3.7883,-3.7494,-3.8063,-3.8257,-3.8362,-3.896,-3.8656,-3.8215,-3.8905,-3.8605,-3.7884,-3.7098,-3.6802,-3.6385,-3.495,-3.4481,-3.4397,-3.4397,-3.4397,-3.4397,-3.4397,-3.4397,-3.4397,-3.4397,-3.4397,-3.4397,-3.4397,-3.4397,-3.4397,-3.4397,-3.4397,-3.4397,-3.4397,-3.4397,-3.4397,-3.4397,-3.4397,-3.4397,-3.4397,-3.4397,-3.4397,-3.4397,-3.4243,-3.4243,-3.4397,-3.4243,-3.4118,-3.4118,-3.4118,-3.3992,-3.3713,-3.3556,-3.3611,-3.3755,-3.3725,-3.3713,-3.3713,-3.3713,-3.3713,-3.3713,-3.3713,-3.3232,-3.2488,-3.2488,-3.1972,-3.1175,-3.1098,-3.0316,-2.936,-4.329,-4.329,-4.329,-4.329,-4.329,-4.329,-4.329,-4.329,-4.329,-4.329,-4.329,-4.329,-4.329,-4.329,-4.2806,-4.1489,-4.1422,-4.0816,-3.9514,-3.9388,-3.9388,-3.9388,-3.9388,-3.9388,-3.9388,-3.9388,-3.9388,-3.9388,-3.9388,-3.9388,-3.9388,-3.9388,-3.9388,-3.9388,-3.9388,-3.9388,-3.9388,-3.9388,-3.9388,-3.9388,-3.9388,-3.9388,-3.9388,-3.9388,-3.923,-3.896,-3.896,-3.8781,-3.8571,-3.8871,-3.896,-3.902,-3.9334,-3.9156,-3.8922,-3.9301,-3.8811,-3.8127,-3.7744,-3.6947,-3.6042,-3.5305,-3.4758,-3.4397,-3.4397,-3.4397,-3.4397,-3.4397,-3.4397,-3.4397,-3.4397,-3.4397,-3.4397,-3.4397,-3.4397,-3.4397,-3.4397,-3.4397,-3.4397,-3.4397,-3.4397,-3.4397,-3.4397,-3.4397,-3.4397,-3.4397,-3.4397,-3.4397,-3.4397,-3.4314,-3.4285,-3.4243,-3.416,-3.3949,-3.3696,-3.3696,-3.3611,-3.3356,-3.3283,-3.3356,-3.3513,-3.3441,-3.3356,-3.3356,-3.3356,-3.3356,-3.3313,-3.2772,-3.2271,-3.1877,-3.1335,-3.0699,-3.0068,-2.9909,-2.9292,-2.8445]},{"header":{"parameterUnit":"m.s-1","parameterCategory":1,"la1":30.6,"la2":28.766,"lo1":-90.7593,"lo2":-88.6598,"dy":0.0162,"dx":0.0183,"nx":116,"ny":114,"refTime":"2023-05-02T00:00:00:Z","depth":0,"parameterNumber":3,"parameterNumberName":"V-component_of_WINDS"},"data":[0.0,0.0,0.0,0.0,0.0,0.0,0.0,0.0,0.0,0.0,0.0,0.0,0.0,0.0,0.0,0.0,0.0,0.0,0.0,0.0,0.0,0.0,0.0,0.0,0.0,0.0,0.0,0.0,0.0,0.0,0.0,0.0,0.0,0.0,0.0,0.0,0.0,0.0,0.0,0.0,0.0,0.0,0.0,0.0,0.0,0.0,0.0,0.0,0.0,0.0,0.0,0.0,0.0,0.0,0.0,0.0,0.0,0.0,0.0,0.0,0.0,0.0,0.0,0.0,0.0,0.0,0.0,0.0,0.0,0.0,0.0,0.0,0.0,0.0,0.0,0.0,0.0,0.0,0.0,0.0,0.0,0.0,0.0,0.0,0.0,0.0,0.0,0.0,0.0,0.0,0.0,0.0,0.0,0.0,0.0,0.0,0.0,0.0,0.0,0.0,0.0,0.0,0.0,0.0,0.0,0.0,0.0,0.0,0.0,0.0,0.0,0.0,0.0,0.0,0.0,0.0,0.0,0.0,0.0,0.0,0.0,0.0,0.0,0.0,0.0,0.0,0.0,0.0,0.0,0.0,0.0,0.0,0.0,0.0,0.0,0.0,0.0,0.0,0.0,0.0,0.0,0.0,0.0,0.0,0.0,0.0,0.0,0.0,0.0,0.0,0.0,0.0,0.0,0.0,0.0,0.0,0.0,0.0,0.0,0.0,0.0,0.0,0.0,0.0,0.0,0.0,0.0,0.0,0.0,0.0,0.0,0.0,0.0,0.0,0.0,0.0,0.0,0.0,0.0,0.0,0.0,0.0,0.0,0.0,0.0,0.0,0.0,0.0,0.0,0.0,0.0,0.0,0.0,0.0,0.0,0.0,0.0,0.0,0.0,0.0,0.0,0.0,0.0,0.0,0.0,0.0,0.0,0.0,0.0,0.0,0.0,0.0,0.0,0.0,0.0,0.0,0.0,0.0,0.0,0.0,0.0,0.0,0.0,0.0,0.0,0.0,0.0,0.0,0.0,0.0,0.0,0.0,0.0,0.0,0.0,0.0,0.0,0.0,0.0,0.0,0.0,0.0,0.0,0.0,0.0,0.0,0.0,0.0,0.0,0.0,0.0,0.0,0.0,0.0,0.0,0.0,0.0,0.0,0.0,0.0,0.0,0.0,0.0,0.0,0.0,0.0,0.0,0.0,0.0,0.0,0.0,0.0,0.0,0.0,0.0,0.0,0.0,0.0,0.0,0.0,0.0,0.0,0.0,0.0,0.0,0.0,0.0,0.0,0.0,0.0,0.0,0.0,0.0,0.0,0.0,0.0,0.0,0.0,0.0,0.0,0.0,0.0,0.0,0.0,0.0,0.0,0.0,0.0,0.0,0.0,0.0,0.0,0.0,0.0,0.0,0.0,0.0,0.0,0.0,0.0,0.0,0.0,0.0,0.0,0.0,0.0,0.0,0.0,0.0,0.0,0.0,0.0,0.0,0.0,0.0,0.0,0.0,0.0,0.0,0.0,0.0,0.0,0.0,0.0,0.0,0.0,0.0,0.0,0.0,0.0,0.0,0.0,0.0,0.0,0.0,0.0,0.0,0.0,0.0,0.0,0.0,0.0,0.0,0.0,0.0,0.0,0.0,0.0,0.0,0.0,0.0,0.0,0.0,0.0,0.0,0.0,0.0,0.0,0.0,0.0,0.0,0.0,0.0,0.0,0.0,0.0,0.0,0.0,0.0,0.0,0.0,0.0,0.0,0.0,0.0,0.0,0.0,0.0,0.0,0.0,0.0,0.0,0.0,0.0,0.0,0.0,0.0,0.0,0.0,0.0,0.0,0.0,0.0,0.0,0.0,0.0,0.0,0.0,0.0,0.0,0.0,0.0,0.0,0.0,0.0,0.0,0.0,0.0,0.0,0.0,0.0,0.0,0.0,0.0,0.0,0.0,0.0,0.0,0.0,0.0,0.0,0.0,0.0,0.0,0.0,0.0,0.0,0.0,0.0,0.0,0.0,0.0,0.0,0.0,0.0,0.0,0.0,0.0,0.0,0.0,0.0,0.0,0.0,0.0,0.0,0.0,0.0,0.0,0.0,0.0,0.0,0.0,0.0,0.0,0.0,0.0,0.0,0.0,0.0,0.0,0.0,0.0,0.0,0.0,0.0,0.0,0.0,0.0,0.0,0.0,0.0,0.0,0.0,0.0,0.0,0.0,0.0,0.0,0.0,0.0,0.0,0.0,0.0,0.0,0.0,0.0,0.0,0.0,0.0,0.0,0.0,0.0,0.0,0.0,0.0,0.0,0.0,0.0,0.0,0.0,0.0,0.0,0.0,0.0,0.0,0.0,0.0,0.0,0.0,0.0,0.0,0.0,0.0,0.0,0.0,0.0,0.0,0.0,0.0,0.0,0.0,0.0,0.0,0.0,0.0,0.0,0.0,0.0,0.0,0.0,0.0,0.0,0.0,0.0,0.0,0.0,0.0,0.0,0.0,0.0,0.0,0.0,0.0,0.0,0.0,0.0,0.0,0.0,0.0,0.0,0.0,0.0,0.0,0.0,0.0,0.0,0.0,0.0,0.0,0.0,0.0,0.0,0.0,0.0,0.0,0.0,0.0,0.0,0.0,0.0,0.0,0.0,0.0,0.0,0.0,0.0,0.0,0.0,0.0,0.0,0.0,0.0,0.0,0.0,0.0,0.0,0.0,0.0,0.0,0.0,0.0,0.0,0.0,0.0,0.0,0.0,0.0,0.0,0.0,0.0,0.0,0.0,0.0,0.0,0.0,0.0,0.0,0.0,0.0,0.0,0.0,0.0,0.0,0.0,0.0,0.0,0.0,0.0,0.0,0.0,0.0,0.0,0.0,0.0,0.0,0.0,0.0,0.0,0.0,0.0,0.0,0.0,0.0,0.0,0.0,0.0,0.0,0.0,0.0,0.0,0.0,0.0,0.0,0.0,0.0,0.0,0.0,0.0,0.0,0.0,0.0,0.0,0.0,0.0,0.0,0.0,0.0,0.0,0.0,0.0,0.0,0.0,0.0,0.0,0.0,0.0,0.0,0.0,0.0,0.0,0.0,0.0,0.0,0.0,0.0,0.0,0.0,0.0,0.0,0.0,0.0,0.0,0.0,0.0,0.0,0.0,0.0,0.0,0.0,0.0,0.0,0.0,0.0,0.0,0.0,0.0,0.0,0.0,0.0,0.0,0.0,0.0,0.0,0.0,0.0,0.0,0.0,0.0,0.0,0.0,0.0,0.0,0.0,0.0,0.0,0.0,0.0,0.0,0.0,0.0,0.0,0.0,0.0,0.0,0.0,0.0,0.0,0.0,0.0,0.0,0.0,0.0,0.0,0.0,0.0,0.0,0.0,0.0,0.0,0.0,0.0,0.0,0.0,0.0,0.0,0.0,0.0,0.0,0.0,0.0,0.0,0.0,0.0,0.0,0.0,0.0,0.0,0.0,0.0,0.0,0.0,0.0,0.0,0.0,0.0,0.0,0.0,0.0,0.0,0.0,0.0,0.0,0.0,0.0,0.0,0.0,0.0,0.0,0.0,0.0,0.0,0.0,0.0,0.0,0.0,0.0,0.0,0.0,0.0,0.0,0.0,0.0,0.0,0.0,0.0,0.0,0.0,0.0,0.0,0.0,0.0,0.0,0.0,0.0,0.0,0.0,0.0,0.0,0.0,0.0,0.0,0.0,0.0,0.0,0.0,0.0,0.0,0.0,0.0,0.0,0.0,0.0,0.0,0.0,0.0,0.0,0.0,0.0,0.0,0.0,0.0,0.0,0.0,0.0,0.0,0.0,0.0,0.0,0.0,0.0,0.0,0.0,0.0,0.0,0.0,0.0,0.0,0.0,0.0,0.0,0.0,0.0,0.0,0.0,0.0,0.0,0.0,0.0,0.0,0.0,0.0,0.0,0.0,0.0,0.0,0.0,0.0,0.0,0.0,0.0,0.0,0.0,0.0,0.0,0.0,0.0,0.0,0.0,0.0,0.0,0.0,0.0,0.0,0.0,0.0,0.0,0.0,0.0,0.0,0.0,0.0,0.0,0.0,0.0,0.0,0.0,0.0,0.0,0.0,0.0,0.0,0.0,0.0,0.0,0.0,0.0,0.0,0.0,0.0,0.0,0.0,0.0,0.0,0.0,0.0,0.0,0.0,0.0,0.0,0.0,0.0,0.0,0.0,0.0,0.0,0.0,0.0,0.0,0.0,0.0,0.0,0.0,0.0,0.0,0.0,0.0,0.0,0.0,0.0,0.0,0.0,0.0,0.0,0.0,0.0,0.0,0.0,0.0,0.0,0.0,0.0,0.0,0.0,0.0,0.0,0.0,0.0,0.0,0.0,0.0,0.0,0.0,0.0,0.0,0.0,0.0,0.0,0.0,0.0,0.0,0.0,0.0,0.0,0.0,0.0,0.0,0.0,0.0,0.0,0.0,0.0,0.0,0.0,0.0,0.0,0.0,0.0,0.0,0.0,0.0,0.0,0.0,0.0,0.0,0.0,0.0,0.0,0.0,0.0,0.0,0.0,0.0,0.0,0.0,0.0,0.0,0.0,0.0,0.0,0.0,0.0,0.0,0.0,0.0,0.0,0.0,0.0,0.0,0.0,0.0,0.0,0.0,0.0,0.0,0.0,0.0,0.0,0.0,0.0,0.0,0.0,0.0,0.0,0.0,0.0,0.0,0.0,0.0,0.0,0.0,0.0,0.0,0.0,0.0,0.0,0.0,0.0,0.0,0.0,0.0,0.0,0.0,0.0,0.0,0.0,0.0,0.0,0.0,0.0,0.0,0.0,0.0,0.0,0.0,0.0,0.0,0.0,0.0,0.0,0.0,0.0,0.0,0.0,0.0,0.0,0.0,0.0,0.0,0.0,0.0,0.0,0.0,0.0,0.0,0.0,0.0,0.0,0.0,0.0,0.0,0.0,0.0,0.0,0.0,0.0,0.0,0.0,0.0,0.0,0.0,0.0,0.0,0.0,0.0,0.0,0.0,0.0,0.0,0.0,0.0,0.0,0.0,0.0,0.0,0.0,0.0,0.0,0.0,0.0,0.0,0.0,0.0,0.0,0.0,0.0,0.0,0.0,0.0,0.0,0.0,0.0,0.0,0.0,0.0,0.0,0.0,0.0,0.0,0.0,0.0,0.0,0.0,0.0,0.0,0.0,0.0,0.0,0.0,0.0,0.0,0.0,0.0,0.0,0.0,0.0,0.0,0.0,0.0,0.0,0.0,0.0,0.0,0.0,0.0,0.0,0.0,0.0,0.0,0.0,0.0,0.0,0.0,0.0,0.0,0.0,0.0,0.0,0.0,0.0,0.0,0.0,0.0,0.0,0.0,0.0,0.0,0.0,0.0,0.0,0.0,0.0,0.0,0.0,0.0,0.0,0.0,0.0,0.0,0.0,0.0,0.0,0.0,0.0,0.0,0.0,0.0,0.0,0.0,0.0,0.0,0.0,0.0,0.0,0.0,0.0,0.0,0.0,0.0,0.0,0.0,0.0,0.0,0.0,0.0,0.0,0.0,0.0,0.0,0.0,0.0,0.0,0.0,0.0,0.0,0.0,0.0,0.0,0.0,0.0,0.0,0.0,0.0,0.0,0.0,0.0,0.0,0.0,0.0,0.0,0.0,0.0,0.0,0.0,0.0,0.0,0.0,0.0,0.0,0.0,0.0,0.0,0.0,0.0,0.0,0.0,0.0,0.0,0.0,0.0,0.0,0.0,0.0,0.0,0.0,0.0,0.0,0.0,0.0,0.0,0.0,0.0,0.0,0.0,0.0,0.0,0.0,0.0,0.0,0.0,0.0,0.0,0.0,0.0,0.0,0.0,0.0,0.0,0.0,0.0,0.0,0.0,0.0,0.0,0.0,0.0,0.0,0.0,0.0,0.0,0.0,0.0,0.0,0.0,0.0,0.0,0.0,0.0,0.0,0.0,0.0,0.0,0.0,0.0,0.0,0.0,0.0,0.0,0.0,0.0,0.0,0.0,0.0,0.0,0.0,0.0,0.0,0.0,0.0,0.0,0.0,0.0,0.0,0.0,0.0,0.0,0.0,0.0,0.0,0.0,0.0,0.0,0.0,0.0,0.0,0.0,0.0,0.0,0.0,0.0,0.0,1.0476,0.991,0.0,0.0,0.0,0.0,0.0,0.0,0.0,0.0,0.0,0.0,0.0,0.0,0.0,0.0,0.0,0.0,0.0,0.0,0.0,0.0,0.0,0.0,0.0,0.0,0.0,0.0,0.0,0.0,0.0,0.0,0.0,0.0,0.0,0.0,0.0,0.0,0.0,0.0,2.4267,2.4525,2.4843,2.2852,2.0642,1.8294,0.0,0.0,0.0,0.0,0.0,0.0,0.0,0.0,0.0,0.0,0.0,0.0,0.0,0.0,0.0,0.0,0.0,0.0,0.0,0.0,0.0,0.0,0.0,0.0,0.0,0.0,0.0,0.0,0.0,0.0,0.0,0.0,0.0,0.0,0.0,0.0,0.0,0.0,0.0,0.0,0.0,0.0,0.0,0.0,0.0,0.0,0.0,0.0,0.0,0.0,0.0,0.0,0.0,0.0,0.0,0.0,0.0,0.0,0.0,0.0,0.0,0.0,0.0,0.0,0.0,0.0,0.0,0.0,0.0,0.0,1.1904,1.1161,0.0,0.0,0.0,0.0,0.0,0.0,0.0,0.0,0.0,0.0,0.0,0.0,0.0,0.0,0.0,0.0,0.0,0.0,0.0,0.0,0.0,0.0,0.0,0.0,0.0,0.0,0.0,0.0,0.0,0.0,0.0,0.0,0.0,0.0,0.0,0.0,0.0,0.0,2.6351,2.7049,2.8361,2.6563,2.442,2.1995,1.9656,0.0,0.0,0.0,0.0,0.0,0.0,0.0,0.0,0.0,0.0,0.0,0.0,0.0,0.0,0.0,0.0,0.0,0.0,0.0,0.0,0.0,0.0,0.0,0.0,0.0,0.0,0.0,0.0,0.0,0.0,0.0,0.0,0.0,0.0,0.0,0.0,0.0,0.0,0.0,0.0,0.0,0.0,0.0,0.0,0.0,0.0,0.0,0.0,0.0,0.0,0.0,0.0,0.0,0.0,0.0,0.0,0.0,0.0,0.0,0.0,0.0,0.0,0.0,1.333,1.3479,1.3485,1.3373,1.3858,1.4759,1.3402,1.2604,1.2139,1.1072,0.0,0.0,0.0,0.0,0.0,0.0,0.0,0.0,0.0,0.0,0.0,0.0,0.0,0.0,0.0,0.0,0.0,0.0,0.0,0.0,0.0,0.0,0.0,0.0,0.0,0.0,0.0,0.0,0.0,0.0,0.0,0.0,0.0,2.7103,2.7706,2.8745,2.9985,3.0797,3.1148,2.9669,2.8321,2.6995,2.3292,2.1095,2.0202,0.0,0.0,0.0,0.0,0.0,0.0,0.0,0.0,0.0,0.0,0.0,0.0,0.0,0.0,0.0,0.0,0.0,0.0,0.0,0.0,0.0,0.0,0.0,0.0,0.0,0.0,0.0,0.0,0.0,0.0,0.0,0.0,0.0,0.0,0.0,0.0,0.0,0.0,0.0,0.0,0.0,1.6028,1.5635,0.0,0.0,0.0,0.0,0.0,0.0,0.0,0.0,0.0,0.0,0.0,0.0,0.0,1.2678,1.2678,1.3613,1.41,1.41,1.5,1.5449,1.5449,1.5393,1.5482,1.5647,1.5402,0.0,1.359,1.321,0.0,0.0,0.0,0.0,0.0,0.0,0.0,0.0,0.0,0.0,0.0,0.0,0.0,0.0,0.0,0.0,0.0,0.0,0.0,0.0,0.0,0.0,0.0,0.0,0.0,0.0,0.0,0.0,0.0,0.0,0.0,0.0,2.9069,2.9406,3.0178,3.1396,3.2331,3.3027,3.3393,3.2154,3.1246,3.0528,2.8174,2.5515,2.2819,2.2819,0.0,0.0,0.0,0.0,0.0,0.0,0.0,0.0,0.0,0.0,0.0,0.0,0.0,0.0,0.0,0.0,0.0,0.0,0.0,0.0,0.0,0.0,0.0,0.0,0.0,0.0,0.0,0.0,0.0,0.0,0.0,0.0,0.0,0.0,0.0,0.0,0.0,0.0,0.0,1.7365,1.699,1.6346,1.6622,1.648,0.0,0.0,0.0,0.0,0.0,0.0,0.0,0.0,0.0,1.4698,1.4894,1.4967,1.4967,1.543,1.5633,1.5626,1.5959,1.6079,1.6072,1.5905,1.5784,1.5784,1.5784,1.5486,1.4902,1.4082,1.3397,1.2818,0.0,0.0,0.0,0.0,1.1414,1.1463,0.0,0.0,0.0,0.0,0.0,0.0,0.0,0.0,0.0,0.0,0.0,0.0,0.0,0.0,0.0,3.4581,0.0,0.0,0.0,0.0,0.0,0.0,0.0,0.0,3.1042,3.1644,3.262,3.3982,3.4404,3.4806,3.5097,3.4139,3.3407,3.2898,3.1911,2.9169,2.5345,2.5345,2.4183,0.0,0.0,0.0,0.0,0.0,0.0,0.0,0.0,0.0,0.0,0.0,0.0,0.0,0.0,0.0,0.0,0.0,0.0,0.0,0.0,0.0,0.0,0.0,0.0,0.0,0.0,0.0,0.0,0.0,0.0,0.0,0.0,0.0,0.0,0.0,0.0,0.0,0.0,1.8596,1.8087,1.7084,1.7451,1.7412,0.0,0.0,0.0,0.0,0.0,0.0,1.6046,1.6266,1.6386,1.6386,1.6593,1.6707,1.6707,1.6707,1.6707,1.67,1.6486,1.6386,1.638,1.6152,1.6052,1.6052,1.6052,1.6052,1.5943,1.4863,1.4364,1.422,1.3204,1.2775,1.2678,1.2538,1.249,1.2538,0.0,0.0,0.0,0.0,0.0,0.0,0.0,0.0,0.0,0.0,0.0,0.0,0.0,0.0,3.4614,3.4765,3.4769,3.474,0.0,0.0,0.0,0.0,0.0,3.261,3.1943,3.3321,3.4821,3.6419,3.6502,3.6384,3.6026,3.5531,3.4769,3.3824,3.324,3.1085,2.7912,2.7912,2.6476,2.4161,0.0,0.0,0.0,0.0,0.0,0.0,0.0,0.0,0.0,0.0,0.0,0.0,0.0,0.0,0.0,0.0,0.0,0.0,0.0,0.0,0.0,0.0,0.0,0.0,0.0,0.0,0.0,0.0,0.0,0.0,0.0,0.0,0.0,0.0,0.0,0.0,0.0,0.0,0.0,1.8079,1.794,0.0,0.0,0.0,0.0,1.6635,1.6655,1.6625,1.6647,1.6673,1.6687,1.6687,1.67,1.6707,1.6707,1.6707,1.6707,1.6707,1.6693,1.6687,1.6687,1.6667,1.666,1.666,1.666,1.666,1.662,1.5963,1.5588,1.5397,1.535,1.5166,1.4933,1.4933,1.4939,1.4885,0.0,0.0,0.0,0.0,0.0,0.0,0.0,0.0,0.0,0.0,0.0,0.0,0.0,3.5631,3.6369,3.6873,3.735,3.7626,3.7626,0.0,0.0,0.0,0.0,3.6075,3.5918,3.6437,3.7226,3.8275,3.8305,3.8051,3.7499,3.704,3.6276,3.528,3.4787,3.3378,3.1269,3.0303,2.8709,2.6733,2.6405,2.5125,0.0,0.0,0.0,0.0,0.0,0.0,0.0,0.0,0.0,0.0,0.0,0.0,0.0,0.0,0.0,0.0,0.0,0.0,0.0,0.0,0.0,0.0,0.0,0.0,0.0,0.0,0.0,0.0,0.0,0.0,0.0,0.0,0.0,0.0,0.0,0.0,0.0,1.9966,2.0268,0.0,1.9621,1.8785,1.8268,1.8289,1.7689,1.7301,1.7256,1.7443,1.7452,1.7255,1.7438,1.743,1.7268,1.7268,1.7268,1.7268,1.7081,1.7038,1.7032,1.6794,1.6707,1.6707,1.6707,1.6707,1.6693,1.648,1.6231,1.5996,1.5762,1.5635,1.5547,1.541,1.5356,1.5309,0.0,0.0,0.0,0.0,0.0,0.0,0.0,0.0,0.0,0.0,0.0,3.4551,3.5931,3.6842,3.7674,3.8395,3.8936,3.9206,3.9206,0.0,0.0,0.0,3.81,3.8214,3.8721,3.8308,3.8557,3.948,3.9295,3.9001,3.8601,3.8294,3.7674,3.6828,3.6353,3.5407,3.4028,3.2721,3.1016,2.9203,2.8627,2.7371,2.5779,0.0,0.0,0.0,0.0,0.0,0.0,0.0,0.0,0.0,0.0,0.0,0.0,0.0,0.0,0.0,0.0,0.0,0.0,0.0,0.0,0.0,0.0,0.0,0.0,0.0,0.0,0.0,0.0,0.0,0.0,0.0,0.0,0.0,0.0,2.252,2.2381,2.1706,2.203,2.2035,2.1384,2.049,2.0014,1.9987,1.9033,1.8404,1.8405,1.8265,1.8077,1.787,1.8064,1.8062,1.7845,1.7845,1.7845,1.774,1.7551,1.7398,1.734,1.7088,1.7001,1.7001,1.7001,1.7001,1.7045,1.7291,1.7277,1.7063,1.6277,1.5979,1.5917,1.5675,1.5588,1.5588,0.0,0.0,0.0,0.0,0.0,0.0,0.0,0.0,0.0,0.0,3.4066,3.5582,3.6886,3.769,3.8439,3.9152,3.9259,3.9259,3.9259,3.9259,0.0,0.0,0.0,0.0,4.0044,3.8857,3.884,4.0078,3.9516,3.9269,3.9259,3.9216,3.8903,3.8322,3.7822,3.7054,3.6089,3.5094,3.3484,3.1486,2.9757,2.8932,2.8464,0.0,0.0,0.0,0.0,0.0,0.0,0.0,0.0,0.0,0.0,0.0,0.0,0.0,0.0,0.0,0.0,0.0,0.0,0.0,0.0,0.0,0.0,0.0,0.0,0.0,0.0,0.0,0.0,0.0,0.0,0.0,0.0,0.0,2.3809,2.416,2.409,2.3149,2.3055,2.267,2.1722,2.1627,2.159,2.1665,2.0676,2.0082,2.0076,1.9101,1.8496,1.8534,1.8489,1.8482,1.852,1.852,1.837,1.8122,1.8122,1.7957,1.774,1.7687,1.7687,1.7687,1.7687,1.7687,1.7765,1.8541,1.8876,1.8708,1.7,1.6384,1.6343,1.6013,1.5899,1.5886,0.0,0.0,0.0,0.0,0.0,0.0,0.0,0.0,0.0,0.0,3.4518,3.593,3.7618,3.8463,3.9135,3.9723,4.0187,4.0427,4.0427,0.0,0.0,0.0,0.0,0.0,4.1573,4.1258,4.1236,4.1613,4.1122,4.0662,4.029,3.9944,3.9489,3.8947,3.8362,3.7748,3.713,3.6446,3.537,3.4013,3.22,3.0818,2.9846,0.0,0.0,0.0,0.0,0.0,0.0,0.0,0.0,0.0,0.0,0.0,0.0,0.0,0.0,0.0,0.0,0.0,0.0,0.0,0.0,0.0,0.0,0.0,0.0,0.0,0.0,0.0,0.0,0.0,0.0,0.0,2.4512,2.4609,2.4287,2.4346,2.4438,2.4505,2.4496,2.4526,2.4543,2.3864,2.3403,2.3422,2.2679,2.2264,2.2253,2.1481,2.1196,2.1502,2.0676,2.0404,2.0794,2.0794,2.0743,2.0692,2.0511,2.0364,2.0254,2.0055,2.0004,2.0004,2.0004,2.0004,2.0004,2.022,2.0327,2.0163,1.85,1.8292,1.8862,1.8001,1.8004,1.836,0.0,0.0,0.0,0.0,0.0,0.0,0.0,0.0,0.0,0.0,3.4769,3.6197,3.7722,3.8657,3.9428,3.9952,4.0549,4.0965,4.114,0.0,0.0,0.0,0.0,4.1994,4.2322,4.2322,4.2322,4.2322,4.2056,4.1768,4.1455,4.0926,4.0422,3.9843,3.9282,3.8596,3.7851,3.7326,3.6585,3.572,3.4177,3.2706,3.1415,3.1563,3.0668,2.9409,2.9974,2.9346,2.8231,2.8287,0.0,0.0,0.0,0.0,0.0,0.0,0.0,0.0,0.0,0.0,0.0,0.0,0.0,0.0,0.0,0.0,0.0,0.0,0.0,0.0,0.0,0.0,0.0,0.0,2.4902,2.5107,2.5225,2.5088,2.5137,2.5576,2.5615,2.5791,2.623,2.5693,2.5324,2.5324,2.4566,2.4067,2.4067,2.3239,2.2895,2.3141,2.2303,2.1958,2.2291,2.2139,2.1963,2.1862,2.1735,2.1582,2.1473,2.1183,2.1089,2.1038,2.0936,2.0885,2.0936,2.1395,2.1556,0.0,0.0,0.0,0.0,0.0,1.9322,1.9622,0.0,0.0,0.0,0.0,0.0,0.0,0.0,0.0,0.0,0.0,0.0,3.6228,3.7472,3.8518,3.9348,3.9952,4.05,4.0977,0.0,0.0,0.0,4.2286,4.2346,4.2446,4.2639,4.2657,4.2657,4.2657,4.2581,4.2562,4.2562,4.2035,4.1468,4.0891,4.0339,3.9492,3.8474,3.7908,3.7356,3.6739,3.5752,3.4428,3.2967,3.2326,3.1892,3.1609,3.1856,3.1466,3.0782,3.097,0.0,0.0,0.0,0.0,0.0,0.0,0.0,0.0,0.0,0.0,0.0,0.0,0.0,0.0,0.0,0.0,0.0,0.0,0.0,0.0,0.0,0.0,0.0,0.0,2.5585,2.5834,2.6537,2.6271,2.6124,2.6416,2.6455,2.6602,2.6982,2.7012,2.7012,2.7012,2.6168,2.5659,2.5659,2.465,0.0,0.0,0.0,2.3436,2.3451,2.312,2.2787,2.2492,2.2492,2.2333,2.2114,2.1785,2.1641,2.1641,2.1395,2.1293,2.1344,2.2316,2.2677,2.2593,2.1345,2.0766,2.0626,2.0516,2.0427,2.0386,0.0,0.0,0.0,0.0,0.0,0.0,0.0,0.0,0.0,3.239,3.4028,3.5679,3.7397,3.8108,3.8887,3.9927,4.012,4.0392,0.0,0.0,4.1846,4.2286,4.2658,4.3087,4.3531,4.3566,4.3566,4.3566,4.3177,4.2996,4.2959,4.2542,4.2101,4.1656,4.0966,4.0353,3.9766,3.8652,3.7879,3.737,3.6677,3.5352,3.3788,3.3879,3.3101,3.2074,3.272,3.247,3.1819,3.1856,3.1341,3.0683,3.0683,3.0279,0.0,0.0,0.0,0.0,0.0,0.0,0.0,0.0,0.0,0.0,0.0,0.0,0.0,0.0,0.0,0.0,0.0,0.0,0.0,2.8537,2.8629,2.8545,2.8221,2.8082,2.7762,2.6986,2.6894,2.6924,2.7012,2.7012,2.7012,2.7012,2.7179,2.7269,2.7269,2.6444,2.6258,2.6903,2.5897,2.5494,2.5767,2.5681,2.5412,2.4981,2.4775,0.0,2.4569,2.4115,2.3877,2.3877,2.3628,2.3538,2.3587,2.3795,2.3895,2.3836,2.3556,2.2915,2.2206,2.3084,2.3157,2.2831,0.0,0.0,0.0,0.0,0.0,0.0,0.0,0.0,0.0,0.0,3.2849,3.4758,3.6058,3.7247,3.8262,3.9086,3.9902,0.0,0.0,4.1622,4.2101,4.2679,4.2922,4.332,4.3881,4.3897,4.3897,4.3897,4.3679,4.3542,4.3542,4.3069,4.2736,4.2505,4.1711,4.1029,4.0443,3.9613,3.8745,3.7908,3.7385,3.6415,3.5305,3.4938,3.4322,3.365,3.3762,3.3297,3.2648,3.2648,3.2146,3.1489,3.1489,3.1257,3.0859,0.0,0.0,0.0,0.0,0.0,0.0,0.0,0.0,0.0,0.0,0.0,0.0,0.0,0.0,2.9831,2.9829,0.0,2.9652,2.9866,2.9891,2.9861,2.9785,2.931,2.8574,2.7489,2.7344,2.7422,2.7637,2.7656,2.7656,2.7656,2.7851,2.7978,2.7978,2.763,2.7586,2.7988,2.7228,2.6764,2.6709,2.6494,2.6172,2.5693,2.5538,2.5489,2.5489,2.5088,2.4833,2.4677,2.4587,2.4399,2.4202,2.4202,2.4202,2.4202,2.4202,2.3845,2.3438,2.4003,2.4073,2.3849,0.0,0.0,0.0,0.0,0.0,0.0,0.0,0.0,0.0,0.0,3.1426,3.335,3.4507,3.6043,3.7306,0.0,0.0,0.0,0.0,4.1739,4.2302,4.283,4.3014,4.3353,4.3876,4.3955,4.4005,4.4005,4.4005,4.4005,4.3989,4.3559,4.3317,4.3194,4.2404,4.1643,4.0954,4.0331,3.943,3.8435,3.7809,3.7282,3.6754,3.5847,3.5365,3.5136,3.4687,3.4065,3.3437,3.3437,3.2946,3.229,3.229,3.2218,3.1928,3.1156,3.0895,0.0,0.0,0.0,0.0,0.0,0.0,0.0,0.0,3.1712,3.1834,3.2187,3.2043,3.185,3.1849,3.1623,3.1377,3.1094,3.1028,3.1087,3.1329,3.0594,2.9588,2.8296,2.794,2.792,2.8262,2.8291,2.8291,2.8291,2.8291,2.8291,2.8291,2.8291,2.8291,2.8291,2.7969,2.7539,2.7021,2.668,2.625,2.5693,2.5693,2.5693,2.5684,2.544,2.5186,2.4981,2.4883,2.4587,2.4251,2.4202,2.4202,2.4202,2.4202,2.4202,2.4202,2.4202,2.4202,2.4202,0.0,0.0,0.0,0.0,0.0,0.0,0.0,0.0,0.0,0.0,0.0,0.0,0.0,0.0,0.0,0.0,0.0,0.0,4.0161,4.1047,4.1713,4.2011,4.2735,4.323,4.3457,4.3809,4.4005,4.4005,4.4005,4.4005,4.4005,4.3939,4.371,4.3353,4.2774,4.2226,4.1674,4.0152,3.9332,3.9001,3.7931,3.7464,3.7345,3.6754,3.5975,3.5201,3.5136,3.4754,3.4264,3.4264,3.3742,3.3073,3.3073,3.2613,3.1928,3.1156,3.0895,3.0824,3.0566,3.0896,3.1436,3.1989,3.2127,3.2252,0.0,3.2893,3.3043,3.3552,3.3325,3.3154,3.3607,3.3315,3.317,3.3529,3.3601,3.3443,3.299,3.286,3.1995,2.9901,2.883,2.8242,2.8291,2.8291,2.8291,2.8291,2.8291,2.8291,2.8291,2.8291,2.8291,2.8291,2.8252,2.7832,2.7021,2.6973,2.6543,2.5693,2.5693,2.5693,2.5684,2.544,2.5284,2.5235,2.4735,2.4529,2.443,2.4251,2.4202,2.4202,2.4202,2.4202,2.4202,2.4202,2.4202,2.4202,0.0,0.0,0.0,0.0,0.0,0.0,0.0,0.0,0.0,0.0,0.0,0.0,0.0,0.0,0.0,0.0,0.0,0.0,3.9489,3.9935,4.0501,4.1233,4.1658,4.2217,4.2904,4.3177,4.3423,4.3644,4.3644,4.3777,4.4005,4.4005,4.3742,4.3265,4.2811,4.2091,4.1211,4.0258,3.942,3.8629,3.8141,3.7786,3.745,3.6907,3.6258,3.5576,3.5299,3.4854,0.0,0.0,3.4182,3.3894,3.3894,3.3673,3.3276,3.2456,3.2158,3.1982,3.165,3.17,3.2001,3.2566,3.2717,3.2867,3.3432,3.3558,3.3621,3.3903,3.3802,3.3735,3.3948,3.3858,3.3897,3.4366,3.445,3.4377,3.4141,3.361,3.2839,3.192,3.0856,2.9733,2.8398,2.8291,2.8398,2.8643,2.8662,2.8769,2.9023,2.9033,2.9033,2.9033,2.8789,2.8369,2.7764,2.7266,2.6719,2.6113,2.581,2.5693,2.5693,2.5586,2.5538,2.5489,2.499,2.4735,2.4735,2.4489,2.4301,2.4202,2.4202,2.4202,2.4202,2.4202,2.4202,2.4202,0.0,0.0,0.0,0.0,0.0,0.0,0.0,0.0,0.0,0.0,0.0,0.0,0.0,0.0,0.0,0.0,0.0,3.7761,3.8712,3.8887,3.9423,4.0367,4.0753,4.1358,4.2192,4.2545,4.2922,4.323,4.323,4.3353,4.3609,4.3609,4.3404,4.2978,4.2411,4.1662,4.0735,4.0043,3.9096,3.808,3.7924,3.7549,3.7029,3.6646,3.6149,3.5672,3.5317,3.4854,0.0,0.0,3.4414,3.4414,3.4414,3.4414,3.4273,3.3663,3.3449,3.3304,3.2705,3.2692,3.2836,3.3054,3.3194,3.3407,3.3809,3.3978,3.4063,3.4304,3.4232,3.4159,3.4305,3.4258,3.433,3.4715,3.4775,3.4775,3.4775,3.4115,3.3511,3.325,3.2358,3.0996,2.9143,2.893,2.9118,2.9545,2.9256,2.918,2.9385,2.9394,2.9336,2.9219,2.8916,2.8545,2.8125,2.7383,2.6807,2.6387,2.5947,2.5693,2.5693,2.5693,2.5693,2.5684,2.5235,2.503,2.499,2.4735,2.4489,2.4291,2.4291,2.4251,2.4202,2.4202,2.4202,2.4202,0.0,0.0,0.0,0.0,0.0,0.0,0.0,0.0,0.0,0.0,0.0,0.0,0.0,0.0,0.0,3.4081,3.5776,3.7053,3.7618,3.8129,3.8723,3.942,4.0336,4.0937,4.1226,4.2152,4.2678,4.2829,4.2829,4.2754,4.264,4.264,4.2602,4.2483,4.1485,4.0977,4.0689,3.9206,3.8193,3.756,3.6982,3.6445,3.5944,3.5944,3.564,3.5234,3.5201,0.0,0.0,3.4414,3.4414,3.4414,3.4414,3.4414,3.436,3.42,3.4426,3.4574,3.3672,3.3886,3.4121,3.3326,3.3483,3.3872,3.3897,3.4075,3.4429,3.5059,3.4738,3.4567,3.5053,3.4957,3.4763,3.4775,3.4775,3.4775,3.4775,3.4775,3.4372,3.33,3.2597,3.1739,3.0648,3.0541,3.0727,3.1291,3.0254,2.9375,2.8955,2.8935,2.875,2.834,2.832,2.8115,2.7738,2.7236,2.6807,2.6387,2.5947,2.5693,2.5693,2.5693,2.5693,2.5684,2.5391,2.5284,2.5284,2.4981,2.4735,2.4489,2.4489,2.439,2.4202,2.4202,2.4202,2.4202,0.0,0.0,0.0,0.0,0.0,0.0,0.0,0.0,0.0,0.0,0.0,0.0,0.0,0.0,0.0,0.0,3.3776,3.46,3.5664,3.6183,3.699,3.8177,3.8885,3.9656,4.0508,4.0932,4.149,4.2218,4.2218,4.2322,4.2542,4.2542,4.2111,4.1358,4.1028,4.0212,3.9067,3.7983,3.7172,3.6538,3.574,3.5482,3.5529,3.5157,3.5106,3.5136,0.0,0.0,0.0,3.4414,3.4414,3.4414,3.4414,3.4414,3.4432,3.4659,3.5162,3.5388,3.4389,3.4241,3.4189,3.3326,3.3483,3.3997,3.4361,3.4649,3.5025,3.5382,3.5207,3.4908,3.4945,3.4872,3.4775,3.4775,3.4775,3.4775,3.4775,3.4775,3.4677,3.4323,3.4363,3.4442,3.4469,3.1687,3.0123,3.0551,2.9997,2.9629,2.9766,2.9502,2.9287,2.915,2.8857,2.8643,2.8496,2.7793,2.7226,2.6797,2.6035,2.5693,2.5693,2.5693,2.5693,2.5684,2.5586,2.544,2.5284,2.5186,2.499,2.4784,2.4784,2.4637,2.439,2.439,2.4291,2.4202,0.0,0.0,0.0,0.0,0.0,0.0,0.0,0.0,0.0,0.0,0.0,0.0,0.0,0.0,0.0,0.0,0.0,3.251,3.3548,0.0,3.5441,3.6569,3.7438,3.8353,3.9285,3.9587,4.0167,4.1041,4.1041,4.1161,4.1394,4.1394,4.0972,4.0214,3.9842,3.899,3.7774,3.6842,3.5886,3.4973,3.4407,3.4119,3.395,3.3622,3.3671,0.0,0.0,0.0,3.3756,3.423,3.4414,3.4414,3.4414,3.4719,3.5181,3.5688,3.6282,3.6507,3.5197,3.4814,3.459,3.3609,3.3784,3.4336,3.4843,3.5176,3.5392,3.5547,3.5368,3.5126,3.4823,3.4884,3.4932,3.4835,3.4775,3.4775,3.4775,3.4775,3.4775,3.4775,3.5039,3.5395,3.5726,3.2716,3.0977,3.1635,3.0528,2.9844,2.9971,2.957,2.9268,2.9121,2.8838,2.8701,2.8701,2.8018,2.7373,2.6787,2.6025,2.5693,2.5693,2.5693,2.5693,2.5693,2.5693,2.5586,2.544,2.544,2.5284,2.5039,2.5039,2.4883,2.4627,2.4529,2.444,2.4301,0.0,0.0,0.0,0.0,0.0,0.0,0.0,0.0,0.0,0.0,0.0,0.0,0.0,0.0,0.0,0.0,0.0,0.0,3.1332,0.0,0.0,3.4673,3.5918,3.6946,3.7578,3.8132,3.8772,3.9406,3.9406,3.9344,3.9272,3.9272,3.9183,3.8984,3.7905,3.7231,3.6765,3.5678,3.437,3.301,3.2975,3.2352,3.1462,3.1462,0.0,0.0,0.0,0.0,3.2541,3.3894,3.4361,3.4457,3.4424,3.5294,3.6489,3.7114,3.7738,3.7834,3.6148,3.5615,3.5317,3.4257,3.4356,3.4818,3.537,3.5558,3.562,3.562,3.5416,3.5126,3.4884,3.503,3.5126,3.4823,3.4775,3.4775,3.4775,3.4775,3.4775,3.4775,3.4758,3.4682,3.4682,3.3605,3.3289,3.4336,3.1758,2.999,2.959,2.9131,2.8701,2.8301,2.8291,2.8291,2.8291,2.7851,2.7226,2.6416,2.5908,2.5693,2.5693,2.5693,2.5693,2.5693,2.5693,2.5693,2.5693,2.5693,2.5538,2.5333,2.5333,2.5137,2.4883,2.4627,2.4529,2.4489,0.0,0.0,0.0,0.0,0.0,0.0,0.0,0.0,0.0,0.0,0.0,0.0,0.0,0.0,0.0,0.0,0.0,0.0,2.9553,0.0,0.0,0.0,0.0,0.0,0.0,0.0,0.0,3.8072,3.8072,3.7943,3.7684,3.7684,3.7279,3.6566,3.5827,3.5209,3.4585,3.3226,3.2409,3.1992,0.0,3.1031,3.1031,0.0,0.0,0.0,0.0,3.1609,3.1878,3.2932,3.4125,3.5076,3.4784,3.5783,3.7085,3.7259,3.7738,3.7962,3.6883,3.6108,3.548,3.4979,3.4761,3.4818,3.537,3.57,3.592,3.592,3.5668,3.5428,3.5126,3.5175,3.5126,3.4823,3.4775,3.4775,3.4775,3.4775,3.4775,3.4775,3.5499,3.5928,3.5928,3.5581,3.5068,3.4447,3.1528,2.9687,2.9636,2.8857,2.8398,2.8301,2.8291,2.8291,2.8291,2.7549,2.707,2.6846,2.6094,2.5693,2.5693,2.5693,2.5693,2.5693,2.5693,2.5693,2.5693,2.5693,2.5635,2.5586,2.5586,2.543,2.5186,2.5137,2.4833,2.448,0.0,0.0,0.0,0.0,0.0,0.0,0.0,0.0,0.0,0.0,0.0,0.0,0.0,0.0,0.0,0.0,0.0,0.0,0.0,0.0,0.0,0.0,0.0,0.0,0.0,0.0,0.0,0.0,0.0,0.0,3.5312,3.5312,3.5023,3.4494,3.3917,3.3105,3.2116,3.1045,0.0,0.0,0.0,0.0,0.0,0.0,0.0,0.0,0.0,3.0139,3.0983,3.1806,3.2965,3.406,3.4427,3.5347,3.6344,3.6641,3.6953,3.6975,3.5789,3.5142,3.4765,3.4699,3.4507,3.462,3.551,3.5779,3.5812,3.5812,3.5812,3.5668,3.5271,3.5271,3.5271,3.503,3.4884,3.4775,3.4775,3.4775,3.4775,3.4775,3.5861,3.6512,3.6398,3.6379,3.6045,3.5223,3.2193,3.0163,2.9626,2.876,2.8291,2.8291,2.8291,2.8291,2.8291,2.7441,2.7012,2.7002,2.6093,2.5693,2.5693,2.5693,2.5693,2.5693,2.5693,2.5693,2.5693,2.5693,2.5693,2.5693,2.5693,2.5586,2.544,2.5333,2.5088,2.4833,0.0,0.0,0.0,0.0,0.0,0.0,0.0,0.0,0.0,0.0,0.0,0.0,0.0,0.0,0.0,0.0,0.0,0.0,0.0,0.0,0.0,0.0,0.0,0.0,0.0,3.178,0.0,0.0,0.0,0.0,0.0,0.0,0.0,0.0,0.0,0.0,0.0,0.0,0.0,0.0,0.0,0.0,0.0,0.0,0.0,0.0,2.7465,2.8442,2.9928,3.0707,3.1578,3.2553,3.3718,3.4521,3.5108,3.5706,3.5856,3.5575,3.4249,3.3839,3.3875,3.4135,3.4139,3.4425,3.5685,3.5764,3.562,3.5668,3.5812,3.5812,3.532,3.5416,3.5476,3.5175,3.4932,3.4823,3.4823,3.4823,3.4835,3.4884,3.601,3.6715,3.6512,3.6684,3.6696,3.6274,3.3541,3.1233,2.9895,2.9021,2.8451,2.8291,2.8291,2.8291,2.8291,2.75,2.707,2.7002,2.6201,2.5742,2.5693,2.5693,2.5693,2.5693,2.5693,2.5693,2.5693,2.5693,2.5693,2.5693,2.5693,2.5693,2.5684,2.544,2.5333,2.5284,0.0,0.0,0.0,0.0,0.0,0.0,0.0,0.0,0.0,0.0,1.7831,0.0,0.0,0.0,0.0,0.0,0.0,0.0,0.0,0.0,0.0,0.0,0.0,0.0,2.9501,2.9552,2.9885,3.0585,3.0585,0.0,0.0,0.0,0.0,0.0,0.0,0.0,0.0,0.0,0.0,0.0,0.0,0.0,0.0,0.0,0.0,0.0,2.7892,2.8572,2.8996,2.9965,3.1508,3.3115,3.3436,3.4232,3.5008,3.5156,3.5183,3.5115,3.4856,3.4588,3.4477,3.4978,3.489,3.4834,3.5521,3.562,3.5668,3.5872,3.5764,3.562,3.5572,3.5368,3.5175,3.4932,3.4835,3.4884,3.5078,3.4932,3.4981,3.5416,3.6271,3.6866,3.703,3.7673,3.7631,3.663,3.5108,3.3314,3.1179,3.0163,2.9207,2.8344,2.8291,2.8291,2.8291,2.7803,2.7373,2.7012,2.6514,2.6084,2.5693,2.5693,2.5693,2.5693,2.5693,2.5693,2.5693,2.5693,2.5693,2.5693,2.5693,2.5693,2.5684,2.5645,2.5489,2.5284,0.0,0.0,0.0,0.0,0.0,0.0,0.0,0.0,0.0,1.5527,1.6574,1.7372,0.0,0.0,0.0,0.0,0.0,0.0,0.0,0.0,0.0,0.0,0.0,0.0,0.0,2.7325,2.7463,2.7726,0.0,2.7273,2.6419,2.5901,2.5507,2.5154,2.4355,2.3685,2.3136,0.0,0.0,2.1878,2.2381,2.2644,0.0,0.0,0.0,0.0,0.0,2.8699,2.8798,3.0088,3.1176,3.2089,3.2492,3.3171,3.3801,3.3801,3.3801,3.3793,3.3703,3.3602,3.366,3.4433,3.4482,3.4567,3.5246,3.5368,3.5428,3.5572,3.5572,3.5572,3.5428,3.5271,3.5175,3.503,3.4872,3.4823,3.4981,3.4884,3.4932,3.532,3.6369,3.713,3.718,3.8047,3.8291,3.7566,3.6341,3.4641,3.2351,3.1305,3.0287,2.9154,2.9112,2.8847,2.8291,2.7881,2.7441,2.7012,2.6592,2.6162,2.5693,2.5693,2.5693,2.5693,2.5693,2.5693,2.5693,2.5693,2.5693,2.5693,2.5693,2.5693,2.5693,2.5693,2.5635,2.5489,0.0,0.0,0.0,0.0,0.0,0.0,0.0,1.2587,1.38,1.4226,1.5153,1.5879,1.6062,1.7271,1.8017,0.0,0.0,0.0,0.0,0.0,0.0,0.0,0.0,0.0,0.0,0.0,0.0,2.449,2.449,0.0,0.0,0.0,0.0,0.0,2.1776,2.0953,2.0056,2.0056,1.9546,0.0,0.0,2.0056,0.0,0.0,0.0,0.0,0.0,2.8411,2.8464,3.0173,3.0763,3.0893,3.1614,3.2136,3.2494,3.2494,3.2494,3.2486,3.2482,3.2575,3.2887,3.3766,3.4078,3.4318,3.4981,3.5126,3.5126,3.5175,3.532,3.5368,3.5223,3.5223,3.5223,3.5223,3.5078,3.4981,3.4981,3.4981,3.5078,3.532,3.6567,3.7369,3.7369,3.8253,3.8736,3.8514,3.7206,3.5399,3.3174,3.2134,3.1062,2.9922,2.9922,2.9355,2.8291,2.7881,2.7441,2.7012,2.6592,2.6162,2.5693,2.5693,2.5693,2.5693,2.5693,2.5693,2.5693,2.5693,2.5693,2.5693,2.5693,2.5693,2.5693,2.5693,2.5693,2.5693,0.0,0.0,0.0,0.0,0.0,0.0,0.0,1.1365,1.1804,1.2775,1.3806,1.449,1.449,1.5866,1.677,0.0,0.0,0.0,0.0,0.0,0.0,0.0,0.0,0.0,0.0,0.0,0.0,2.1229,2.1229,0.0,0.0,0.0,0.0,0.0,0.0,1.8902,1.8572,1.8572,0.0,0.0,0.0,0.0,0.0,0.0,0.0,0.0,0.0,2.6975,2.7311,2.9534,3.0236,3.0416,3.1388,3.1757,3.1793,3.1793,3.1793,3.1926,3.2346,3.2851,3.3344,3.385,3.4354,3.4775,3.4811,3.4823,3.4932,3.5126,3.503,3.492,3.5175,3.5223,3.5223,3.5223,3.5368,3.5524,3.5524,3.5524,3.562,3.5908,3.6898,3.7655,3.7903,3.8458,3.8788,3.8788,3.7321,3.5461,3.3284,3.219,3.1062,2.9922,2.9922,2.9355,2.8291,2.7881,2.7441,2.7012,2.6592,2.6162,2.5693,2.5693,2.5693,2.5693,2.5693,2.5693,2.5693,2.5693,2.5693,2.5693,2.5693,2.5693,2.5693,2.5693,2.5693,2.5693,0.0,0.0,0.0,0.0,0.0,0.0,0.0,1.044,1.1121,1.1512,1.2587,1.3318,1.3318,1.389,1.4806,0.0,0.0,0.0,0.0,0.0,0.0,0.0,0.0,0.0,0.0,0.0,1.9946,1.9773,1.9773,0.0,0.0,0.0,0.0,0.0,0.0,1.6842,1.6835,1.6695,0.0,0.0,0.0,0.0,0.0,0.0,0.0,0.0,0.0,0.0,2.701,2.8552,2.9567,3.026,3.0678,3.1193,3.1705,3.1705,3.1705,3.1898,3.2731,3.3128,3.3489,3.4258,3.4619,3.4775,3.4775,3.4775,3.4835,3.4932,3.4872,3.4835,3.4932,3.4981,3.4981,3.4981,3.5175,3.5368,3.5368,3.5524,3.5827,3.639,3.7133,3.783,3.8492,3.8708,3.8414,3.7445,3.6452,3.5406,3.4211,3.3758,3.3039,3.192,3.1257,3.039,2.926,2.8229,2.7441,2.7012,2.6592,2.6162,2.5693,2.5693,2.5693,2.5693,2.5693,2.5693,2.5693,2.5693,2.5693,2.5693,2.5693,2.5693,2.5693,2.5693,2.5693,2.5781,0.0,0.0,0.0,0.0,0.0,0.0,0.8924,0.982,1.0445,1.0438,1.1511,1.2319,1.2252,1.2533,1.336,1.501,0.0,0.0,0.0,0.0,0.0,0.0,0.0,0.0,0.0,0.0,1.8303,1.8126,1.8126,1.8041,0.0,0.0,1.6864,1.681,0.0,0.0,0.0,0.0,0.0,0.0,0.0,0.0,0.0,0.0,0.0,0.0,0.0,0.0,0.0,0.0,0.0,2.9795,3.0125,3.0869,3.1705,3.1705,3.1705,3.1946,3.2996,3.3284,3.3537,3.4571,3.4775,3.4775,3.4775,3.4775,3.4775,3.4775,3.4775,3.4775,3.4775,3.4872,3.492,0.0,3.5271,3.5416,3.5416,3.5656,3.6044,3.6512,3.7269,3.7954,3.8567,3.8635,3.8059,3.6635,3.6018,3.5438,3.4859,3.4775,3.4323,3.325,3.2488,3.1524,3.039,2.9106,2.8259,2.7885,2.7072,2.6447,2.6139,2.583,2.5693,2.5693,2.5693,2.5693,2.5693,2.5693,2.5693,2.5732,2.6004,2.6139,2.6187,2.6466,2.661,2.6696,0.0,0.0,0.0,0.0,0.0,0.0,0.0,0.953,0.9676,0.9552,1.0635,1.1356,1.1243,1.2096,1.2732,1.2727,0.0,0.0,0.0,0.0,0.0,0.0,0.0,0.0,0.0,0.0,1.5825,1.5825,1.5825,1.5832,1.5832,1.5825,1.5825,1.5825,0.0,0.0,0.0,0.0,0.0,0.0,0.0,0.0,0.0,0.0,0.0,0.0,0.0,0.0,0.0,0.0,0.0,0.0,0.0,3.0869,3.1705,3.1705,3.1705,3.1946,3.2996,3.3284,3.3537,3.4571,3.4775,3.4775,3.4775,3.4775,3.4775,3.4775,3.4775,3.4775,3.4775,3.503,3.5271,3.5572,3.5824,3.5968,3.5968,3.6228,3.6275,3.6015,3.7204,3.8015,3.8015,3.8254,3.7949,3.6852,3.6317,3.5635,3.4859,3.4775,3.4323,3.325,3.3201,3.265,3.1575,3.0575,3.0095,3.0025,2.8105,2.7189,2.7142,2.6149,2.5693,2.5693,2.5693,2.5693,0.0,2.5693,2.5693,2.5781,2.6781,2.7189,2.7332,2.8308,2.868,2.868,0.0,0.0,0.0,0.0,0.0,0.0,0.0,0.8961,0.9156,0.9101,0.9609,0.9943,0.9887,1.0121,1.0242,1.0242,0.0,0.0,0.0,0.0,0.0,0.0,0.0,0.0,0.0,0.0,1.5784,1.5784,1.5784,1.5784,1.5784,1.5784,1.5784,1.5778,1.5642,1.5747,0.0,0.0,0.0,0.0,0.0,0.0,1.914,0.0,0.0,0.0,0.0,0.0,0.0,0.0,0.0,0.0,0.0,0.0,0.0,3.1938,3.2238,3.2394,3.3092,3.3537,3.3922,3.4607,3.4775,3.4775,3.4775,3.4775,3.4775,3.4775,3.4775,3.4884,3.503,3.5126,3.5271,3.5572,3.5824,3.6015,3.6015,3.6228,3.6496,3.6789,3.7865,3.8693,3.8852,3.8252,3.7642,3.7092,3.6088,3.5405,3.5332,3.4981,3.4628,3.4323,3.356,3.3051,3.27,3.0959,3.0084,3.0073,2.8819,2.8215,2.8204,2.7898,2.7757,2.7757,2.7757,2.7757,2.7757,2.7757,2.7757,2.7757,2.8121,2.8215,2.8262,2.8588,2.868,2.8819,0.0,0.0,0.0,0.0,0.0,0.0,0.0,0.8926,0.9069,0.9005,0.9206,0.9342,0.9283,0.9235,0.9171,0.9171,0.0,0.0,0.0,0.0,0.0,0.0,0.0,0.0,0.0,1.5784,1.5784,1.5784,1.5939,1.5999,1.5999,1.6106,1.6159,1.6111,1.6014,1.6162,0.0,0.0,0.0,0.0,0.0,0.0,1.8662,0.0,0.0,0.0,0.0,0.0,0.0,0.0,0.0,0.0,0.0,0.0,0.0,0.0,3.2492,3.3152,3.3477,3.3801,3.4114,3.4643,3.4775,3.4775,3.4775,3.4775,3.4775,3.4775,3.4775,3.4823,3.503,3.5126,3.5271,3.5572,3.5824,3.6063,3.6146,3.6275,3.6619,3.7123,3.7814,3.8392,3.8791,3.7967,3.7344,3.706,3.61,3.5524,3.562,3.5271,3.5078,3.4969,3.4213,3.3808,3.3808,3.2153,3.1315,3.1303,2.99,2.928,2.9235,2.8855,2.868,2.868,2.868,2.868,0.0,2.868,2.868,2.8727,2.9143,2.928,2.9326,2.9704,2.9841,2.9932,0.0,0.0,0.0,0.0,0.0,0.0,0.0,0.0,0.0,0.0,0.9312,0.9419,0.9275,0.9249,0.9242,0.0,0.0,0.0,0.0,0.0,0.0,0.0,0.0,0.0,1.5635,1.5757,1.5818,1.5818,1.6159,1.6306,1.6313,1.658,1.6707,1.6707,1.6707,1.6714,0.0,0.0,0.0,0.0,0.0,0.0,0.0,0.0,0.0,0.0,0.0,0.0,0.0,0.0,0.0,0.0,0.0,0.0,0.0,0.0,0.0,0.0,0.0,3.4054,3.4162,3.4655,3.4775,3.4775,3.4775,3.4775,0.0,3.4775,3.4835,3.4823,3.4823,3.5078,3.532,3.5608,3.586,3.6098,3.6358,3.6405,3.6619,3.7123,3.7149,3.7337,3.7889,3.745,3.7027,3.6772,3.6289,3.5908,3.5668,3.562,3.5464,3.5271,3.4981,3.4835,3.4775,3.3801,3.3284,3.3272,3.1282,3.0306,3.026,2.9326,2.8912,2.8912,2.8912,2.8912,2.8912,2.8912,2.8912,2.9004,2.9932,3.0306,3.0396,3.1383,3.1705,3.1705,0.0,0.0,0.0,0.0,0.0,0.0,0.0,0.0,0.0,0.0,0.8992,0.9037,0.9002,0.8892,0.8819,0.0,0.0,0.0,0.0,0.0,0.0,0.0,0.0,0.0,1.4364,1.537,1.5894,1.5894,1.6176,1.6321,1.6321,1.658,1.6707,1.6707,1.6707,1.6834,0.0,0.0,0.0,0.0,0.0,0.0,0.0,0.0,0.0,0.0,2.0877,2.2005,0.0,0.0,0.0,0.0,0.0,0.0,0.0,0.0,3.3005,3.4078,3.4486,0.0,3.4619,3.4751,3.4775,3.4775,0.0,3.4775,3.4775,3.4775,3.4981,3.5175,3.5368,3.562,3.5908,3.6181,3.6263,3.6323,3.6405,3.6405,3.6619,3.7123,3.6857,3.682,3.7324,3.6872,3.6546,3.6498,3.6173,3.6051,3.6216,3.58,3.5668,3.5812,3.5368,3.503,3.4775,3.3801,3.3284,3.3272,3.1986,3.1339,3.1339,3.1104,3.1003,3.1003,3.1003,3.1003,3.1003,3.1003,3.1003,3.1003,3.125,3.1339,3.1383,3.1617,3.1705,3.1705,0.0,0.0,0.0,0.0,0.0,0.0,0.0,0.0,0.0,0.0,0.0,0.0,0.0,0.0,0.0,0.0,0.0,0.0,0.0,0.0,0.0,0.0,0.0,1.2686,1.3188,1.4439,1.5127,1.5264,1.6062,1.6565,1.6718,1.6996,1.7108,1.7108,1.7108,1.7275,0.0,0.0,0.0,0.0,1.8003,0.0,0.0,0.0,0.0,0.0,2.0701,2.1687,0.0,2.4245,2.4967,2.5441,0.0,0.0,0.0,0.0,3.2957,3.4414,3.4703,3.4775,3.4775,3.4775,3.4775,3.4775,3.4775,3.4775,3.4775,3.4775,3.503,3.5223,3.5368,3.5519,3.5677,3.5818,3.5734,3.5604,3.5604,3.5604,3.5717,3.6019,3.5793,3.573,3.6019,3.6019,3.5994,3.5994,3.6091,3.6228,3.6405,3.6121,3.6003,3.6015,3.562,3.5271,3.4981,3.3848,3.3284,3.3272,3.2223,3.1705,3.1705,3.1705,3.1705,3.1705,3.1705,3.1705,3.1705,3.1705,3.1705,3.1705,3.1705,3.1705,3.1705,3.1705,3.1705,3.1705,0.0,0.0,0.0,0.0,0.0,0.0,0.0,0.0,0.0,0.0,0.0,0.0,0.0,0.0,0.0,0.0,0.0,0.0,0.0,0.0,0.0,0.0,0.0,1.1165,1.2088,1.3418,1.4265,1.4503,1.5976,1.6859,1.7228,1.7468,1.7582,1.7589,1.7629,1.7802,0.0,1.8042,1.8263,1.849,1.849,0.0,0.0,0.0,0.0,0.0,0.0,0.0,0.0,2.455,2.5339,2.5737,2.6401,0.0,0.0,0.0,0.0,0.0,3.4775,3.4775,3.4775,3.4775,3.4775,3.4775,3.4775,3.4775,3.4775,3.4775,3.503,3.5271,3.5271,3.5273,3.5242,3.5242,3.4953,3.468,3.468,3.468,3.468,3.468,3.465,3.46,3.46,3.4969,3.5282,3.537,3.5931,3.6317,3.6405,3.6405,3.6323,3.6051,3.5764,3.5524,3.532,3.4002,3.3284,3.3272,3.2223,3.1705,3.1705,3.1705,3.1705,3.1705,3.1705,0.0,3.1705,3.1705,3.1705,3.1705,3.1705,3.1705,3.1705,3.1705,3.1705,3.1705,0.0,0.0,0.0,0.0,0.0,0.0,0.0,0.0,0.0,0.0,0.0,0.0,0.0,0.0,0.0,0.0,0.0,0.0,0.0,0.0,0.0,0.9191,1.0038,1.0547,1.0699,1.2951,1.4261,1.4579,1.6002,1.6884,1.7219,1.7463,1.7582,1.7595,1.7856,1.7949,1.8009,1.8317,1.845,1.849,1.849,0.0,0.0,0.0,0.0,0.0,0.0,0.0,0.0,2.4602,2.5539,2.5872,2.6536,0.0,0.0,0.0,0.0,0.0,3.4568,3.4775,3.4775,3.4775,3.4775,3.4775,3.4775,3.4775,3.4775,3.4775,3.5175,3.5524,3.5524,3.5496,3.5462,3.5462,3.5044,3.468,3.468,3.468,3.468,3.468,3.4311,3.4022,3.4022,3.411,3.4349,3.4768,3.532,3.5868,3.638,3.6405,3.6358,3.6323,3.5847,3.5668,3.5872,3.4143,3.3284,3.3272,3.2223,3.1705,3.1705,3.1705,3.1705,3.1705,0.0,3.1705,3.1705,3.1705,3.1705,3.1705,3.1705,3.1705,3.1705,3.1705,3.1705,3.1705,0.0,0.0,0.0,0.0,0.0,0.0,0.0,0.0,0.0,0.0,0.0,0.0,0.0,0.0,0.0,0.0,0.0,0.0,0.0,0.0,0.0,0.8885,0.9981,1.058,1.058,1.2268,1.3715,1.4841,1.6078,1.6948,1.743,1.7529,1.7582,1.7595,1.7856,1.8082,1.8303,1.8604,1.8818,1.8965,0.0,0.0,0.0,0.0,0.0,0.0,0.0,0.0,0.0,0.0,2.5349,2.624,2.6908,0.0,0.0,0.0,0.0,0.0,3.4519,3.4775,3.4775,3.4775,3.4775,3.4775,3.4775,3.4775,3.4823,3.4981,3.532,3.5582,3.5429,3.5201,3.4856,3.4311,3.3997,3.3834,3.3834,3.3834,3.3834,3.3834,3.3608,3.3458,3.3458,3.3721,3.4123,3.4675,3.5194,3.578,3.638,3.6405,3.6405,3.6405,3.6003,3.5872,3.6015,3.4458,3.3596,3.3446,3.2268,3.1705,3.1705,3.1705,3.1705,3.1705,0.0,3.1705,3.1705,3.1705,3.1705,3.1705,3.1705,3.1705,3.1705,3.1705,3.1705,3.1705,0.0,0.0,0.0,0.0,0.0,0.0,0.0,0.0,0.0,0.0,0.0,0.0,0.0,0.0,0.0,0.0,0.0,0.0,0.0,0.0,0.9047,0.932,1.0186,1.0726,1.0726,1.2091,1.3555,1.5013,1.614,1.6995,1.7582,1.7582,1.7582,1.7602,1.7983,1.8277,1.8517,1.8878,1.9158,1.9424,0.0,0.0,0.0,0.0,0.0,0.0,0.0,0.0,0.0,0.0,0.0,0.0,0.0,0.0,0.0,3.1,3.2123,3.3101,3.4421,3.4775,3.4775,3.4775,3.4775,3.4775,3.4775,3.4823,3.4932,3.5175,3.5464,3.5604,3.5248,3.4819,3.4211,3.3232,3.3124,3.3124,3.3124,3.3124,3.3124,3.3124,3.3124,3.3124,3.3124,3.3458,3.3935,3.4487,3.4994,3.5545,3.6144,3.6329,3.6405,3.6405,3.6146,3.6015,3.6098,3.4691,3.3873,3.3572,3.2357,3.1761,3.1705,3.1705,3.1705,3.1705,3.1705,3.1705,3.1705,3.1705,3.1705,3.1705,3.1705,3.1705,3.1705,3.1705,3.1705,3.1705,0.0,0.0,0.0,0.0,0.0,0.0,0.0,0.0,0.0,0.0,0.0,0.0,0.0,0.0,0.0,0.0,0.0,0.0,0.0,0.0,0.9427,1.0511,1.0672,1.0726,1.0726,1.2911,1.4374,1.5013,1.614,1.6995,1.7582,1.7582,1.7582,1.7609,1.8196,1.847,1.8531,1.9098,1.941,1.9424,1.9424,0.0,0.0,0.0,0.0,0.0,0.0,0.0,0.0,0.0,0.0,0.0,0.0,0.0,2.8048,3.0452,3.1389,3.2185,3.4225,3.4775,3.4775,3.4775,3.4775,3.4775,3.4775,3.4981,3.5175,3.5223,3.562,3.5794,3.5307,3.4507,3.3771,3.3169,3.3124,3.3124,3.3124,3.3124,3.3124,3.3124,3.3124,3.3124,3.3124,3.3106,3.337,3.3922,3.4462,3.4969,3.5533,3.6094,3.6405,3.6405,3.6146,3.6098,3.6358,3.4771,3.3873,3.3572,3.2504,3.1893,3.1705,3.1705,3.1705,3.1705,3.1705,3.1705,3.1705,3.1705,3.1705,3.1705,3.1705,3.1705,3.1705,3.1705,3.1705,3.1705,0.0,0.0,0.0,0.0,0.0,0.0,0.0,0.0,0.0,0.0,0.0,0.0,0.0,0.0,0.0,0.0,0.0,0.0,0.0,0.8885,0.9099,0.9537,1.1004,1.176,1.176,1.3349,1.4809,1.6086,1.6836,1.7371,1.7582,1.7582,1.7689,1.7889,1.8303,1.8591,1.8784,1.9192,1.9424,1.9424,1.9424,1.9424,0.0,0.0,0.0,0.0,0.0,0.0,0.0,0.0,2.5008,2.6636,2.6944,2.7152,2.7887,3.039,3.1338,3.2083,3.4225,3.4775,3.4775,3.4775,3.4775,3.4823,3.503,3.5126,3.5271,3.562,3.5872,3.5789,3.5032,3.4091,3.3319,3.3106,3.3124,3.3124,3.3124,3.3124,3.3124,3.3124,3.3124,3.3124,3.3124,3.3124,3.3307,3.3859,3.4412,3.4919,3.547,3.6056,3.6405,3.6405,3.6323,3.6113,3.5855,3.4919,3.4144,3.3527,3.2656,3.2125,3.1893,3.1893,3.1805,3.1705,3.1705,3.1705,3.1705,3.1705,3.1705,3.1705,3.1705,3.1705,3.1705,3.1705,3.1705,3.1705,0.0,0.0,0.0,0.0,0.0,0.0,0.0,0.0,0.0,0.0,0.0,0.0,0.0,0.0,0.0,0.0,0.0,0.0,0.8885,0.8885,0.9047,0.9427,1.1332,1.258,1.2965,1.4213,1.5452,1.6677,1.7318,1.7582,1.7582,1.7582,1.7749,1.8009,1.8357,1.8651,1.8945,1.9239,1.9424,1.9424,1.9424,1.9424,0.0,0.0,0.0,0.0,0.0,0.0,0.0,0.0,2.4612,2.6646,0.0,2.7053,2.7672,2.9838,3.0927,3.1858,3.3758,3.4531,3.4775,3.4775,3.4655,3.4667,3.5187,3.5332,3.5464,3.592,3.5777,3.5397,3.4818,3.3822,3.3124,3.3124,3.3124,3.3124,3.3124,3.3124,3.3124,3.3124,3.3124,3.3124,3.3124,3.3124,3.3232,3.3608,3.4148,3.4655,3.5207,3.5805,3.6182,3.6405,3.6194,3.5931,3.5495,3.4781,3.4184,3.3619,3.2953,3.2431,3.2125,3.2125,3.2038,3.1937,3.1937,3.1893,3.1805,3.1805,3.1761,3.1705,3.1705,3.1705,3.1705,3.1705,3.1705,3.1705,0.0,0.0,0.0,0.0,0.0,0.0,0.0,0.0,0.0,0.0,0.0,0.0,0.0,0.0,0.0,0.0,0.0,0.0,0.8885,0.8885,0.9427,1.0672,1.1814,1.296,1.4164,1.5571,1.6424,1.6677,1.7318,1.7582,1.7582,1.7582,1.7749,1.8009,1.8357,1.8651,1.8945,1.9239,1.9424,1.9424,1.9424,1.9424,1.9424,0.0,0.0,0.0,0.0,0.0,0.0,0.0,2.4612,2.6591,0.0,0.0,0.0,2.8668,3.0047,3.1418,3.2839,3.3967,3.4775,3.4775,3.439,3.4269,3.5342,3.5608,3.5656,3.5955,3.5319,3.468,3.4668,3.3822,3.3124,3.3124,3.3124,3.3124,3.3124,3.3124,3.3124,3.3124,3.3124,3.3124,3.3124,3.3124,3.3124,3.3124,3.3583,3.4135,3.4675,3.5194,3.578,3.6367,3.5818,3.5495,3.5483,3.4449,3.3897,3.3884,3.3332,3.2865,3.24,3.24,3.24,3.24,3.24,3.2257,3.1994,3.1994,3.1893,3.1705,3.1705,3.1705,3.1705,3.1705,3.1705,3.1705,0.0,0.0,0.0,0.0,0.0,0.0,0.0,0.0,0.0,0.0,0.0,0.0,0.0,0.0,0.0,0.0,0.0,0.0,0.8885,0.8885,0.9427,1.0672,1.1814,1.3063,1.4476,1.6099,1.6961,1.7067,1.743,1.7582,1.7582,1.7582,1.7749,1.8009,1.8357,1.8651,1.8945,1.9239,1.9424,1.9424,1.9424,1.9424,1.9424,0.0,0.0,0.0,0.0,0.0,0.0,0.0,0.0,0.0,2.6309,0.0,0.0,2.8668,3.0047,3.1418,3.2839,3.3967,3.4775,3.4775,3.439,3.4125,3.4627,3.4901,3.5149,3.5559,3.5136,3.4555,3.4211,3.3558,3.3124,3.3124,3.3124,3.3124,3.3124,3.3124,3.3124,3.3124,3.3124,3.3124,3.3124,3.3124,3.3124,3.3124,3.3583,3.3972,3.4135,3.4663,3.5039,3.5203,3.5052,3.4776,3.4399,3.406,3.3709,3.3319,3.3156,3.2952,3.2593,3.2593,3.2519,3.24,3.24,3.2257,3.1994,3.1994,3.1893,3.1705,3.1849,3.1805,3.1705,3.1705,3.1705,3.1705,0.0,0.0,0.0,0.0,0.0,0.0,0.0,0.0,0.0,0.0,0.0,0.0,0.0,0.0,0.0,0.0,0.0,0.0,0.0,0.9375,0.9915,1.0672,1.2354,1.4035,1.5601,1.6683,1.7226,1.7384,1.7536,1.7582,1.7582,1.7582,1.7749,1.8002,1.8237,1.8544,1.8931,1.9118,1.9259,1.9424,1.9424,1.9424,1.9424,0.0,0.0,0.0,0.0,0.0,0.0,0.0,0.0,0.0,2.619,2.6691,2.7053,2.7985,2.9525,3.1173,3.2101,3.3549,3.4775,3.4775,3.4282,3.3775,3.3896,3.4296,3.4721,3.5136,3.4776,3.4299,3.396,3.3445,3.3197,3.3581,3.3611,3.3725,3.4037,3.4066,3.4066,3.4066,3.4066,3.3953,3.3654,3.3611,3.3454,3.3124,3.3382,3.3671,3.3884,3.4211,3.45,3.4668,3.4512,3.4236,3.3897,3.3684,3.3407,3.3124,3.3124,3.3025,3.2853,3.2853,3.2766,3.2649,3.2475,3.23,3.2125,3.1937,3.1849,3.1805,3.1849,3.1849,3.1805,3.1805,3.1749,3.1705,0.0,0.0,0.0,0.0,0.0,0.0,0.0,0.0,0.0,0.0,0.0,0.0,0.0,0.0,0.0,0.0,0.0,0.0,0.0,0.0,1.0726,1.0836,1.3383,1.5547,1.7179,1.7232,1.7384,1.7582,1.7582,1.7582,1.7582,1.7582,1.7736,1.7955,1.7975,1.8302,1.8885,1.8911,1.9092,1.9424,1.9424,1.9424,1.9424,1.9424,0.0,0.0,0.0,0.0,0.0,0.0,0.0,0.0,2.6081,2.6527,2.6636,2.6944,2.8754,3.0762,3.1008,3.2917,3.4775,3.4775,3.4054,3.3266,3.3126,3.3731,3.4375,3.4593,3.4248,3.3928,3.3953,3.3537,3.3484,3.4384,3.4509,3.4772,3.5507,3.5615,3.5615,3.5615,3.5615,3.5305,3.4592,3.4509,3.4147,3.3283,3.3197,3.3381,3.3796,3.3822,3.406,3.4562,3.4085,3.3822,3.3822,3.3319,3.3124,3.3124,3.3124,3.3124,3.3124,3.3124,3.3124,3.3068,3.2605,3.2431,3.2344,3.1981,3.1893,3.1994,3.1849,3.1893,3.2038,3.2038,3.1937,3.1805,0.0,0.0,0.0,0.0,0.0,0.0,0.0,0.0,0.0,0.0,0.0,0.0,0.0,0.0,0.0,0.0,0.0,0.0,0.0,0.0,1.1109,1.1982,1.4733,1.6577,1.7179,1.7437,1.7529,1.7582,1.7582,1.7582,1.7582,1.7582,1.7615,1.7695,1.7936,1.8243,1.8597,1.8824,1.9092,1.9424,1.9424,1.9424,1.9424,1.9424,1.9424,0.0,0.0,0.0,0.0,0.0,0.0,0.0,2.4787,2.5852,2.6636,2.6944,2.8754,3.0762,3.1008,3.2917,3.4775,3.4775,3.4054,3.317,3.2705,3.322,3.3885,3.4016,3.3985,3.3978,3.425,3.4195,3.4384,3.5196,3.5346,3.5386,3.5588,3.5615,3.5615,3.5615,3.5615,3.5534,3.5346,3.5346,3.5006,3.4189,3.4105,3.3874,3.3287,3.3257,3.3307,3.3432,3.3319,3.3257,3.3257,3.3174,3.3124,3.3124,3.3124,3.3124,3.3124,3.3124,3.3124,3.3068,3.2766,3.255,3.2388,3.2463,3.2288,3.2025,3.2363,3.2419,3.23,3.23,3.23,3.2213,0.0,0.0,0.0,0.0,0.0,0.0,0.0,0.0,0.0,0.0,0.0,0.0,0.0,0.0,0.0,0.0,0.0,0.0,0.0,0.0,1.1596,1.355,1.5767,1.706,1.7378,1.7536,1.7582,1.7582,1.7582,1.7582,1.7582,1.7582,1.7582,1.7589,1.7749,1.7996,1.8297,1.8591,1.8885,1.9165,1.937,1.9424,1.9424,1.9424,1.9424,1.9424,1.9424,0.0,0.0,0.0,0.0,0.0,0.0,0.0,2.5907,2.6618,2.8445,3.0411,3.0813,3.2616,3.4422,3.4414,3.3861,3.3172,3.2698,3.2754,3.3106,3.3784,3.4349,3.4753,3.4936,3.4965,3.5251,3.6082,3.6241,3.636,3.6791,3.683,3.683,3.683,3.683,3.6674,3.6267,3.6241,3.5883,3.5047,3.4965,3.4607,3.3781,3.3738,3.3526,3.3124,3.3124,3.3124,3.3124,3.3124,3.3124,3.3124,3.3124,3.3124,3.3124,3.3124,3.3124,3.3081,3.281,3.2636,3.2562,3.255,3.2463,3.2332,3.2506,3.255,3.2562,3.2562,3.2475,3.2388,0.0,0.0,0.0,0.0,0.0,0.0,0.0,0.0,0.0,0.0,0.0,0.0,0.0,0.0,0.0,0.0,0.0,0.0,0.0,0.0,0.0,1.4953,1.6418,1.7331,1.7582,1.7582,1.7582,1.7582,1.7582,1.7582,1.7582,1.7582,1.7582,1.7582,1.7582,1.7756,1.8009,1.8364,1.8657,1.8951,1.9252,1.9424,1.9424,1.9424,1.9332,1.9292,1.9292,1.9292,1.9465,2.0473,0.0,0.0,0.0,0.0,2.5064,2.6254,2.8048,2.9807,3.0411,3.2224,3.396,3.3887,3.3635,3.3319,3.3004,3.2637,3.2736,3.3985,3.484,3.5413,3.5735,3.5815,3.6108,3.6975,3.713,3.7376,3.8089,3.8202,3.8202,3.8202,3.8202,3.7924,3.7169,3.713,3.6766,3.5909,3.5815,3.54,3.4439,3.4397,3.3992,3.3111,3.3124,3.3124,3.3124,3.3124,3.3124,3.3124,3.3124,3.3124,3.3124,3.3124,3.3124,3.3081,3.2853,3.2766,3.2667,3.2562,3.2605,3.2667,3.2562,3.2636,3.2766,3.2766,3.268,3.2519,0.0,0.0,0.0,0.0,0.0,0.0,0.0,0.0,0.0,0.0,1.1908,0.0,0.0,0.0,0.0,0.0,0.0,0.0,0.0,0.0,0.0,1.528,1.6524,1.7331,1.7582,1.7582,1.7582,1.7582,1.7582,1.7582,1.7582,1.7582,1.7582,1.7582,1.7582,1.7756,1.8009,1.8364,1.8657,1.8951,1.9252,1.9424,1.9424,1.9424,1.9205,1.8985,1.8985,1.8985,1.8985,1.9149,2.0103,0.0,0.0,0.0,2.5064,2.6254,2.7609,2.8946,2.9807,3.1982,3.3873,3.3394,3.3601,3.3848,3.355,3.3677,3.4089,3.5103,3.4727,3.4719,3.6399,3.6727,3.7014,3.7886,3.8037,3.8089,3.8165,3.8202,3.8202,3.8202,3.8202,3.8165,3.8037,3.8037,3.7644,3.6805,3.6727,3.6056,3.4481,3.4397,3.3992,3.3111,3.3124,3.3124,3.3124,3.3124,3.3124,3.3124,3.3124,3.3124,3.3124,3.3124,3.3124,3.3124,3.3081,3.2896,3.2723,3.2896,3.2896,3.2723,3.2952,3.3025,3.3038,3.3038,3.3038,3.2995,0.0,0.0,0.0,0.0,0.0,0.0,0.0,0.0,0.0,0.0,0.0,1.3715,0.0,0.0,0.0,0.0,0.0,0.0,0.0,0.0,0.0,1.5322,1.6677,1.7483,1.7582,1.7582,1.7582,1.7582,1.7582,1.7891,1.8513,1.8513,1.8199,1.7635,1.8251,1.8229,1.7809,1.811,1.8317,1.8415,1.8931,1.9118,1.9138,1.9305,1.9185,1.8925,1.8925,1.8925,1.8925,1.8925,1.9455,2.0385,2.1631,0.0,0.0,0.0,2.6799,2.8489,3.0182,3.1971,3.3403,3.3599,3.3826,3.3982,3.3847,3.3722,3.4043,3.5475,3.5439,3.5555,3.7038,3.7275,3.7505,3.8089,3.8202,3.8202,3.8202,3.8202,3.8202,3.8202,3.8202,3.8202,3.8202,3.8202,3.8037,3.7644,3.7644,3.7092,3.587,3.5332,3.469,3.3852,3.3368,3.3124,3.3124,3.3124,3.3124,3.3124,3.3124,3.3124,3.3124,3.3124,3.3124,3.3124,3.3124,3.3025,3.2939,3.3038,3.3025,3.2939,3.3068,3.3124,3.3124,3.3124,3.3124,3.3068,0.0,0.0,0.0,0.0,0.0,0.0,0.0,0.0,0.0,0.0,0.0,0.0,0.0,0.0,0.0,0.0,0.0,0.0,0.0,0.0,0.0,1.547,1.6876,1.7582,1.7582,1.7582,1.7582,1.7582,1.7582,1.8146,1.9228,1.9487,1.9235,1.8461,1.928,1.9183,1.8482,1.8698,1.8831,1.8879,1.9091,1.9192,1.9212,1.9172,1.8958,1.8641,1.8641,1.8641,1.8655,1.8791,1.9011,1.9496,2.0809,2.196,0.0,0.0,0.0,2.8062,2.9838,3.1348,3.2527,3.3162,3.3637,3.3995,3.3995,3.3755,3.3881,3.5271,3.5603,3.592,3.6833,3.7597,3.8173,3.8467,3.862,3.8681,3.8681,3.8681,3.8623,3.8463,3.8449,3.8391,3.8217,3.8202,3.8202,3.8202,3.8202,3.781,3.6936,3.6068,3.5237,3.4439,3.3526,3.3124,3.3124,3.3124,3.3124,3.3124,3.3124,3.3124,3.3124,3.3124,3.3124,3.3124,3.3124,3.3124,3.3124,3.3124,3.3124,3.3124,3.3124,3.3124,3.3124,3.3124,3.3124,3.3124,0.0,0.0,0.0,0.0,0.0,0.0,0.0,0.0,0.0,0.0,0.0,0.0,1.551,1.551,1.5172,1.4508,0.0,0.0,0.0,0.0,0.0,1.5808,1.6988,0.0,1.7582,1.7582,1.7582,1.7582,1.7582,1.8146,1.9228,2.0313,2.0783,2.0731,2.0783,2.0783,2.0755,2.099,2.1139,2.1057,2.0347,2.0052,1.9942,1.8905,1.835,1.8035,1.8035,1.8035,1.8082,1.8417,1.8704,1.9219,2.0744,2.1793,2.2686,0.0,0.0,0.0,2.7825,2.9608,3.1278,3.1341,3.2689,3.4005,3.4005,3.3993,3.4038,3.4313,3.4496,3.4736,3.5304,3.7585,3.9399,3.9424,3.9755,4.0002,4.0002,4.0002,3.9784,3.9218,3.9146,3.8899,3.826,3.8202,3.8202,3.8202,3.8202,3.781,3.6936,3.6068,3.5237,3.4439,3.3526,3.3124,3.3124,3.3124,3.3124,3.3124,3.3124,3.3124,3.3124,3.3124,3.3124,3.3124,3.3124,3.3124,3.3124,3.3124,3.3124,3.3124,3.3124,3.3124,3.3124,3.3124,3.3124,3.3124,0.0,0.0,0.0,0.0,0.0,0.0,0.0,0.0,0.0,0.0,0.0,0.0,0.0,1.6976,1.6276,1.5614,1.4189,0.0,0.0,0.0,0.0,1.6935,1.7364,1.7582,1.7582,1.7582,1.7582,1.7582,1.7582,1.8513,2.0313,2.0731,2.165,2.2979,2.2266,2.1548,2.0893,2.102,2.1016,2.104,2.0914,2.0468,1.9801,1.9638,1.8885,1.7995,1.7995,1.7995,1.8035,1.839,1.8684,1.9001,1.9551,2.094,2.2715,2.4456,2.5459,2.612,2.6548,2.8076,2.9595,2.9844,3.127,3.2657,3.2993,3.3043,3.3277,3.4193,3.4749,3.5283,3.5966,3.6866,3.7681,3.8193,3.8398,3.8577,3.8846,3.8884,3.8797,3.858,3.8565,3.8463,3.8217,3.8202,3.8202,3.8202,3.8202,3.8037,3.7758,3.6385,3.5467,3.5156,3.3839,3.3124,3.3124,3.3124,3.3124,3.3124,3.3124,3.3124,3.3124,3.3124,3.3124,3.3124,3.3124,3.3124,3.3124,3.3124,3.3124,3.3124,3.3124,3.3124,3.3124,3.3124,3.3124,3.3124,0.0,0.0,0.0,0.0,0.0,0.0,0.0,0.0,0.0,0.0,0.0,0.0,0.0,0.0,1.7103,1.6148,1.5054,1.4679,1.5375,1.5583,1.6287,1.7529,1.7582,1.7582,1.7582,1.7582,1.7582,1.7582,1.7582,1.8715,2.0885,2.0885,2.2055,2.4152,2.3388,2.2669,2.2005,2.2005,2.2005,2.1979,2.1802,2.1279,2.0571,1.9997,1.9213,1.8364,1.7996,1.7902,1.8035,1.839,1.8684,1.8925,1.8925,2.0315,2.2476,2.4602,2.512,2.5085,2.5494,2.6535,2.7645,2.8172,2.9518,3.0863,3.1588,3.1867,3.2235,3.3065,3.3759,3.4382,3.4917,3.5303,3.6068,3.7538,3.8044,3.8317,3.8611,3.8764,3.8754,3.8565,3.8536,3.8449,3.8217,3.8202,3.8202,3.8202,3.8202,3.8202,3.8202,3.683,3.5789,3.5196,3.3839,3.3124,3.3124,3.3124,3.3124,3.3124,3.3124,3.3124,3.3124,3.3124,3.3124,3.3124,3.3124,3.3124,3.3124,3.3124,3.3124,3.3124,3.3124,3.3124,3.3124,3.3124,3.3124,3.3124,0.0,0.0,0.0,0.0,0.0,0.0,0.0,0.0,0.0,1.9417,0.0,0.0,0.0,0.0,0.0,1.6096,1.5671,1.547,1.547,1.547,1.6121,1.7529,0.0,0.0,1.7582,1.7582,1.7582,1.7582,1.7582,1.8715,2.0885,2.0885,2.2055,2.4202,2.4202,2.4202,2.4202,2.4202,2.4202,2.4102,2.2987,2.2526,2.2274,2.0099,1.928,1.9072,1.7996,1.7776,1.8029,1.8384,1.8677,1.8911,1.8961,2.0066,2.1752,2.4059,2.4505,2.4266,0.0,0.0,0.0,2.6262,2.7442,2.8716,2.9886,3.0531,3.0927,3.0865,3.1388,3.1918,3.1977,3.2983,3.478,3.7579,3.8816,3.9424,3.9424,3.9769,3.9828,3.9209,3.9175,3.8913,3.826,3.8202,3.8202,3.8202,3.8202,3.8202,3.8202,3.7376,3.6096,3.4439,3.3526,3.3124,3.3124,3.3124,3.3124,3.3124,3.3124,3.3124,3.3124,3.3124,3.3124,3.3124,3.3124,3.3124,3.3124,3.3124,3.3124,3.3124,3.3124,3.3124,3.3124,3.3124,3.3124,3.3124,0.0,0.0,0.0,0.0,0.0,0.0,0.0,0.0,1.9292,0.0,0.0,0.0,1.8282,1.8016,1.7636,1.7164,1.7027,1.6988,1.6988,1.6988,1.7147,1.7582,1.7582,1.7582,1.7582,1.7582,1.7582,1.7582,1.7582,1.8715,2.0885,2.0885,2.2055,2.4202,2.4202,2.4202,2.4202,2.4202,2.4202,2.4152,2.3845,2.3238,2.2426,2.1802,2.057,1.9176,1.8871,1.8307,1.7789,1.8317,1.8544,1.8882,2.0505,2.1008,2.1391,2.3309,2.3804,2.3611,2.3134,0.0,0.0,0.0,0.0,0.0,2.8432,2.9038,2.9427,2.9773,3.0603,3.1344,3.1345,3.2043,3.2998,3.422,3.6002,3.7354,3.7656,3.8047,3.8222,3.805,3.8303,3.8405,3.8217,3.8202,3.8202,3.8202,3.8202,3.8202,3.8202,3.6791,3.548,3.4439,3.3526,3.3124,3.3124,3.3124,3.3124,3.3124,3.3124,3.3124,3.3124,3.3124,3.3124,3.3124,3.3124,3.3124,3.3124,3.3124,3.3124,3.3124,3.3124,3.3124,3.3124,3.3124,3.3124,3.3124,0.0,0.0,0.0,0.0,0.0,0.0,0.0,1.9265,1.9118,0.0,0.0,0.0,1.7903,1.7689,1.7582,1.7582,1.7582,1.7582,1.7582,1.7582,1.7582,1.7582,1.7582,1.7582,1.7582,1.7582,1.7582,1.7582,1.8042,1.9183,2.0885,2.1344,2.2518,2.4202,2.4202,2.4202,2.4202,2.4301,2.4301,2.4202,2.4202,2.3795,2.3138,2.2677,2.17,2.0518,2.0055,1.9271,1.8575,1.9015,1.8857,1.8954,2.1492,2.1651,2.1221,2.3015,2.338,2.3105,2.2455,2.2703,2.3195,2.3653,0.0,0.0,2.6736,2.7422,2.7985,2.8637,2.9289,2.989,3.0323,3.0899,3.153,3.2137,3.3582,3.5031,3.6209,3.694,3.7419,3.7586,3.7801,3.8028,3.8165,3.8202,3.8202,3.8202,3.8202,3.8202,3.8202,3.6869,3.5762,3.4937,3.4092,3.3454,3.3124,3.3124,3.3124,3.3124,3.3124,3.3124,3.3124,3.3124,3.3124,3.3124,3.3124,3.3124,3.3124,3.3124,3.3124,3.3124,3.3124,3.3124,3.3124,3.3124,3.3124,3.3124,0.0,0.0,0.0,0.0,0.0,0.0,0.0,1.9092,1.8905,0.0,1.8282,1.7836,1.7609,1.7582,1.7582,1.7582,1.7582,1.7582,1.7582,1.7582,1.7582,1.7582,1.7582,1.7582,1.7582,1.7582,1.7582,1.7582,1.8662,1.9797,2.0936,2.2013,0.0,0.0,0.0,2.4251,2.4251,2.444,2.444,2.4301,2.4301,2.4301,2.4152,2.3129,2.2627,2.2417,2.1446,2.0558,1.9863,2.0133,1.9633,1.9352,2.2107,2.2109,2.1365,2.2961,2.3178,2.2803,2.2336,2.1961,2.1865,2.2627,2.3256,0.0,2.5062,2.5799,2.6528,2.7464,2.7667,2.803,2.9028,2.9658,3.0259,3.0904,3.1495,3.2671,3.4901,3.6011,3.6777,3.7275,3.7404,3.7649,3.8089,3.8165,3.8202,3.8202,3.8202,3.8202,3.8202,3.7376,3.6517,3.5775,3.4855,3.4021,3.324,3.3167,3.3124,3.3124,3.3124,3.3124,3.3124,3.3124,3.3124,3.3124,3.3124,3.3124,3.3124,3.3124,3.3124,3.3124,3.3124,3.3124,3.3124,3.3124,3.3124,3.3124,0.0,0.0,0.0,0.0,0.0,0.0,0.0,1.8958,1.8758,1.8229,1.7896,1.7649,1.7589,1.7582,1.7582,1.7582,1.7582,1.7582,1.7582,1.7582,1.7582,1.7582,1.7582,1.7582,1.7582,1.7582,1.7582,1.7582,1.8662,1.9797,0.0,0.0,0.0,0.0,2.439,2.444,2.444,2.4686,2.4784,2.4735,2.4735,2.4735,2.4735,2.4282,2.3569,2.2743,2.2367,2.1546,2.0726,2.0958,2.1147,2.1425,2.263,2.263,2.2289,2.2841,2.2968,2.2748,2.2007,2.1751,2.1865,2.2627,2.2882,0.0,2.3963,2.4531,2.5084,2.583,2.6268,2.6857,2.799,2.8274,2.8655,2.9607,3.0265,3.1289,3.3162,3.3858,3.4567,3.5614,3.6373,3.7028,3.7649,3.8014,3.8202,3.8202,3.8202,3.8202,3.8202,3.7376,3.6805,3.6649,3.5196,3.4314,3.4147,3.3454,3.3124,3.3124,3.3124,3.3124,3.3124,3.3124,3.3124,3.3124,3.3124,3.3124,3.3124,3.3124,3.3124,3.3124,3.3124,3.3124,3.3124,3.3124,3.3124,3.3124,0.0,1.9252,0.0,0.0,0.0,0.0,0.0,0.0,1.8542,1.8083,1.7776,1.7582,1.7582,1.7582,1.7582,1.7582,1.7582,1.7582,1.7582,1.7582,1.7582,1.7582,1.7582,1.7582,1.7582,1.7582,1.7582,1.7582,0.0,0.0,0.0,0.0,0.0,2.4341,2.444,2.4578,2.4735,2.499,2.5088,2.5088,2.4932,2.4883,2.4883,2.4735,2.4372,2.3859,2.3569,2.2961,2.2212,2.1987,2.1901,2.2081,2.3237,2.2955,2.2272,2.2736,2.2757,2.2465,2.1851,2.1696,2.1776,2.2176,2.2539,0.0,0.0,2.3724,2.4317,2.4872,2.5463,2.6102,2.691,2.733,2.7777,2.8538,2.8915,2.9565,3.0906,3.2332,3.3506,3.4297,3.5036,3.5869,3.6989,3.726,3.7606,3.8165,3.8202,3.8202,3.8202,3.781,3.7376,3.6897,3.6056,3.5237,3.4397,3.3992,3.3526,3.3124,3.3124,3.3124,3.3124,3.3124,3.3124,3.3124,3.3124,3.3124,3.3124,3.3124,3.3124,3.3124,3.3124,3.3124,3.3124,3.3124,3.3124,3.3124,1.9364,1.9169,0.0,0.0,0.0,0.0,0.0,0.0,1.8447,1.807,1.7795,1.7582,1.7582,1.7635,1.7641,1.7582,1.7635,1.7641,1.7582,1.7582,1.7582,1.7582,1.7582,1.7582,1.7582,1.7582,1.7687,1.7891,0.0,0.0,0.0,0.0,2.4301,2.448,2.4529,2.4735,2.4981,2.5235,2.5382,2.5333,2.5137,2.503,2.5039,2.4981,2.4981,2.4932,2.4677,2.4289,2.3852,2.3113,2.2697,2.27,2.3862,2.326,2.2315,2.2777,2.2611,2.219,2.1797,2.1696,2.1696,2.1696,2.2141,2.2583,0.0,0.0,0.0,2.4069,2.4616,2.5158,2.5768,2.6434,2.7021,2.7505,2.776,2.8143,2.8925,3.0852,3.2447,3.3105,3.3747,3.4637,3.6042,3.6413,3.7053,3.8127,3.8202,3.8202,3.8202,3.8202,3.7886,3.7169,3.6975,3.6175,3.4662,3.4481,3.3937,3.3124,3.3124,3.3124,3.3124,3.3124,3.3124,3.3124,3.3124,3.3124,3.3124,3.3124,3.3124,3.3124,3.3124,3.3124,3.3124,3.3124,3.3124,3.3124,1.9285,1.9251,1.9285,0.0,0.0,0.0,0.0,0.0,1.8633,1.8105,1.7767,1.7582,1.7582,1.7799,1.7859,1.7635,1.7799,1.7859,1.7635,1.7582,1.7582,1.7582,1.7582,1.7582,1.7582,1.7582,1.8048,1.902,0.0,0.0,0.0,0.0,0.0,2.4529,2.4735,2.4981,2.5284,2.5538,2.5635,2.5635,2.5635,2.5586,2.5586,2.5342,2.5235,2.5235,2.4932,2.5026,2.5185,2.4479,2.4468,2.4661,2.433,2.377,2.3262,2.2975,2.2611,2.219,2.1797,2.1696,2.1696,2.1696,2.1785,2.182,2.182,0.0,2.2132,2.2838,0.0,2.344,2.4498,0.0,0.0,2.6321,2.7249,2.7945,2.8044,2.903,3.0306,3.1897,3.2853,3.372,3.4472,3.5789,3.7053,3.8127,3.8202,3.8202,3.8202,3.8202,3.8165,3.8037,3.7285,3.6439,3.5467,3.4744,3.3937,3.3124,3.3124,3.3124,3.3124,3.3124,3.3124,3.3124,3.3124,3.3124,3.3124,3.3124,3.3124,3.3124,3.3124,3.3124,3.3124,3.3124,3.3124,3.3124,1.9433,1.9199,1.929,0.0,0.0,0.0,0.0,0.0,2.0452,2.0158,2.0033,1.9973,1.9973,1.9324,1.9228,1.9922,1.9324,1.8871,1.876,1.876,1.8401,1.7635,1.7582,1.7582,1.7582,1.8199,1.8767,1.9176,2.0987,0.0,0.0,0.0,0.0,2.4735,2.503,2.5284,2.5538,2.5635,2.5693,2.5693,2.5693,2.5693,2.5693,2.5586,2.544,2.5284,2.5186,2.5296,2.5431,2.4916,2.4749,2.4666,2.4168,2.345,2.2757,2.2593,2.2254,2.1897,2.1733,2.1696,2.1696,2.1696,2.1696,2.1696,2.1696,2.1696,2.1776,2.2087,0.0,0.0,0.0,0.0,0.0,0.0,2.5924,2.6682,2.7174,2.8199,2.9391,3.0681,3.1485,3.2386,3.361,3.5264,3.6531,3.7208,3.762,3.7938,3.8202,3.8202,3.8202,3.8202,3.7848,3.6986,3.5615,3.5278,3.4441,3.3124,3.3124,3.3124,3.3124,3.3124,3.3124,3.3124,3.3124,3.3124,3.3124,3.3124,3.3411,3.3852,3.3852,3.3539,3.3124,3.3124,3.3124,3.3124,2.0316,2.0006,2.0212,2.1146,0.0,0.0,0.0,0.0,2.1811,2.1811,2.1752,2.1702,2.1702,2.0845,2.0649,2.16,2.0845,2.0238,2.0179,2.0092,1.9679,1.8753,1.8297,1.8199,1.8617,1.902,1.9487,2.0107,0.0,0.0,0.0,0.0,0.0,0.0,2.5235,2.544,2.5742,2.6004,2.61,2.6149,2.6428,2.638,2.61,2.5781,2.5586,2.5421,2.5295,2.5294,2.5338,2.4821,2.4533,2.4292,2.3954,2.3224,2.2501,2.2501,2.2224,2.1865,2.183,2.183,2.1776,2.1741,2.1696,2.1696,2.1696,2.1696,2.1696,2.1696,2.2141,0.0,0.0,0.0,2.3637,2.3983,0.0,2.5526,2.6318,2.7389,2.8545,2.9726,3.0458,3.1473,3.2959,3.4558,3.5722,3.6201,3.6872,3.7313,3.7477,3.7477,3.7591,3.7848,3.7848,3.7116,3.5615,3.5829,3.5115,3.3454,3.3454,3.3569,3.3797,3.3569,3.3454,3.3454,3.3454,3.3326,3.3124,3.3368,3.3823,3.4439,3.462,3.433,3.3755,3.3526,3.3326,3.3124,2.2417,2.2417,2.24,2.245,2.2391,2.2391,0.0,2.224,2.2089,2.2089,2.1862,2.1702,2.1702,2.187,2.192,2.1702,2.192,2.192,2.1651,2.1371,2.132,2.155,2.0033,1.9797,2.1132,1.9893,2.0254,2.2367,0.0,0.0,0.0,0.0,0.0,0.0,2.5284,2.544,2.5781,2.6733,2.7142,2.7237,2.8215,2.8028,2.7047,2.6052,2.5684,2.5635,2.5244,2.5098,2.4992,2.4273,2.4026,0.0,0.0,0.0,2.3002,2.3002,2.2709,2.2353,2.2141,2.2097,2.2008,2.1785,2.1696,2.1696,2.1696,2.1696,2.1696,2.1696,2.1741,2.1741,2.1741,2.2353,2.2838,2.2847,2.382,0.0,0.0,2.6287,2.7492,2.9133,3.0242,3.1327,3.2427,3.3649,3.4637,3.5305,3.5963,3.6162,3.5695,3.5695,3.6068,3.6936,3.6936,3.6517,3.5615,3.6439,3.6016,3.4356,3.4356,3.4786,3.5494,3.469,3.4356,3.4356,3.4356,3.3865,3.3167,3.4021,3.4356,3.4481,3.5278,3.5534,3.5427,3.4662,3.3823,3.3124,2.4517,2.4618,2.4412,2.3692,2.2985,2.2735,2.3434,2.4057,2.447,2.447,2.4402,2.4353,2.4353,2.3642,2.3493,2.4304,2.3642,2.3135,2.3026,2.2935,2.2525,2.1752,2.1143,2.11,2.1566,2.1617,2.208,2.3053,2.3569,0.0,0.0,0.0,0.0,0.0,2.5489,2.6004,2.6686,2.7057,2.7558,2.8215,2.8588,2.8495,2.8028,2.6332,2.5693,2.5625,2.5225,2.5116,0.0,2.4468,2.3944,2.3585,2.3503,2.3081,2.2596,2.2596,2.2501,2.2397,0.0,0.0,2.222,2.2008,2.1963,2.1919,2.1741,2.1696,2.1696,2.1696,2.1696,2.1696,2.1696,2.1909,2.2087,2.2087,2.2828,2.356,0.0,2.5672,2.7179,2.8238,2.9547,3.0652,3.1363,3.2214,3.3042,3.3904,3.4774,3.5278,3.5386,3.5534,3.5749,3.6029,3.661,3.6478,3.5615,3.6478,3.6334,3.5196,3.5196,3.5359,3.5574,3.5318,3.5196,3.5196,3.5196,3.5033,3.4787,3.5074,3.5534,3.6056,3.636,3.6439,3.636,3.5521,3.4649,3.3865,2.6091,2.6074,2.5663,2.4833,2.4106,2.385,2.455,2.5274,2.5693,2.5693,2.5693,2.5693,2.5693,2.4922,2.4766,2.5635,2.4922,2.4402,2.4402,2.4304,2.3949,2.3176,2.2567,2.2466,2.2976,2.3035,2.3294,2.385,2.4372,2.4784,0.0,0.0,0.0,0.0,2.6004,2.66,2.7237,2.7981,2.8634,2.9235,2.9235,2.9235,2.905,2.74,2.6471,2.5946,0.0,2.5053,2.4587,2.4111,2.3644,2.3287,2.3287,2.3005,2.2662,2.2662,2.2662,2.2618,2.2574,2.253,0.0,2.2274,2.223,0.0,2.1919,2.183,2.183,2.183,2.1785,2.1731,2.1909,2.183,2.1731,2.183,2.2176,2.2652,0.0,2.5263,2.6835,2.7441,2.8858,2.9941,3.029,3.1306,3.2075,3.2539,3.3601,3.4262,3.4374,3.4581,3.4979,3.5574,3.6148,3.632,3.6068,3.6922,3.6922,3.6068,3.6068,3.6227,3.6503,3.6188,3.6068,3.6068,3.6068,3.5909,3.5615,3.5949,3.6399,3.6936,3.7246,3.7376,3.7246,3.6399,3.5372,3.4356,2.7021,2.6699,2.6289,2.582,2.5713,2.5693,2.5713,2.5713,2.5732,2.5742,2.5732,2.5713,2.5713,2.5703,2.5693,2.5693,2.5693,2.5693,2.5693,2.544,2.543,2.5693,2.4254,2.4007,2.5284,2.4057,2.3899,2.4932,2.4932,2.5088,0.0,0.0,0.0,0.0,2.6733,2.7237,2.7416,2.9383,3.0215,3.026,3.026,3.026,3.017,2.9166,2.7939,2.6654,2.6125,2.5062,2.381,2.3325,2.3144,2.3091,2.3091,2.3091,2.3091,2.3091,2.3091,2.3057,2.2891,2.2794,2.275,2.2485,2.2441,0.0,0.0,0.0,2.2097,2.2097,2.1919,2.1865,2.2309,2.1998,2.1785,2.2052,2.1874,2.2122,2.3226,2.4988,2.6299,2.6741,2.8269,2.9268,2.9304,3.081,3.1635,3.1229,3.2491,3.3104,3.2711,3.2939,3.3839,3.5507,3.5574,3.6029,3.6897,3.7772,3.7772,3.6975,3.6975,3.7414,3.8165,3.7323,3.6975,3.6975,3.6975,3.6478,3.5775,3.6596,3.6975,3.7053,3.7886,3.8202,3.8089,3.7208,3.591,3.4634,2.708,2.6934,2.6816,2.6709,2.6113,2.5801,2.6172,2.6221,2.6328,2.6641,2.6416,2.6221,2.6221,2.5937,2.5693,2.5693,2.5693,2.5693,2.5693,2.5635,2.5635,2.5693,2.5274,2.5226,2.5586,2.5079,2.503,2.5489,2.5284,2.5333,2.5586,0.0,0.0,0.0,2.6733,2.7605,2.8402,2.9658,3.0633,3.1294,3.1294,3.1294,3.1247,0.0,2.9429,2.8031,2.7216,2.5988,2.4703,2.4265,2.3691,2.3091,2.3091,2.3091,2.3091,2.3091,2.3091,2.3101,2.3057,2.3013,2.2969,2.275,2.2706,2.2618,0.0,0.0,0.0,0.0,0.0,0.0,0.0,2.2097,2.1963,2.183,2.1919,2.2264,2.3081,2.4606,2.5913,2.6517,2.7842,2.8871,2.9256,2.9697,3.0264,3.0936,3.1461,3.1964,3.245,3.268,3.3386,3.4662,3.5278,3.6029,3.6897,3.7772,3.8089,3.7886,3.7886,3.7962,3.8202,3.7962,3.7886,3.7886,3.7886,3.772,3.7553,3.7758,3.7886,3.7886,3.8127,3.8202,3.8089,3.7208,3.6624,3.6175,2.7617,2.7422,2.7236,2.7051,2.6611,2.6377,2.6621,2.666,2.6748,2.6982,2.6807,2.6592,2.6406,2.6172,2.5947,2.5703,2.5693,2.5693,2.5693,2.5693,2.5693,2.5693,2.5693,2.5693,2.5693,2.5538,2.5538,2.5693,2.5538,2.5538,2.5693,0.0,0.0,0.0,2.7426,2.8391,2.9418,3.0453,3.1193,3.1705,3.1705,3.1705,0.0,3.1115,3.0219,2.9211,2.8468,2.6982,2.538,2.5126,2.4734,2.4274,2.4274,2.4026,2.3691,2.3691,2.343,2.3091,2.3091,2.3091,2.3057,2.2969,2.2925,2.2882,2.2618,2.2574,2.2574,0.0,2.2485,2.2441,0.0,2.2353,2.2176,2.2043,2.2476,2.2818,2.2784,2.4681,2.608,2.6049,2.751,2.8631,2.8931,2.916,2.9544,3.0146,3.11,3.1772,3.2031,3.2759,3.3713,3.4896,3.54,3.6241,3.7453,3.7962,3.8202,3.8202,3.8202,3.8202,3.8202,3.8202,3.8202,3.8202,3.8202,3.8202,3.8202,3.8202,3.8202,3.8202,3.8202,3.8202,3.8127,3.7644,3.7208,3.6883,2.8291,2.7998,2.7627,2.7246,2.7187,2.7187,2.7187,2.7139,2.7119,2.7178,2.7129,2.6943,2.6514,2.6426,2.6211,2.5723,2.5693,2.5693,2.5693,2.5693,2.5693,2.5693,2.5693,2.5693,2.5693,2.5693,2.5693,2.5693,2.5693,2.5693,0.0,0.0,0.0,2.7237,2.8262,2.9326,3.0441,3.1339,3.1705,3.1705,3.1705,3.1669,3.1548,3.1019,3.0446,2.9917,2.9388,2.7788,2.5986,2.5986,2.5902,2.5777,2.5777,2.5284,2.4659,2.4659,2.4112,2.343,2.343,2.3387,2.3266,2.3266,2.3178,2.3047,2.2882,2.2838,2.2838,2.2838,2.2662,2.2608,0.0,0.0,2.2432,2.2564,2.3202,2.3464,2.2906,2.5052,2.6442,2.5777,2.7377,0.0,2.851,2.8931,2.922,2.9292,3.103,3.1942,3.1619,0.0,3.4191,3.5427,3.5602,3.6452,3.8,3.8127,3.8202,3.8202,3.8202,3.8202,3.8202,3.8202,3.8202,3.8202,3.8202,3.8202,3.8202,3.8202,3.8202,3.8202,3.8202,3.8202,3.8202,3.8202,3.772,3.7169,2.8291,2.8232,2.8164,2.8086,2.8066,2.8066,2.8066,2.7773,2.7676,2.8018,2.7764,2.7393,2.6953,2.6592,2.6211,2.5723,2.5693,2.5693,2.5693,2.5693,2.5693,2.5693,2.5693,2.5693,2.5693,2.5693,2.5693,2.5693,2.5693,2.5693,0.0,0.0,0.0,2.7237,2.8262,2.9704,3.1427,3.1617,3.1705,3.1705,3.1705,3.144,3.0995,3.0422,2.9893,2.9364,2.8835,2.7916,2.6969,2.6969,2.6464,2.5777,2.5777,2.5704,2.5579,2.5579,2.5453,2.5326,2.5326,2.4776,2.4241,2.4241,2.3691,2.3101,2.3057,2.3057,2.3057,2.3057,2.3003,2.2969,2.2882,0.0,0.0,2.341,2.3212,2.343,2.4776,2.5526,2.6205,2.6846,2.7846,2.851,2.851,2.8595,2.8823,2.9268,3.0548,3.1365,0.0,0.0,3.381,0.0,3.5278,0.0,0.0,0.0,3.8202,3.8202,3.8202,3.8202,3.8202,3.8202,3.8202,3.8202,3.8202,3.8202,3.8202,3.8202,3.8202,3.8202,3.8202,3.8202,3.8202,3.8202,3.8089,3.8,2.8291,2.8291,2.8291,2.8291,2.8291,2.8291,2.8291,2.8125,2.8066,2.8262,2.8115,2.7744,2.708,2.6836,2.6455,2.5742,2.5693,2.5693,2.5693,2.5693,2.5693,2.5693,2.5693,2.5693,2.5693,2.5693,2.5693,2.5693,2.5693,2.5693,0.0,0.0,0.0,2.8028,2.9567,3.0767,3.1705,3.1705,0.0,3.1681,3.1404,3.1151,3.0826,2.9989,2.952,2.9232,2.8703,2.8219,2.7886,2.7886,2.7592,2.7214,2.7214,2.6876,2.6547,2.6547,2.6163,2.5777,2.5777,2.5495,2.5158,2.5158,2.4488,2.382,2.382,2.344,2.3091,2.3091,2.3091,2.3222,2.3604,2.3604,0.0,0.0,2.4563,2.4648,2.5526,2.6535,2.7214,2.7185,2.7966,2.851,2.851,2.851,2.8619,2.8871,3.0261,3.1117,3.1176,0.0,3.3882,0.0,0.0,0.0,3.7567,0.0,3.8202,3.8202,3.8202,3.8202,3.8202,3.8202,3.8202,3.8202,3.8202,3.8202,3.8202,3.8202,3.8202,3.8202,3.8202,3.8202,3.8202,3.8202,3.8202,3.8202,2.8291,2.8291,2.8291,2.8291,2.8291,2.8291,2.8291,2.8291,2.8291,2.8291,2.8291,2.8008,2.7236,2.707,2.6709,2.5947,2.5742,2.5693,2.5693,2.5693,2.5693,2.5693,2.5693,2.5693,2.5693,2.5693,2.5781,2.6014,2.5781,0.0,0.0,0.0,0.0,0.0,3.0913,0.0,0.0,0.0,3.1645,3.15,3.1091,3.0735,3.0446,2.9617,2.9232,2.9076,2.8655,2.851,2.851,2.851,2.851,2.851,2.851,2.8018,2.747,2.747,2.6958,2.637,2.637,2.6246,2.608,2.608,2.5411,2.4787,2.4787,2.4198,2.3681,2.3681,2.3681,2.3897,2.4616,2.4787,0.0,0.0,2.5913,2.5944,2.6329,2.7458,2.8059,2.7563,2.8099,2.851,2.851,2.851,2.855,2.8657,3.0235,3.1087,3.0811,0.0,0.0,0.0,0.0,3.657,3.7924,0.0,3.8202,3.8202,3.8202,3.8202,3.8202,3.8202,3.8202,3.8202,3.8202,3.8202,3.8202,3.8202,3.8202,3.8202,3.8202,3.8202,3.8202,3.8202,3.8202,3.8202,2.8291,2.8291,2.8291,2.8291,2.8291,2.8291,2.8291,2.8291,2.8291,2.8291,2.8291,2.8115,2.7708,2.7246,2.6836,2.6367,2.5967,2.5693,2.5693,2.5693,2.5693,2.5693,2.5693,2.5693,2.5693,2.5693,2.6149,2.7047,2.6149,2.661,0.0,0.0,0.0,0.0,0.0,0.0,0.0,3.1705,3.1428,3.0995,3.0946,3.0302,2.9436,2.934,2.9003,2.8582,2.8522,2.851,2.851,2.851,2.851,2.851,2.851,2.8431,2.8379,2.8379,2.8299,2.8259,2.8259,2.7672,2.7051,2.7051,2.6381,2.5694,2.5694,2.561,2.5526,2.5526,2.5526,2.5568,2.5652,2.5694,2.5997,0.0,0.0,2.637,2.8007,2.7713,2.7592,2.8299,2.8471,2.851,2.851,2.851,2.8736,2.9263,3.0638,3.1263,3.0811,0.0,0.0,3.4509,3.5976,3.6858,3.7014,3.781,3.8202,3.8202,3.8202,3.8202,3.8202,3.8202,3.8202,3.8202,3.8202,3.8202,3.8202,3.8202,3.8202,3.8202,3.8202,3.8202,3.8202,3.8202,3.8202,3.8202,2.8291,2.8291,2.8291,2.8291,2.8857,2.926,2.926,2.9828,3.0297,3.0297,2.9112,2.8135,2.7767,2.782,2.7723,2.7338,2.6873,2.6877,2.7437,2.6924,2.6877,2.7484,2.7484,2.7484,2.7484,2.7484,2.7709,2.8121,2.7709,2.7898,0.0,0.0,0.0,0.0,0.0,3.1705,3.1681,3.1368,3.1115,3.0819,3.0182,2.9677,2.9268,2.8943,2.8691,2.851,2.851,2.851,2.851,2.8657,2.8618,2.851,2.851,2.851,2.851,2.851,2.851,2.851,2.851,2.8259,2.7966,2.7966,2.7296,2.6629,2.6629,2.6205,2.5777,2.5777,2.6246,2.6629,2.6629,2.6629,2.6917,2.7846,0.0,2.7092,2.8299,2.8179,2.8099,2.8471,2.851,2.855,2.8657,2.8578,2.8816,2.9523,3.0626,3.1524,0.0,0.0,0.0,3.587,0.0,3.713,3.7682,3.8037,3.8202,3.8202,3.8202,3.8202,3.8202,3.8202,3.8202,3.8202,3.8202,3.8202,3.8202,3.8202,3.8202,3.8202,3.8202,3.8202,3.8202,3.8202,3.8202,3.8202,2.927,2.927,2.927,2.927,2.988,3.039,3.039,3.1062,3.1575,3.1575,3.0245,2.9149,2.8897,2.8938,2.8848,2.8572,2.7962,2.7934,2.8634,2.8028,2.7981,2.868,2.868,2.868,2.868,2.868,2.8855,2.9143,2.8855,0.0,0.0,0.0,0.0,0.0,3.1761,3.1709,3.154,3.1209,3.0858,3.0465,2.9758,2.9359,2.9137,2.8814,2.8669,2.8669,2.8669,2.8669,2.8697,2.8843,2.8776,2.8669,2.8669,2.859,2.851,2.8578,2.855,2.851,2.851,2.851,2.851,2.851,2.8059,2.7603,2.7603,2.708,2.6577,2.6577,2.7133,2.7603,2.7603,2.7603,2.7765,2.8391,0.0,0.0,2.8431,2.851,2.851,2.851,2.851,2.8578,2.8803,2.8657,2.8922,2.9716,3.0972,3.2076,0.0,0.0,0.0,0.0,0.0,0.0,3.8202,3.8202,3.8202,3.8202,3.8202,3.8202,3.8202,3.8202,3.8202,3.8202,3.8202,3.8202,3.8202,3.8202,3.8202,3.8202,3.8202,3.8202,3.8202,3.8202,3.8202,3.8202,3.1575,3.1575,3.1575,3.1575,3.1575,3.1575,3.1575,3.1575,3.1575,3.1575,3.1586,3.1575,3.1564,3.0662,3.0084,3.0073,2.9237,2.868,2.868,2.868,2.868,2.868,2.868,2.868,2.868,2.868,2.9189,3.017,2.9189,0.0,3.1661,0.0,3.1705,3.1705,3.1893,3.169,3.1204,3.1424,3.0758,2.9606,2.9821,2.945,2.8843,2.9013,2.9091,2.9091,2.9091,2.9091,2.9091,2.9091,2.9091,2.9091,2.9091,2.8816,2.855,2.8724,2.8657,2.851,2.851,2.851,2.851,2.851,2.8471,2.8471,2.8471,2.8471,2.8471,2.8471,2.8471,2.8471,2.8471,2.8471,2.8471,2.851,0.0,0.0,2.851,2.851,2.851,2.851,2.851,2.8578,2.8803,2.8791,2.9145,2.9922,3.1902,3.3052,0.0,0.0,0.0,3.6897,3.772,0.0,3.8202,3.8202,3.8202,3.8202,3.8202,3.8202,3.8202,3.8202,3.8202,3.8202,3.8202,3.8202,3.8202,3.8202,3.8202,3.8202,3.8202,3.8202,3.8202,3.8202,3.8202,3.8202,3.188,3.1728,3.1575,3.1575,3.2185,3.2689,3.2689,3.33,3.3758,3.3758,3.3758,3.3758,3.3758,3.2197,3.1112,3.1112,3.0234,3.0022,3.0678,3.0113,3.0022,3.0734,3.0734,3.0734,3.0734,3.0734,3.0913,3.1238,0.0,0.0,0.0,3.1705,3.1749,3.1893,3.1994,3.1777,3.1412,3.1141,3.0564,2.9784,2.9496,2.9199,2.9013,2.9091,2.9091,2.9091,2.9091,2.9091,2.9131,2.9275,2.9197,2.917,2.9468,2.926,2.8934,2.9013,2.8973,2.8895,2.8895,2.8895,2.8895,2.8895,2.8895,2.8855,2.8724,2.8685,2.8724,2.8895,2.8895,2.8895,2.8895,2.8895,2.8895,2.8895,2.8895,0.0,2.8895,2.8895,2.8895,2.8895,2.8895,2.9013,2.9184,2.9079,2.9775,3.1572,3.2821,0.0,0.0,0.0,0.0,0.0,3.8037,0.0,3.8202,3.8202,3.8202,3.8202,3.8202,3.8202,3.8202,3.8202,3.8202,3.8202,3.8202,3.8202,3.8202,3.8202,3.8202,3.8202,3.8202,3.8202,3.8202,3.8202,3.8202,3.8202,3.3338,3.3139,3.2939,3.2939,3.34,3.3808,3.3967,3.4519,3.4932,3.4932,3.503,3.5078,3.4981,3.3482,0.0,3.2241,3.133,3.1015,3.1661,3.1104,3.1048,3.1661,3.1705,3.1705,3.1705,3.1705,0.0,3.1705,3.1705,3.1705,3.1705,3.1761,3.1893,3.1994,3.2201,3.2025,3.16,3.1195,3.065,3.0013,2.9561,2.9287,2.9236,2.9326,2.9378,2.9378,2.9378,2.9378,2.9378,2.9521,2.9495,2.9417,2.9714,2.9585,2.9339,2.9236,2.917,2.9091,2.9091,2.9091,2.9091,2.9091,2.9091,2.9052,2.8922,2.8922,2.8961,2.9052,2.9091,2.9091,2.9091,2.9091,2.9091,2.9091,2.9091,2.9091,2.9091,2.9091,2.9091,2.9091,2.9091,2.9157,0.0,2.95,3.0311,3.2115,3.3436,0.0,0.0,0.0,0.0,3.8202,3.8202,3.8202,3.8202,3.8202,3.8202,3.8202,3.8202,3.8202,3.8202,3.8202,3.8202,3.8202,3.8202,3.8202,3.8202,3.8202,3.8202,3.8202,3.8202,3.8202,3.8202,3.8202,3.8202,3.8202,3.562,3.5416,3.5223,3.5223,3.503,3.492,3.5175,3.5223,3.5223,3.5223,3.5476,3.5512,3.5271,3.4509,3.3827,3.3377,0.0,0.0,3.1761,3.1705,3.1705,3.1705,3.1705,3.1705,3.1705,3.1749,3.1761,3.1761,3.1761,3.1761,3.1749,3.1937,3.2038,3.2081,3.2506,3.2413,3.1908,3.1542,3.0991,3.0306,2.9927,2.965,2.947,2.9702,2.9792,2.9792,2.9792,2.9792,2.9792,2.9792,2.9792,2.9792,2.9792,2.9792,2.974,2.9509,2.9314,2.9131,2.9131,2.9131,2.9131,2.9131,2.9131,2.9131,2.9131,2.9131,2.9131,2.9131,2.9131,2.9131,2.9131,2.9131,2.9131,2.9131,2.9131,2.9143,2.918,2.918,2.9204,2.9281,0.0,0.0,2.953,3.0094,3.0911,0.0,3.3838,0.0,0.0,0.0,3.8202,3.8202,3.8202,3.8202,3.8202,3.8202,3.8202,3.8202,3.8202,3.8202,3.8202,3.8202,3.8202,3.8202,3.8202,3.8202,3.8202,3.8202,3.8202,3.8202,3.8202,3.8202,3.8202,3.8202,3.8202,3.8202,0.0,0.0,3.5416,3.5223,3.532,3.5368,3.5223,3.5368,3.5524,3.5524,3.5572,3.5572,3.5524,3.4603,3.3964,3.3827,3.2836,3.2213,3.2213,3.2025,3.195,3.195,3.195,3.195,3.195,3.2125,3.2213,3.2213,3.2213,3.2213,3.2257,3.2257,3.2388,3.255,3.2624,3.2486,3.2093,3.1625,3.1044,3.049,3.0018,2.9753,2.9702,2.9792,2.9792,2.9792,2.9792,2.9792,2.9792,2.9792,2.9792,2.9792,2.9792,2.9792,2.9792,2.9702,2.9663,2.9624,2.9624,2.9624,2.9624,2.9624,2.9482,2.9392,2.9585,2.9482,2.9392,2.9585,2.9624,2.9624,2.9624,2.9624,2.9624,2.9624,2.9624,2.9774,3.0198,3.0248,3.0398,0.0,3.0848,3.0876,3.0916,3.166,3.2686,0.0,0.0,3.6372,3.7627,3.8003,3.8202,3.8202,3.8202,3.8202,3.8202,3.8202,3.8202,3.8202,3.8202,3.8202,3.8202,3.8202,3.8202,3.8202,3.8202,3.8202,3.8202,3.8202,3.8202,3.8202,3.8202,3.8202,3.8202,3.8202,3.8202,3.8202,3.6193,3.5955,3.5716,3.5572,3.5572,3.5572,3.5572,3.5668,3.5764,3.5764,3.5908,3.5895,3.5812,3.4929,3.4318,3.4318,3.3148,3.24,3.24,3.2257,3.2169,3.2169,3.2169,3.2169,3.2169,3.2313,3.24,3.24,3.24,3.24,3.24,3.2475,3.2593,3.2723,3.2853,3.2764,3.2554,3.1738,3.1223,3.0896,3.0105,2.9792,2.9792,2.9792,2.9792,2.9792,2.9792,2.9792,2.9792,2.9792,2.9792,2.9792,2.9792,2.9792,2.9792,2.9792,2.9792,2.9792,2.9792,2.9792,2.9792,2.9792,2.9689,2.9611,2.9753,2.9702,2.9611,2.9753,2.9792,2.9792,2.9792,2.9792,2.9792,2.9792,3.0005,3.0269,3.057,3.0821,3.1072,3.1361,3.1739,3.1968,3.1968,3.2975,3.4121,3.5317,3.607,0.0,3.815,3.8202,3.8202,3.8202,3.8202,3.8202,3.8202,3.8202,3.8202,3.8202,3.8202,3.8202,3.8202,3.8202,3.8202,3.8202,3.8202,3.8202,3.8202,3.8202,3.8202,3.8202,3.8202,3.8202,3.8202,3.8202,3.8202,3.8202,3.6405,3.6228,3.6063,3.6015,3.586,3.5764,3.5968,3.6015,3.6051,3.6051,3.6275,3.6323,3.6098,3.5253,3.468,3.468,3.3369,3.2531,3.2531,3.2475,3.2431,3.2431,3.2431,3.2431,3.2431,3.2475,3.2531,3.2531,3.2531,3.2531,3.2531,3.268,3.2754,3.2766,3.2995,3.3124,3.3048,3.1863,3.1386,3.1298,3.0218,2.9792,2.9792,2.9792,2.9792,2.9792,2.9792,2.9792,2.9792,2.9792,2.9792,2.9792,2.9792,2.9792,2.9792,2.9792,2.9792,2.9792,2.9792,2.9792,2.9792,2.9792,2.9792,2.9792,2.9792,2.9792,2.9792,2.9792,2.9792,2.9792,2.9792,2.9792,2.9817,2.9905,3.0424,3.0857,3.1021,0.0,3.1782,3.2021,3.2587,3.2974,3.3133,3.4348,3.543,3.615,3.6757,3.7414,3.8165,3.8202,3.8202,3.8202,3.8202,3.8202,3.8202,3.8202,3.8202,3.8202,3.8202,3.8202,3.8202,3.8202,3.8202,3.8202,3.8202,3.8202,3.8202,3.8202,3.8202,3.8202,3.8202,3.8202,3.8202,3.8202,3.8202,3.8202,3.6405,3.6358,3.6275,3.6063,3.6133,3.6228,3.6015,3.6193,3.6323,3.6323,3.6358,3.6358,3.6323,3.5332,3.468,3.468,3.3665,3.2995,3.2995,3.2766,3.2636,3.2636,3.2636,3.2636,3.2636,3.2865,3.2995,3.2995,3.2995,3.2995,3.2995,3.3025,3.3038,3.3038,3.3068,3.3124,3.3048,3.1863,3.1386,3.1298,3.0218,2.9792,2.9792,2.9792,2.9792,2.9792,2.9792,2.9792,2.9792,2.9792,2.9792,2.9792,2.9792,2.9792,2.9792,2.9792,2.9792,2.9792,2.9792,2.9792,2.9792,2.9792,2.9792,2.9792,2.9792,2.9792,2.9792,2.9792,2.9792,2.9792,2.9792,2.9792,2.9942,3.0407,3.1137,3.202,3.2903,0.0,3.3616,3.4808,3.4467,3.4385,3.5063,3.5995,3.6626,3.6757,3.7548,3.8037,3.8202,3.8202,3.8202,3.8202,3.8202,3.8202,3.8202,3.8202,3.8202,3.8202,3.8202,3.8202,3.8202,3.8202,3.8202,3.8202,3.8202,3.8202,3.8202,3.8202,3.8202,3.8202,3.8202,3.8202,3.8202,3.8202,3.8202,3.8202,3.6405,3.6405,3.6358,3.6228,3.6323,3.6358,3.6228,3.6323,3.6405,3.6405,3.6405,3.6405,3.6405,3.5642,3.4994,3.4751,3.3985,3.3395,3.3136,3.2982,3.2896,3.2896,3.2896,3.2896,3.2896,3.3038,3.3124,3.3124,3.3124,3.3124,3.3124,3.3124,3.3124,3.3124,3.3124,3.3124,3.3048,3.1863,3.1386,3.1298,3.0218,2.9792,2.9792,2.9792,2.9792,2.9792,2.9792,2.9792,2.9792,2.9792,2.9792,2.9792,2.9792,2.9792,2.9792,2.9792,2.9792,2.9792,2.9792,2.9792,2.9792,2.9792,2.9792,2.9792,2.9792,2.9792,2.9792,2.9792,2.9792,2.9934,3.0305,3.0676,3.1151,3.1783,3.2799,0.0,3.4113,3.446,3.4875,3.5507,3.5682,3.5896,3.6281,3.7078,3.7606,3.7606,3.7962,3.8202,3.8202,3.8202,3.8202,3.8202,3.8202,3.8202,3.8202,3.8202,3.8202,3.8202,3.8202,3.8202,3.8202,3.8202,3.8202,3.8202,3.8202,3.8202,3.8202,3.8202,3.8202,3.8202,3.8202,3.8202,3.8202,3.8202,3.8202,3.8202,3.6405,3.6405,3.6405,3.6405,3.6405,3.6405,3.6405,3.6405,3.6405,3.6405,3.6405,3.6405,3.6405,3.5868,3.527,3.4731,3.4223,3.3671,3.3162,3.3124,3.3124,3.3124,3.3124,3.3124,3.3124,3.3124,3.3124,3.3124,3.3124,3.3124,3.3124,3.3124,3.3124,3.3124,3.3124,3.3124,3.3048,3.1863,3.1386,3.1298,3.0218,2.9792,2.9792,2.9792,2.9792,2.9792,2.9792,2.9792,2.9792,2.9792,2.9792,2.9792,2.9792,2.9792,2.9792,2.9792,2.9792,2.9792,2.9792,2.9792,2.9792,2.9792,2.9792,2.9792,2.9792,2.9792,2.9869,3.0037,3.0075,3.0279,3.1044,3.1719,3.2384,3.3084,0.0,3.5139,0.0,3.5661,3.5989,3.6188,3.6596,3.6975,3.7169,3.781,3.8202,3.8202,3.8202,3.8202,3.8202,3.8202,3.8202,3.8202,3.8202,3.8202,3.8202,3.8202,3.8202,3.8202,3.8202,3.8202,3.8202,3.8202,3.8202,3.8202,3.8202,3.8202,3.8202,3.8202,3.8202,3.8202,3.8202,3.8202,3.8202,3.8202,3.8202,3.8202,3.6405,3.6405,3.6405,3.6405,3.6405,3.6405,3.6405,3.6405,3.6405,3.6405,3.6405,3.6405,3.6405,3.5868,3.527,3.4731,3.4223,3.3671,3.3162,3.3124,3.3124,3.3124,3.3124,3.3124,3.3124,3.3124,3.3124,3.3124,3.3124,3.3124,3.3124,3.3124,3.3124,3.3124,3.3124,3.3124,3.3048,3.1863,3.1386,3.1298,3.0218,2.9792,2.9792,2.9792,2.9792,2.9792,2.9792,2.9792,2.9792,2.9792,2.9792,2.9792,2.9792,2.9792,2.9792,2.9792,2.9792,2.9792,2.9792,2.9792,2.9792,2.9792,2.9792,2.9792,2.9792,2.9792,2.9998,3.0683,3.082,3.1044,3.1856,3.2525,3.3122,3.3729,0.0,0.0,3.6665,3.6777,3.7092,3.7924,3.7362,3.7208,3.8037,3.8165,3.8202,3.8202,3.8202,3.8202,3.8202,3.8202,3.8202,3.8202,3.8202,3.8202,3.8202,3.8202,3.8202,3.8202,3.8202,3.8202,3.8202,3.8202,3.8202,3.8202,3.8202,3.8202,3.8202,3.8202,3.8202,3.8202,3.8202,3.8202,3.8202,3.8202,3.8202,3.8202,3.6405,3.6405,3.6405,3.6405,3.6405,3.6405,3.6405,3.6405,3.6405,3.6405,3.6405,3.6405,3.6405,3.6182,3.5692,3.4801,3.4525,3.4035,3.3174,3.3124,3.3124,3.3124,3.3124,3.3124,3.3124,3.3124,3.3124,3.3124,3.3124,3.3124,3.3124,3.3124,3.3124,3.3124,3.3124,3.3124,3.3074,3.224,3.17,3.1336,3.0595,3.0093,2.9792,2.9792,2.9792,2.9792,2.9792,2.9792,2.9792,2.9792,2.9792,2.9792,2.9792,2.9792,2.9792,2.9792,2.9792,2.9895,3.0343,3.0139,2.9792,2.9792,2.9792,2.9792,2.9792,2.9792,2.9998,3.0758,3.0895,3.141,3.3087,3.3923,3.472,3.5826,0.0,3.7447,3.7691,3.772,3.7848,3.8165,3.7924,3.7848,3.8165,3.8202,3.8202,3.8202,3.8202,3.8202,3.8202,3.8202,3.8202,3.8202,3.8202,3.8202,3.8202,3.8202,3.8202,3.8202,3.8202,3.8202,3.8202,3.8202,3.8202,3.8202,3.8202,3.8202,3.8202,3.8202,3.8202,3.8202,3.8202,3.8202,3.8202,3.8202,3.8202,3.8202,3.6405,3.6405,3.6405,3.6405,3.6405,3.6405,3.6405,3.6405,3.6405,3.6405,3.6405,3.6405,3.6405,3.6405,3.5918,3.4813,3.468,3.4248,3.3156,3.3124,3.3124,3.3124,3.3124,3.3124,3.3124,3.3124,3.3124,3.3124,3.3124,3.3124,3.3124,3.3124,3.3124,3.3124,3.3124,3.3124,3.3043,3.2453,3.1888,3.1348,3.0821,3.0281,2.9792,2.9792,2.9792,2.9792,2.9792,2.9792,2.9792,2.9792,2.9792,2.9792,2.9792,2.9792,2.9792,2.9792,2.9792,2.996,3.0683,3.0507,3.0139,3.0139,3.033,3.0406,2.9895,3.019,3.0736,3.1431,3.1755,3.2535,3.4496,3.54,3.6168,3.7157,3.781,3.8202,3.8202,3.8202,3.8202,3.8202,3.8202,3.8202,3.8202,3.8202,3.8202,3.8202,3.8202,3.8202,3.8202,3.8202,3.8202,3.8202,3.8202,3.8202,3.8202,3.8202,3.8202,3.8202,3.8202,3.8202,3.8202,3.8202,3.8202,3.8202,3.8202,3.8202,3.8202,3.8202,3.8202,3.8202,3.8202,3.8202,3.8202,3.8202,3.8202,3.8202,3.6405,3.6405,3.6405,3.6405,3.6405,3.6405,3.6405,3.6405,3.6405,3.6405,3.6405,3.6405,3.6405,3.6405,3.5918,3.4813,3.468,3.4248,3.3156,3.3124,3.3124,3.3124,3.3124,3.3124,3.3124,3.3124,3.3124,3.3124,3.3124,3.3124,3.3124,3.3124,3.3124,3.3124,3.3124,3.3124,3.3043,3.2466,3.1901,3.1348,3.0834,3.0294,2.9804,2.9792,2.9792,2.9792,2.9792,2.9792,2.9792,2.9792,2.9792,2.9792,2.9792,2.9792,2.9792,2.9792,2.9792,2.996,3.0733,3.0932,3.0932,3.0895,3.1489,3.17,3.0164,3.0985,3.23,3.2884,3.3661,3.4632,3.6042,3.6867,3.7302,3.7317,3.781,3.8202,3.8202,3.8202,3.8202,3.8202,3.8202,3.8202,3.8202,3.8202,3.8202,3.8202,3.8202,3.8202,3.8202,3.8202,3.8202,3.8202,3.8202,3.8202,3.8202,3.8202,3.8202,3.8202,3.8202,3.8202,3.8202,3.8202,3.8202,3.8202,3.8202,3.8202,3.8202,3.8202,3.8202,3.8202,3.8202,3.8202,3.8202,3.8202,3.8202,3.8202,3.6405,3.6405,3.6405,3.6405,3.6405,3.6405,3.6405,3.6405,3.6405,3.6405,3.6405,3.6405,3.6405,3.6405,3.5918,3.4813,3.468,3.4248,3.3156,3.3124,3.3124,3.3124,3.3124,3.3124,3.3124,3.3124,3.3124,3.3124,3.3124,3.3124,3.3124,3.3124,3.3124,3.3124,3.3124,3.3124,3.3111,3.2893,3.2491,3.1913,3.1373,3.0846,3.0331,2.9942,2.9792,2.9792,2.9792,2.9792,2.9792,2.9792,2.9792,2.9792,2.9792,2.9792,2.9895,3.0406,3.0582,3.0962,3.2736,3.3239,3.2823,3.1286,3.1346,3.1724,3.1357,3.1926,3.2896,3.4256,3.4741,3.5319,3.6736,3.7172,3.7447,3.7868,3.8086,3.8202,3.8202,3.8202,3.8202,3.8202,3.8202,3.8202,3.8202,3.8202,3.8202,3.8202,3.8202,3.8202,3.8202,3.8202,3.8202,3.8202,3.8202,3.8202,3.8202,3.8202,3.8202,3.8202,3.8202,3.8202,3.8202,3.8202,3.8202,3.8202,3.8202,3.8202,3.8202,3.8202,3.8202,3.8202,3.8202,3.8202,3.8202,3.8202,3.8202,3.8202,3.6405,3.6405,3.6405,3.6405,3.6405,3.6405,3.6405,3.6405,3.6405,3.6405,3.6405,3.6405,3.6405,3.6405,3.6053,3.5082,3.465,3.4022,3.3174,3.3124,3.3124,3.3124,3.3124,3.3124,3.3124,3.3124,3.3124,3.3124,3.3124,3.3124,3.3124,3.3124,3.3124,3.3124,3.3124,3.3124,3.3124,3.3124,3.2742,3.2177,3.1851,3.1273,3.0583,3.0244,2.998,2.9792,2.9792,2.9792,2.9792,2.9792,2.9792,2.9792,2.9792,2.9792,3.001,3.1006,3.1286,3.1781,3.4001,3.4584,3.4268,3.2935,3.3074,3.3383,3.2829,3.3455,3.4389,3.5368,3.581,3.6356,3.7461,3.7665,3.7781,3.8144,3.8202,3.8202,3.8202,3.8202,3.8202,3.8202,3.8202,3.8202,3.8202,3.8202,3.8202,3.8202,3.8202,3.8202,3.8202,3.8202,3.8202,3.8202,3.8202,3.8202,3.8202,3.8202,3.8202,3.8202,3.8202,3.8202,3.8202,3.8202,3.8202,3.8202,3.8202,3.8202,3.8202,3.8202,3.8202,3.8202,3.8202,3.824,3.8315,3.8315,3.8315,3.8329,3.6405,3.6405,3.6405,3.6405,3.6405,3.6405,3.6405,3.6405,3.6405,3.6405,3.6405,3.6405,3.6405,3.6405,3.6144,3.5545,3.4537,3.3671,3.3162,3.3124,3.3124,3.3124,3.3124,3.3124,3.3124,3.3124,3.3124,3.3124,3.3124,3.3124,3.3124,3.3124,3.3124,3.3124,3.3124,3.3124,3.3124,3.3124,3.2767,3.229,3.2227,3.1625,3.0758,3.0708,3.0344,2.9867,2.9867,2.9829,2.9804,2.9854,2.9867,2.988,2.9917,3.0007,3.029,3.1603,3.2016,3.2557,3.4678,3.5254,3.5305,3.545,3.5977,3.6071,3.4554,3.5319,3.6331,3.6297,3.6865,3.7549,3.8101,3.8202,3.8202,3.8202,3.8202,3.8202,3.8202,3.8202,3.8202,3.8202,3.8202,3.8202,3.8202,3.8202,3.8202,3.8202,3.8202,3.8202,3.8202,3.8202,3.8202,3.8202,3.8202,3.8202,3.8202,3.8202,3.8202,3.8202,3.8202,3.8202,3.8202,3.8202,3.8202,3.8202,3.8202,3.8202,3.8202,3.8202,3.8202,3.8202,3.8202,3.8315,3.8478,3.8478,3.8478,3.8516,3.6405,3.6405,3.6405,3.6405,3.6405,3.6405,3.6405,3.6405,3.6405,3.6405,3.6405,3.6405,3.6405,3.6405,3.6144,3.5545,3.4537,3.3671,3.3162,3.3124,3.3124,3.3124,3.3124,3.3124,3.3124,3.3124,3.3124,3.3124,3.3124,3.3124,3.3124,3.3124,3.3124,3.3124,3.3124,3.3124,3.3124,3.3124,3.3006,3.2855,3.239,3.2077,3.1825,3.1386,3.0896,3.0432,3.0432,3.0168,2.9854,3.0294,3.0432,3.0507,3.0922,3.1516,3.211,3.2385,3.2932,3.3824,3.538,3.5826,3.609,3.7279,3.767,3.7428,3.5949,3.623,3.6968,3.7618,3.7887,3.8043,3.8188,3.8202,3.8202,3.8202,3.8202,3.8202,3.8202,3.8202,3.8202,3.8202,3.8202,3.8202,3.8202,3.8202,3.8202,3.8202,3.8202,3.8202,3.8202,3.8202,3.8202,3.8202,3.8202,3.8202,3.8202,3.8202,3.8202,3.8202,3.8202,3.8202,3.8202,3.8202,3.8202,3.8202,3.8202,3.8202,3.8202,3.8202,3.8202,3.8202,3.8202,3.824,3.8277,3.8277,3.8277,3.8389,3.6405,3.6405,3.6405,3.6405,3.6405,3.6405,3.6405,3.6405,3.6405,3.6405,3.6405,3.6405,3.6405,3.6405,3.6031,3.5169,3.4625,3.3947,3.3174,3.3124,3.3124,3.3124,3.3124,3.3124,3.3124,3.3124,3.3124,3.3124,3.3124,3.3124,3.3124,3.3124,3.3124,3.3124,3.3124,3.3124,3.3124,3.3124,3.3124,3.3056,3.2754,3.2466,3.2177,3.1888,3.1449,3.0984,3.0984,3.0796,3.0595,3.0884,3.0984,3.1035,3.1298,3.1699,3.218,3.2853,3.337,3.4004,3.5411,3.6122,3.6606,3.7367,3.7886,3.8003,3.7266,3.7339,3.7644,3.8127,3.8202,3.8202,3.8202,3.8202,3.8202,3.8202,3.8202,3.8202,3.8202,3.8202,3.8202,3.8202,3.8202,3.8202,3.8202,3.8202,3.8202,3.8202,3.8202,3.8202,3.8202,3.8202,3.8202,3.8202,3.8202,3.824,3.8329,3.8329,3.8389,3.8501,3.8389,3.8329,3.8366,3.8464,3.8501,3.8501,3.8501,3.8501,3.8501,3.8501,3.8501,3.8501,3.8501,3.8501,3.8538,3.8797,3.9169,3.9642,3.6405,3.6405,3.6405,3.6405,3.6405,3.6405,3.6405,3.6405,3.6405,3.6405,3.6405,3.6405,3.6405,3.6405,3.5918,3.4813,3.468,3.4248,3.3156,3.3124,3.3124,3.3124,3.3124,3.3124,3.3124,3.3124,3.3124,3.3124,3.3124,3.3124,3.3124,3.3124,3.3124,3.3124,3.3124,3.3124,3.3124,3.3124,3.3124,3.3124,3.3124,3.2792,3.2353,3.2353,3.2014,3.1537,3.1537,3.1474,3.1399,3.1499,3.1537,3.1549,3.165,3.1798,3.212,3.3155,3.353,3.3948,3.5251,3.6108,3.6727,3.7053,3.7682,3.8202,3.8202,3.8202,3.8202,3.8202,3.8202,3.8202,3.8202,3.8202,3.8202,3.8202,3.8202,3.8202,3.8202,3.8202,3.8202,3.8202,3.8202,3.8202,3.8202,3.8202,3.8202,3.8202,3.8202,3.8202,3.8202,3.824,3.824,3.8202,3.824,3.8329,3.8478,3.8478,3.859,3.8782,3.8664,3.859,3.8553,3.8723,3.8782,3.8782,3.8782,3.8782,3.8782,3.8782,3.8855,3.9002,3.9002,3.906,3.9226,3.9707,4.0462,4.1227,3.6405,3.6405,3.6405,3.6405,3.6405,3.6405,3.6405,3.6405,3.6405,3.6405,3.6405,3.6405,3.6405,3.6405,3.5918,3.4813,3.468,3.4248,3.3156,3.3124,3.3124,3.3124,3.3124,3.3124,3.3124,3.3124,3.3124,3.3124,3.3124,3.3124,3.3124,3.3124,3.3124,3.3124,3.3124,3.3124,3.3124,3.3124,3.3124,3.3124,3.3124,3.3031,3.2998,3.2998,3.2604,3.2102,3.2102,3.1788,3.1461,3.1938,3.2102,3.219,3.2692,3.3381,3.3884,3.3301,3.3707,3.4487,3.5359,3.5695,3.6148,3.7644,3.8127,3.8202,3.8202,3.8202,3.8202,3.8202,3.8202,3.8202,3.8202,3.8202,3.8202,3.8202,3.8202,3.8202,3.8202,3.8202,3.8202,3.8202,3.8202,3.8202,3.8202,3.8202,3.8202,3.8202,3.8202,3.8202,3.8202,3.8366,3.8366,3.8202,3.8366,3.8478,3.8478,3.8478,3.859,3.8782,3.8943,3.8922,3.8745,3.8797,3.8782,3.8782,3.8782,3.8782,3.8782,3.8782,3.9169,3.9763,3.9763,4.0104,4.0628,4.0712,4.1346,4.2126,3.6405,3.6405,3.6405,3.6405,3.6405,3.6405,3.6405,3.6405,3.6405,3.6405,3.6405,3.6405,3.6405,3.6405,3.5918,3.4813,3.468,3.4248,3.3156,3.3124,3.3124,3.3124,3.3124,3.3124,3.3124,3.3124,3.3124,3.3124,3.3124,3.3124,3.3124,3.3124,3.3124,3.3124,3.3124,3.3124,3.3124,3.3124,3.3124,3.3124,3.3124,3.3124,3.3124,3.3124,3.2918,3.2692,3.2692,3.2541,3.2365,3.2616,3.2692,3.2742,3.3006,3.3368,3.3611,3.3197,3.3738,3.4481,3.4814,3.5602,3.6517,3.7285,3.7848,3.8202,3.8202,3.8202,3.8202,3.8202,3.8202,3.8202,3.8202,3.8202,3.8202,3.8202,3.8202,3.8202,3.8202,3.8202,3.8202,3.8202,3.8202,3.8202,3.8202,3.8202,3.8202,3.8202,3.8202,3.8202,3.8202,3.8277,3.8329,3.8366,3.8441,3.8627,3.8848,3.8848,3.8922,3.9141,3.9228,3.9141,3.898,3.9068,3.9141,3.9141,3.9141,3.9141,3.9177,3.958,3.994,4.0255,4.0653,4.1111,4.1575,4.1642,4.2126,4.2772]}]]